     2              OBSERVATION DATA    GPS                 RINEX VERSION / TYPE
teqc 2000Jul20 Karen Wendt 20030414 22:25:23UTC             PGM / RUN BY / DATE
                                                            COMMENT
L2: 1 -> 1; 150 -> 5; 250 -> 9                              COMMENT
L2: 1 -> 1; 150 -> 5; 250 -> 9                              COMMENT
L2: 1 -> 1; 150 -> 5; 250 -> 9                              COMMENT
L2: 1 -> 1; 150 -> 5; 250 -> 9                              COMMENT
L2: 1 -> 1; 150 -> 5; 250 -> 9                              COMMENT
L2: 1 -> 1; 150 -> 5; 250 -> 9                              COMMENT
L2: 1 -> 1; 150 -> 5; 250 -> 9                              COMMENT
L2: 1 -> 1; 150 -> 5; 250 -> 9                              COMMENT
L2: 1 -> 1; 150 -> 5; 250 -> 9                              COMMENT
L2: 1 -> 1; 150 -> 5; 250 -> 9                              COMMENT
L2: 1 -> 1; 150 -> 5; 250 -> 9                              COMMENT
L2: 1 -> 1; 150 -> 5; 250 -> 9                              COMMENT
L2: 1 -> 1; 150 -> 5; 250 -> 9                              COMMENT
L2: 1 -> 1; 150 -> 5; 250 -> 9                              COMMENT
Original Marker Name: lost Lost_USGS                        COMMENT
Campaign Name: USGS 2003                                    COMMENT
4-Character Station Name: LOST                              COMMENT
6-Character Antenna Code: DMRCHT                            COMMENT
Vertical Measurement Point: BCR                             COMMENT
Vertical Offset to Rinex Ref. Point: 0.0348                 COMMENT
Radial Measurement Point: ECF                               COMMENT
Radial Offset to Rinex Ref. Point: 0.1897                   COMMENT
Antenna Height from Field Measurement: 1.3940 m             COMMENT
Additional Antenna Identification Info.:                    COMMENT
Turborogue and Ashtech Choke Ring                           COMMENT
Original XYZ: -2620413.2944 -4456408.2171 3724112.7823      COMMENT
New XYZ position is based on association with SCEC monument COMMENT
E1F1N4H7+0011. Position of that monument is believed to be  COMMENT
valid to within 1 m horizontally; vertical accuracy         COMMENT
should be no worse than 3-times this value.                 COMMENT
                                                            COMMENT
Revised Rinex header created by UCSD GPS archive for        COMMENT
GSAC on 17-Jul-2003 (2003:198) 21:04:48 GMT                 COMMENT
For assistance contact dagnew@ucsd.edu                      COMMENT
or anderson@python.ucsd.edu                                 COMMENT
                                                            COMMENT
LOST 1986                                                   MARKER NAME
CHS US GEOLOGICAL SURVEY                                    OBSERVER / AGENCY
LP019992803 ASHTECH Z-XII3 CD00                             REC # / TYPE / VERS
CR14330 DORNE-MARGOL. TYPE T                                ANT # / TYPE
 -2620429.4445 -4456382.9214  3724097.4009                  APPROX POSITION XYZ
        1.3462        0.0000        0.0000                  ANTENNA: DELTA H/E/N
     1     1     0                                          WAVELENGTH FACT L1/2
     5    C1    L1    L2    P1    P2                        # / TYPES OF OBSERV
    30                                                      INTERVAL
  2003     4     3    17    20   30.000000                  TIME OF FIRST OBS
  2003     4     3    23    59   30.000000                  TIME OF LAST OBS
                                                            END OF HEADER
 03  4  3 17 20 30.0000000  0  6G24G30G 4G 5G 6G 9
  20744734.918       93169.12449     65746.93148  20744734.949    20744742.149
  22607455.591     -205525.13749   -145890.47946  22607456.204    22607464.042
  22280090.715      244353.44149    171141.39447  22280091.074    22280098.873
  20771110.153      -70130.64049    -51190.38448  20771109.690
  20771116.583     -147487.76549   -103632.24843
  22694286.444      243862.86149    172658.70347  22694285.723    22694294.122
 03  4  3 17 20 59.9990000  0  6G24G30G 4G 5G 6G 9
  20451640.049      128363.64049     93171.16948  20451639.784    20451646.955
  22293396.523     -280490.19049   -204304.81346  22293398.331    22293406.235
  21998804.014      341598.16949    246916.33747  21998803.715    21998811.592
  20466846.138      -93630.08849    -69501.65848  20466845.477
  20466852.345     -205550.12649     -9461.01043
  22413155.067      341928.35049    249073.22547  22413154.596    22413163.035
 03  4  3 17 21 30.0000000  0  7G24G30G 4G 5G 6G 9G10
  20520814.006    -1083544.24849   -851172.67548  20520813.806    20520820.997
  22341547.113    -1602879.59449  -1234738.06246  22341548.448    22341556.431
  22079749.026     -808453.42949   -649227.87147  22079748.728    22079756.620
  20524833.641    -1364323.63149  -1059652.48148  20524833.034
  20524839.873    -1511164.64249  -1026823.31543
  22494251.826     -807324.09749   -646448.30947  22494251.623
  22494260.069    -1436125.80949  -1109435.60343
 03  4  3 17 22  0.0000000  0  7G24G30G 4G 5G 6G 9G10
  20524972.670    -1061690.16149   -834143.55548  20524972.527    20524979.741
  22324622.742    -1691819.05949  -1304041.49146  22324623.795    22324631.870
  22095640.938     -724941.01749   -584153.39747  22095640.766    22095648.637
  20517789.625    -1401340.19449  -1088496.56848  20517789.070
  20517795.852    -1583460.42449  -1083157.60345  24406173.884
  22510291.560     -723034.43449   -580768.19847  22510291.400
  22510299.875    -1535221.59749  -1186653.03845  23719106.937
 03  4  3 17 22 30.0000000  0  7G24G30G 4G 5G 6G 9G10
  20529226.727    -1039335.12449   -816724.08448  20529226.602    20529233.821
  22307734.369    -1780568.84849  -1373197.13546  22307735.246    22307743.378
  22111590.561     -641125.21449   -518842.51647  22111590.494    22111598.326
  20510825.088    -1437939.16649  -1117015.26248  20510824.562    20510831.325
  24392417.085    -1655699.69349  -1139447.82545  24392416.112    24392428.723
  22526384.773     -638463.85049   -514869.19447  22526384.658    22526393.163
  23700250.279    -1634244.90349  -1263813.84045  23700250.428    23700264.775
 03  4  3 17 23  0.0000000  0  8G24G30G 4G 5G 6G 7G 9G10
  20533575.788    -1016480.76849   -798915.53948  20533575.691    20533582.911
  22290882.322    -1869127.22849  -1442203.62346  22290883.053    22290891.272
  22127597.282     -557009.21649   -453297.71447  22127597.313    22127605.099
  20503940.208    -1474119.24049  -1145207.53748  20503939.698    20503946.561
  24378680.753    -1727882.88449  -1195694.39145  24378679.911    24378692.398
                  -1024028.67659   -816213.87443
  22542530.830     -553615.63049   -448753.84747  22542530.741    22542539.354
  23681421.215    -1733192.53049  -1340915.68045  23681420.404    23681435.413
 03  4  3 17 23 30.0000000  0  7G24G30G 4G 5G 6G 9G10
  20538019.716     -993127.83149   -780718.48548  20538019.625    20538026.934
  22274067.266    -1957490.94249  -1511058.41246  22274067.963    22274076.266
  22143660.818     -472594.73849   -387520.32147  22143660.962    22143668.684
  20497135.478    -1509877.83849  -1173071.38648  20497134.989    20497141.988
  24364955.499    -1800009.15449  -1251896.58445  24364954.913    24364967.236
  22558729.315     -468491.93249   -382423.83346  22558729.257    22558738.031
  23662607.183    -1832060.61249  -1417955.52745  23662606.309    23662621.149
 03  4  3 17 24  0.0000000  0  7G24G30G 4G 5G 6G 9G10
  20542558.126     -969278.39249   -762134.53748  20542558.053    20542565.474
  22257289.637    -2045658.22049  -1579760.14446  22257290.299    22257298.631
  22159780.566     -387885.12849   -321512.96146  22159780.753    22159788.468
  20490411.218    -1545213.65649  -1200605.79748  20490410.764    20490417.814
  24351241.037    -1872079.15049  -1308054.91045  24351240.637    24351252.728
  22574979.573     -383096.16649   -315881.81446  22574979.517    22574988.509
  23643808.783    -1930846.32149  -1494931.18145  23643807.872    23643822.499
 03  4  3 17 24 30.0000000  0  7G24G30G 4G 5G 6G 9G10
  20547190.935     -944932.97849   -743164.12048  20547190.846    20547198.359
  22240549.997    -2133625.90349  -1648306.36746  22240550.597    22240558.951
  22175956.240     -302881.99449   -255276.89547  22175956.404    22175964.171
  20483768.018    -1580124.03749  -1227808.70848  20483767.593    20483774.595
  24337537.400    -1944092.08149  -1364168.77545  24337537.003    24337549.210
  22591281.218     -297430.26349   -249129.29846  22591281.152    22591290.348
  23625026.936    -2029545.49049  -1571839.40145  23625026.075    23625040.449
 03  4  3 17 25  0.0000000  0  8G24G30G 4G 5G 6G 7G 9G10
  20551917.316     -920095.82649   -723810.52848  20551917.244    20551924.810
  22223848.246    -2221394.50349  -1716697.42046  22223848.770    22223857.180
  22192186.686     -217590.96149   -188816.47247  22192186.879    22192194.696
  20477205.584    -1614610.09149  -1254680.96648  20477205.146    20477212.124
  24323844.136    -2016050.66949  -1420240.30245  24323843.863    24323855.984
                  -1082073.49049   -861444.27243
  22607633.179     -211500.36649   -182171.06946  22607633.141    22607642.496
  23606261.628    -2128157.59849  -1648679.75445  23606260.736    23606274.967
 03  4  3 17 25 30.0000000  0  8G24G30G 4G 5G 6G 7G 9G10
  20556737.731     -894764.47149   -704071.84448  20556737.657    20556745.238
  22207185.546    -2308957.69449  -1784928.42946  22207186.045    22207194.484
  22208472.237     -132010.57349   -122130.59046  22208472.484    22208480.298
  20470724.982    -1648666.07849  -1281218.10948  20470724.552    20470731.511
  24310162.031    -2087950.85549  -1476266.33445  24310161.775    24310173.764
                  -1011673.11049  -1010341.21643
  22624035.642     -125305.25749   -115006.18747  22624035.586    22624045.112
  23587514.277    -2226675.30849  -1725446.57745  23587513.424    23587527.509
 03  4  3 17 26  0.0000000  0  8G24G30G 4G 5G 6G 7G 9G10
  20561650.871     -868946.02349   -683953.60848  20561650.805    20561658.364
  22190561.329    -2396318.58849  -1853001.80046  22190561.804    22190570.294
  22224811.248      -46148.75349    -55225.41646  22224811.493    22224819.468
  20464325.598    -1682295.50249  -1307422.86748  20464325.172    20464332.093
  24296489.952    -2159798.01249  -1532251.03945  24296489.810    24296501.590
                   -941249.59649   -955466.19044  24544082.625
  22640487.034      -38853.14649    -47641.04747  22640487.037    22640496.560
  23568784.501    -2325100.56949  -1802141.35245  23568783.731    23568797.707
 03  4  3 17 26 30.0000000  0  8G24G30G 4G 5G 6G 7G 9G10
  20566657.585     -842636.21249   -663452.49548  20566657.509    20566665.004
  22173977.201    -2483469.02249  -1920911.17146  22173977.654    22173986.161
  22241204.451       39997.58149     11901.45146  22241204.704    22241212.811
  20458008.771    -1715491.06149  -1333289.55248  20458008.336    20458015.212
  24282828.918    -2231586.66949  -1588190.17645  24282828.798    24282840.521
  24557472.013     -870797.16249   -900568.55345  24557473.175    24557488.394
  22656987.901       47858.61149     19926.39847  22656987.893    22656997.345
  23550073.923    -2423424.51049  -1878757.17445  23550073.234    23550087.175
 03  4  3 17 27  0.0000000  0  8G24G30G 4G 5G 6G 7G 9G10
  20571756.707     -815840.45649   -642572.72148  20571756.639    20571764.093
  22157432.784    -2570410.64849  -1988657.84646  22157433.268    22157441.747
  22257650.571      126421.95049     79244.97346  22257650.809    22257659.070
  20451774.027    -1748254.78449  -1358819.74248  20451773.632    20451780.498
  24269178.252    -2303320.60449  -1644086.64345  24269178.258    24269189.804
  24570883.889     -800319.49749   -845651.20845  24570883.731    24570900.168
  22673536.857      134823.26649     87690.91246  22673536.837    22673546.195
  23531382.407    -2521647.57349  -1955294.39245  23531381.764    23531395.916
 03  4  3 17 27 30.0000000  0  8G24G30G 4G 5G 6G 7G 9G10
  20576948.171     -788559.36349   -621314.75548  20576948.095    20576955.573
  22140928.789    -2657139.95749  -2056239.06946  22140929.284    22140937.677
  22274149.205      213122.73549    146803.89046  22274149.477    22274157.839
  20445622.070    -1780583.81249  -1384011.19748  20445621.671    20445628.524
  24255538.216    -2374998.82049  -1699939.69845  24255538.170    24255549.789
  24584300.720     -729815.40349   -790713.26845  24584301.072    24584316.989
  22690133.588      222039.01549    155651.07746  22690133.617    22690142.905
  23512710.969    -2619765.25449  -2031749.49345  23512710.300    23512724.613
 03  4  3 17 28  0.0000000  0  8G24G30G 4G 5G 6G 7G 9G10
  20582231.781     -760794.04149   -599679.48648  20582231.717    20582239.209
  22124465.744    -2743654.19349  -2123652.70946  22124466.221    22124474.555
  22290699.999      300097.80849    214576.52446  22290700.309    22290708.759
  20439553.201    -1812476.18649  -1408862.41248  20439552.782    20439559.618
  24241908.805    -2446620.91549  -1755749.03345  24241908.846    24241920.557
  24597722.835     -659284.24949   -735754.24845  24597723.070    24597738.253
  22706777.674      309503.05949    223804.71746  22706777.684    22706786.929
  23494060.145    -2717773.94049  -2108119.66545  23494059.712    23494073.997
 03  4  3 17 28 30.0000000  0  8G24G30G 4G 5G 6G 7G 9G10
  20587607.083     -732547.48049   -577669.20948  20587606.996    20587614.421
  22108043.771    -2829952.52349  -2190898.11646  22108044.239    22108052.408
  22307302.156      387342.77649    282559.48146  22307302.516    22307310.992
  20433567.471    -1843931.70049  -1433373.20648  20433567.066    20433573.867
  24228289.851    -2518188.51649  -1811515.88545  24228289.874    24228301.766
  24611149.542     -588727.39449   -680775.20045  24611149.585    24611164.905
  22723468.146      397211.01549    292148.42946  22723468.120    22723477.388
  23475430.492    -2815671.96849  -2184403.63345  23475430.068    23475444.301
 03  4  3 17 29  0.0000000  0  8G24G30G 4G 5G 6G 7G 9G10
  20593073.804     -703820.08749   -555284.26448  20593073.692    20593081.142
  22091663.494    -2916031.38049  -2257972.50946  22091663.960    22091672.014
  22323955.556      474856.37149    350751.74346  22323955.887    22323964.408
  20427665.359    -1874947.40949  -1457541.29648  20427664.942    20427671.785
  24214681.364    -2589700.44349  -1867239.35545  24214681.385    24214693.520
  24624581.341     -518143.56949   -625775.13445  24624581.218    24624596.791
  22740204.660      485161.11949    360680.81446  22740204.673    22740213.975
  23456822.985    -2913454.50449  -2260597.59045  23456822.540    23456836.553
 03  4  3 17 29 30.0000000  0  7G24G30G 4G 5G 6G 9G10
  20598631.643     -674613.38049   -532525.83148  20598631.554    20598639.063
  22075325.466    -3001888.26249  -2324873.93146  22075325.960    22075333.942
  22340659.652      562636.44449    419151.64846  22340659.933    22340668.536
  20421847.410    -1905521.12149  -1481364.97548  20421847.019    20421853.862
  24201083.643    -2661156.42849  -1922919.24845  24201083.689    24201095.992
  22756986.814      573350.68549    429399.79146  22756986.796    22756996.145
  23438238.240    -3011117.87049  -2336698.68145  23438237.706    23438251.547
 03  4  3 17 30  0.0000000  0  7G24G30G 4G 5G 6G 9G10
  20604280.284     -644929.69949   -509395.72448  20604280.184    20604287.727
  22059030.079    -3087521.41849  -2391601.02946  22059030.531    22059038.437
  22357413.823      650679.38749    487756.37846  22357414.124    22357422.713
  20416113.778    -1935651.92149  -1504843.53248  20416113.369    20416120.247
  24187496.386    -2732557.30149  -1978556.19645  24187496.445    24187508.872
  22773813.743      661775.98549    498302.45346  22773813.687    22773823.050
  23419676.631    -3108659.69849  -2412705.07245  23419676.006    23419689.601
 03  4  3 17 30 30.0000000  0  7G24G30G 4G 5G 6G 9G10
  20610019.188     -614771.53049   -485895.89548  20610019.111    20610026.669
  22042777.539    -3172929.08449  -2458152.41646  22042778.032    22042785.821
  22374217.485      738982.28749    556563.68546  22374217.791    22374226.336
  20410464.529    -1965338.78649  -1527976.16448  20410464.110    20410471.049
  24173919.698    -2803903.49449  -2034150.53145  24173919.764    24173932.277
  22790684.722      750433.40549    567385.99846  22790684.697    22790694.140
  23401138.625    -3206076.96949  -2488614.42245  23401138.079    23401151.482
 03  4  3 17 31  0.0000000  0  7G24G30G 4G 5G 6G 9G10
  20615848.163     -584140.43049   -462027.54848  20615848.095    20615855.651
  22026568.414    -3258109.05249  -2524526.38446  22026568.903    22026576.508
  22391070.065      827542.20349    625571.26146  22391070.364    22391078.960
  20404900.021    -1994580.52049  -1550761.94448  20404899.612    20404906.561
  24160353.227    -2875195.41149  -2089702.59245  24160353.266    24160365.890
  22807599.241      839319.60249    636647.79846  22807599.257    22807608.729
  23382624.932    -3303366.81349  -2564424.47845  23382624.246    23382637.634
 03  4  3 17 31 30.0000000  0  7G24G30G 4G 5G 6G 9G10
  20621767.026     -553037.18749   -437791.29748  20621766.957    20621774.534
  22010403.295    -3343058.05949  -2590720.37846  22010403.745    22010411.159
  22407971.204      916357.49649    694777.82546  22407971.484    22407980.222
  20399420.790    -2023374.31349  -1573198.67748  20399420.375    20399427.338
  24146797.185    -2946432.05649  -2145211.59345  24146797.250    24146809.893
  22824557.073      928432.81849    706086.49146  22824557.067    22824566.563
  23364136.358    -3400524.82949  -2640131.79945  23364135.666    23364148.951
 03  4  3 17 32  0.0000000  0  7G24G30G 4G 5G 6G 9G10
  20627775.333     -521463.96649   -413188.83148  20627775.238    20627782.808
  21994282.479    -3427773.96249  -2656732.73046  21994282.905    21994290.169
  22424920.336     1005425.02449    764180.95246  22424920.620    22424929.506
  20394026.991    -2051718.96949  -1595285.43648  20394026.589    20394033.556
  24133251.605    -3017613.83949  -2200677.84145  24133251.658    24133264.479
  22841557.485     1017769.64049    775699.42146  22841557.458    22841566.952
  23345673.355    -3497547.81149  -2715733.91745  23345672.628    23345685.962
 03  4  3 17 32 30.0000000  0  7G24G30G 4G 5G 6G 9G10
  20633872.649     -489422.54249   -388221.53448  20633872.567    20633880.162
  21978206.415    -3512254.65249  -2722561.79547  21978206.774    21978214.031
  22441916.959     1094742.33749    833778.70846  22441917.244    22441926.319
  20388718.990    -2079612.93349  -1617020.99948  20388718.594    20388725.526
  24119716.547    -3088740.77649  -2256101.34545  24119716.567    24119729.269
  22858599.900     1107327.04649    845484.23446  22858599.821    22858609.346
  23327236.458    -3594432.55649  -2791228.31845  23327235.771    23327249.394
 03  4  3 17 33  0.0000000  0  7G24G30G 4G 5G 6G 9G10
  20640058.880     -456914.11249   -362890.33548  20640058.775    20640066.357
  21962175.574    -3596496.98949  -2788205.13347  21962175.932    21962183.263
  22458960.735     1184307.35949    903569.49246  22458961.024    22458970.237
  20383497.171    -2107054.11449  -1638403.75248  20383496.769    20383503.688
  24106192.037    -3159812.33849  -2311481.71545  24106192.030    24106204.645
  22875683.682     1197102.51649    915438.97546  22875683.633    22875693.179
  23308826.664    -3691175.17849  -2866611.97445  23308825.976    23308839.933
 03  4  3 17 33 30.0000000  0  7G24G30G 4G 5G 6G 9G10
  20646333.402     -423941.14849   -337197.16248  20646333.311    20646340.919
  21946190.391    -3680499.17849  -2853661.34347  21946190.749    21946198.235
  22476051.014     1274116.77349    973550.70346  22476051.313    22476060.626
  20378361.763    -2134041.30049  -1659432.73948  20378361.354    20378368.286
  24092677.890    -3230829.11049  -2366819.37745  24092677.806    24092690.403
  22892808.230     1287092.30049    985560.70646  22892808.149    22892817.846
  23290444.471    -3787773.01949  -2941882.82745  23290443.702    23290457.825
 03  4  3 17 34  0.0000000  0  7G24G30G 4G 5G 6G 9G10
  20652696.118     -390504.95249   -311143.02848  20652696.016    20652703.688
  21930251.329    -3764258.71649  -2918928.47047  21930251.723    21930259.391
  22493187.420     1364168.45049   1043720.69346  22493187.720    22493197.110
  20373313.060    -2160572.73749  -1680106.59848  20373312.639    20373319.540
  24079174.177    -3301790.91549  -2422114.22045  24079174.145    24079186.694
  22909973.195     1377294.06449   1055847.61946  22909973.095    22909982.898
  23272090.440    -3884222.37149  -3017037.98045  23272089.758    23272103.960
 03  4  3 17 34 30.0000000  0  7G24G30G 4G 5G 6G 9G10
  20659146.598     -356607.52849   -284729.49848  20659146.520    20659154.205
  21914358.913    -3847773.09949  -2984004.57747  21914359.315    21914367.181
  22510369.405     1454459.73149   1114077.39146  22510369.725    22510379.110
  20368351.261    -2186647.10049  -1700424.29548  20368350.854    20368357.746
  24065680.922    -3372697.81749  -2477366.29745  24065680.995    24065693.378
  22927177.770     1467704.50849   1126297.13846  22927177.665    22927187.650
  23253765.315    -3980519.86849  -3092074.80345  23253764.684    23253778.878
 03  4  3 17 35  0.0000000  0  7G24G30G 4G 5G 6G 9G10
  20665684.521     -322250.95949   -257958.19148  20665684.434    20665692.064
  21898513.570    -3931040.47949  -3048888.20847  21898513.955    21898522.020
  22527596.434     1544987.29749   1184618.20046  22527596.779    22527606.043
  20363476.735    -2212263.28949  -1720384.97448  20363476.299    20363483.207
  24052198.055    -3443550.45249  -2532576.10145  24052198.160    24052210.443
  22944421.403     1558320.31449   1196906.67346  22944421.337    22944431.475
  23235469.663    -4076662.75049  -3166991.15645  23235469.069    23235483.292
 03  4  3 17 35 30.0000000  0  7G24G30G 4G 5G 6G 9G10
  20672309.408     -287437.35149   -230830.75248  20672309.298    20672316.916
  21882715.694    -4014058.44549  -3113577.48247  21882716.081    21882724.311
  22544867.987     1635748.86949   1255341.35046  22544868.312    22544877.436
  20358689.670    -2237419.56549  -1739987.28348  20358689.223    20358696.143
  24038725.649    -3514348.78649  -2587743.59045  24038725.756    24038737.931
  22961703.600     1649138.42549   1267673.83746  22961703.573    22961713.822
  23217204.281    -4172647.33149  -3241784.16945  23217203.804    23217217.937
 03  4  3 17 36  0.0000000  0  7G24G30G 4G 5G 6G 9G10
  20679020.691     -252169.27749   -203349.18448  20679020.612    20679028.268
  21866965.579    -4096825.59649  -3178071.32547  21866965.945    21866974.303
  22562183.399     1726740.73849   1326243.95746  22562183.735    22562192.652
  20353990.290    -2262115.29249  -1759230.72248  20353989.866    20353996.750
  24025263.465    -3585093.90449  -2642869.56845  24025263.466    24025275.384
  22979023.746     1740154.88149   1338595.56646  22979023.753    22979033.912
  23198969.847    -4268471.26649  -3316452.01745  23198969.307    23198983.153
 03  4  3 17 36 30.0000000  0  7G24G30G 4G 5G 6G 9G10
  20685818.271     -216447.96149   -175514.43748  20685818.196    20685825.891
  21851263.757    -4179338.74449  -3242367.24547  21851264.165    21851272.587
  22579542.190     1817961.04349   1397324.57746  22579542.517    22579551.313
  20349378.859    -2286348.70449  -1778113.92048  20349378.438    20349385.288
  24011811.490    -3655785.13649  -2697953.58245  24011811.498    24011823.080
  22996381.122     1831367.27449   1409669.97646  22996381.116    22996391.224
  23180766.666    -4364130.81449  -3390991.76745  23180766.109    23180779.617
 03  4  3 17 37  0.0000000  0  7G24G30G 4G 5G 6G 9G10
  20692701.804     -180275.04249   -147327.79348  20692701.711    20692709.468
  21835610.705    -4261595.54449  -3306463.41447  21835611.171    21835619.585
  22596943.993     1909407.33749   1468581.27246  22596944.281    22596952.985
  20344855.730    -2310118.02149  -1796635.48548  20344855.320    20344862.143
  23998369.791    -3726422.30849  -2752995.46945  23998369.764    23998381.119
  23013775.196     1922772.77649   1480894.85446  23013775.185    23013785.288
  23162595.399    -4459622.40649  -3465400.65445  23162594.610    23162608.028
 03  4  3 17 37 30.0000000  0  7G24G30G 4G 5G 6G 9G10
  20699671.006     -143651.94749   -118790.36448  20699670.906    20699678.730
  21820007.118    -4343593.01149  -3370357.50447  21820007.603    21820015.927
  22614388.359     2001077.50349   1540012.42146  22614388.664    22614397.298
  20340421.349    -2333421.11149  -1814793.75448  20340420.939    20340427.744
  23984938.463    -3797004.88949  -2807994.81645  23984938.422    23984949.513
  23031205.495     2014368.81649   1552268.20446  23031205.468    23031215.674
  23144456.507    -4554942.25049  -3539675.71545  23144455.687    23144469.123
 03  4  3 17 38  0.0000000  0  7G24G30G 4G 5G 6G 9G10
  20706725.571     -106579.97549    -89903.16248  20706725.482    20706733.352
  21804453.394    -4425328.46449  -3434047.42847  21804453.841    21804462.083
  22631874.822     2092969.14149   1611616.13746  22631875.129    22631883.837
  20336076.035    -2356256.33149  -1832587.45748  20336075.628    20336082.406
  23971517.599    -3867532.73849  -2862951.52145  23971517.514    23971528.324
  23048671.434     2106152.73949   1623787.96146  23048671.427    23048681.790
  23126350.868    -4650086.34649  -3613813.83945  23126350.211    23126363.791
 03  4  3 17 38 30.0000000  0  7G24G30G 4G 5G 6G 9G10
  20713865.071      -69061.91949    -60668.36547  20713864.960    20713872.826
  21788949.854    -4506800.11849  -3497531.78947  21788950.264    21788958.433
  22649402.929     2185079.30149   1683390.12446  22649403.214    22649412.020
  20331819.875    -2378622.79249  -1850015.88848  20331819.444    20331826.247
  23958107.035    -3938006.34549  -2917865.95945  23958106.868    23958117.407
  23066172.536     2198120.98449   1695451.34446  23066172.511    23066183.070
  23108279.290    -4745052.17049  -3687813.05445  23108278.722    23108292.342
 03  4  3 17 39  0.0000000  0  7G24G30G 4G 5G 6G 9G10
  20721089.108      -31099.41749    -31087.25647  20721089.018    20721096.782
  21773497.067    -4588005.14749  -3560808.39547  21773497.471    21773505.571
  22666972.083     2277405.48749   1755332.43146  22666972.391    22666981.349
  20327653.145    -2400518.93349  -1867077.84348  20327652.719    20327659.604
  23944706.550    -4008425.56349  -2972738.01545  23944706.405    23944716.996
  23083708.134     2290270.74649   1767256.16546  23083708.161    23083718.803
  23090242.388    -4839836.27049  -3761670.66946  23090241.839    23090255.501
 03  4  3 17 39 30.0000000  0  7G24G30G 4G 5G 6G 9G10
  20728397.346        7305.31549     -1161.55347  20728397.269    20728404.969
  21758095.334    -4668941.61849  -3623875.73547  21758095.774    21758103.779
  22684581.831     2369944.99249   1827440.96446  22684582.120    22684591.267
  20323576.122    -2421943.64949  -1883772.44948  20323575.701    20323582.640
  23931316.294    -4078790.72949  -3027567.96145  23931316.275    23931326.957
  23101277.803     2382598.70249   1839199.83646  23101277.837    23101288.443
  23072240.670    -4934435.35849  -3835384.11646  23072240.081    23072253.802
 03  4  3 17 40  0.0000000  0  7G24G30G 4G 5G 6G 9G10
  20735789.356       46150.16549     29107.09847  20735789.272    20735796.968
  21742745.263    -4749607.15849  -3686731.96847  21742745.680    21742753.519
  22702231.785     2462695.23349   1899713.71246  22702232.032    22702241.311
  20319589.161    -2442895.31849  -1900098.45448  20319588.742    20319595.703
  23917936.302    -4149101.92449  -3082355.85845  23917936.427    23917947.259
  23118880.804     2475101.81849   1911279.98546  23118880.801    23118891.300
  23054274.746    -5028846.10249  -3908950.82846  23054274.219    23054287.893
 03  4  3 17 40 30.0000000  0  7G24G30G 4G 5G 6G 9G10
  20743264.756       85433.16249     59717.16447  20743264.666    20743272.361
  21727447.178    -4829999.42749  -3749375.25347  21727447.561    21727455.275
  22719921.296     2555653.34949   1972148.43446  22719921.535    22719930.881
  20315692.389    -2463372.78249  -1916054.93848  20315691.999    20315698.990
  23904566.778    -4219359.21249  -3137101.76845  23904566.872    23904577.727
  23136516.514     2567776.95349   1983494.17346  23136516.522    23136526.922
  23036345.356    -5123065.25449  -3982368.23846  23036344.870    23036358.376
 03  4  3 17 41  0.0000000  0  7G24G30G 4G 5G 6G 9G10
  20750823.153      125152.56649     90667.28747  20750823.064    20750830.766
  21712201.572    -4910115.87949  -3811803.62047  21712201.945    21712209.556
  22737649.869     2648817.07749   2044743.37746  22737650.112    22737659.626
  20311886.152    -2483374.58949  -1931640.78348  20311885.754    20311892.771
  23891207.590    -4289562.63149  -3191805.70845  23891207.572    23891218.602
  23154184.393     2660621.13549   2055840.08546  23154184.391    23154194.717
  23018453.214    -5217089.24149  -4055633.56946  23018452.607    23018465.909
 03  4  3 17 41 30.0000000  0  7G24G30G 4G 5G 6G 9G10
  20758464.110      165305.85549    121955.50747  20758464.024    20758471.800
  21697008.778    -4989954.63949  -3874015.60347  21697009.143    21697016.681
  22755416.945     2742183.17649   2117495.99946  22755417.262    22755426.772
  20308170.610    -2502899.84149  -1946855.28748  20308170.206    20308177.276
  23877858.456    -4359712.70449  -3246468.07945  23877858.433    23877869.518
  23171883.761     2753630.85449   2128314.98546  23171883.758    23171894.109
  23000598.697    -5310915.27549  -4128744.66646  23000598.058    23000611.132
 03  4  3 17 42  0.0000000  0  7G24G30G 4G 5G 6G 9G10
  20766187.259      205891.26949    153580.44547  20766187.198    20766195.050
  21681869.282    -5069513.16149  -3936009.21947  21681869.604    21681877.147
  22773222.136     2835749.39849   2190404.56646  22773222.446    22773232.007
  20304546.005    -2521947.13949  -1961697.35448  20304545.606    20304552.691
  23864519.475    -4429809.26549  -3301088.75445  23864519.467    23864530.645
  23189613.989     2846803.18349   2200916.59246  23189614.004    23189624.517
  22982782.488    -5404539.75049  -4201698.69646  22982781.832    22982794.738
 03  4  3 17 42 30.0000000  0  7G24G30G 4G 5G 6G 9G10
  20773992.557      246908.08849    185541.54147  20773992.484    20774000.389
  21666783.790    -5148787.69449  -3997781.54347  21666784.137    21666791.665
  22791065.209     2929514.52949   2263468.10746  22791065.493    22791075.056
  20301012.908    -2540513.80849  -1976164.90748  20301012.521    20301019.608
  23851190.876    -4499850.97949  -3355666.64845  23851190.934    23851202.132
  23207374.958     2940136.53149   2273643.66846  23207374.898    23207385.636
  22965005.396    -5497958.20349  -4274492.18846  22965004.758    22965017.604
 03  4  3 17 43  0.0000000  0  7G24G30G 4G 5G 6G 9G10
  20781879.302      288352.98149    217836.19847  20781879.214    20781887.164
  21651752.546    -5227777.28249  -4059331.84447  21651752.923    21651760.491
  22808945.373     3023474.48949   2336683.47446  22808945.655    22808955.281
  20297571.293    -2558600.05149  -1990258.10348  20297570.904    20297577.970
  23837872.493    -4569839.27849  -3410202.93745  23837872.465    23837883.935
  23225165.697     3033626.25849   2346492.58946  23225165.532    23225176.434
  22947267.865    -5591168.57649  -4347123.54346  22947267.228    22947280.136
 03  4  3 17 43 30.0000000  0  7G24G30G 4G 5G 6G 9G10
  20789847.454      330225.59349    250464.14147  20789847.378    20789855.333
  21636776.327    -5306477.74049  -4120656.85047  21636776.711    21636784.295
  22826862.391     3117628.57149   2410050.09746  22826862.731    22826872.445
  20294221.689    -2576202.64449  -2003974.43048  20294221.293    20294228.328
  23824564.512    -4639772.38349  -3464696.20745  23824564.507    23824576.112
  23242985.848     3127271.42849   2419462.64246  23242985.736    23242996.780
  22929570.801    -5684165.61849  -4419588.67146  22929570.180    22929583.184
 03  4  3 17 44  0.0000000  0  7G24G30G 4G 5G 6G 9G10
  20797896.452      372522.67149    283422.84447  20797896.366    20797904.316
  21621855.361    -5384887.95449  -4181755.68447  21621855.741    21621863.334
  22844815.730     3211972.98449   2483565.03746  22844816.062    22844825.853
  20290964.127    -2593321.71149  -2017313.97948  20290963.708    20290970.749
  23811266.839    -4709651.82349  -3519147.66045  23811266.883    23811278.446
  23260834.750     3221067.60749   2492550.35846  23260834.708    23260845.817
  22911914.755    -5776947.40949  -4491886.07146  22911914.212    22911927.245
 03  4  3 17 44 30.0000000  0  7G24G30G 4G 5G 6G 9G10
  20806025.502      415240.70049    316709.55647  20806025.418    20806033.355
  21606989.766    -5463006.93049  -4242627.58047  21606990.152    21606997.835
  22862804.581     3306503.82249   2557225.23346  22862804.929    22862814.713
  20287798.502    -2609957.37849  -2030276.86348  20287798.070    20287805.144
  23797979.049    -4779478.87449  -3573558.27445  23797979.123    23797990.673
  23278711.666     3315010.34149   2565752.26346  23278711.623    23278722.721
  22894300.314    -5869511.69649  -4564013.98146  22894299.797    22894312.788
 03  4  3 17 45  0.0000000  0  7G24G30G 4G 5G 6G 9G10
  20814234.752      458379.86049    350324.42748  20814234.655    20814242.558
  21592180.488    -5540830.08549  -4303268.96347  21592180.854    21592188.630
  22880828.767     3401220.62649   2631030.35946  22880829.141    22880838.959
  20284725.431    -2626106.21249  -2042860.39148  20284725.017    20284732.188
  23784701.678    -4849251.49949  -3627926.48645  23784701.714    23784713.381
  23296616.235     3409098.65349   2639067.60446  23296616.188    23296627.333
  22876728.397    -5961853.18049  -4635968.27046  22876727.801    22876740.827
 03  4  3 17 45 30.0000000  0  7G24G30G 4G 5G 6G 9G10
  20822523.455      501936.85249    384264.87848  20822523.337    20822531.246
  21577427.607    -5618356.41649  -4363679.06147  21577427.958    21577435.836
  22898887.646     3496119.54849   2704977.38246  22898887.969    22898897.881
  20281745.050    -2641768.29849  -2055064.64248  20281744.640    20281751.832
  23771434.425    -4918970.97249  -3682253.30245  23771434.359    23771446.122
  23314547.681     3503328.28649   2712493.06946  23314547.585    23314558.867
  22859199.177    -6053969.83249  -4707747.36746  22859198.526    22859211.618
 03  4  3 17 46  0.0000000  0  7G24G30G 4G 5G 6G 9G10
  20830891.170      545909.20149    418528.98647  20830891.074    20830898.995
  21562731.764    -5695583.42949  -4423855.91947  21562732.101    21562740.066
  22916980.727     3591198.21249   2779064.45546  22916981.024    22916991.005
  20278857.557    -2656942.50849  -2066888.72848  20278857.149    20278864.322
  23758177.352    -4988637.45149  -3736538.82645  23758177.326    23758188.894
  23332505.351     3597696.22049   2786026.29446  23332505.312    23332516.736
  22841713.227    -6145858.49849  -4779348.81346  22841712.641    22841725.765
 03  4  3 17 46 30.0000000  0  7G24G30G 4G 5G 6G 9G10
  20839337.955      590297.13749    453116.92047  20839337.877    20839345.816
  21548093.780    -5772506.59649  -4483796.02347  21548094.135    21548102.128
  22935107.911     3686456.27649   2853291.33346  22935108.165    22935118.223
  20276063.532    -2671625.38949  -2078329.96048  20276063.114    20276070.337
  23744930.753    -5058248.58349  -3790781.22145  23744930.687    23744942.196
  23350489.217     3692201.48349   2859666.52646  23350489.222    23350500.670
  22824271.811    -6237513.67949  -4850768.31246  22824271.206    22824284.248
 03  4  3 17 47  0.0000000  0  7G24G30G 4G 5G 6G 9G10
  20847862.746      635095.20949    488024.44547  20847862.655    20847870.651
  21533513.395    -5849126.93249  -4543500.15847  21533513.759    21533521.769
  22953268.058     3781887.61049   2927653.22546  22953268.273    22953278.406
  20273362.589    -2685819.24449  -2089390.13648  20273362.173    20273369.366
  23731693.924    -5127807.83749  -3844983.18645  23731693.950    23731705.384
  23368498.195     3786837.91349   2933408.95546  23368498.154    23368509.537
  22806874.884    -6328935.27349  -4922005.79446  22806874.249    22806887.245
 03  4  3 17 47 30.0000000  0  7G24G30G 4G 5G 6G 9G10
  20856465.999      680305.40849    523253.10047  20856465.929    20856473.916
  21518991.767    -5925438.21749  -4602963.48247  21518992.171    21519000.144
  22971461.476     3877493.63249   3002151.24946  22971461.667    22971471.728
  20270755.677    -2699518.95749  -2100065.26948  20270755.248    20270762.421
  23718467.660    -5197311.39949  -3899141.76445  23718467.736    23718478.971
  23386532.310     3881606.34649   3007254.25046  23386532.181    23386543.527
  22789523.722    -6420116.18049  -4993055.73746  22789523.092    22789536.010
 03  4  3 17 48  0.0000000  0  7G24G30G 4G 5G 6G 9G10
  20865146.564      725921.43649    558797.99147  20865146.479    20865154.435
  21504528.755    -6001442.11149  -4662187.28047  21504529.164    21504537.015
  22989686.857     3973267.81449   3076780.28346  22989687.050    22989697.117
  20268242.126    -2712727.71049  -2110357.83848  20268241.698    20268248.937
  23705251.286    -5266763.47349  -3953260.22045  23705251.356    23705262.530
  23404589.951     3976499.26549   3081196.52346  23404589.899    23404601.187
  22772218.227    -6511057.14149  -5063918.68846  22772217.622    22772230.456
 03  4  3 17 48 30.0000000  0  7G24G30G 4G 5G 6G 9G10
  20873904.590      771945.00249    594660.44647  20873904.477    20873912.446
  21490125.415    -6077132.48649  -4721166.76947  21490125.815    21490133.616
  23007944.413     4069211.40149   3151541.34146  23007944.641    23007954.740
  20265822.951    -2725440.45649  -2120263.90948  20265822.533    20265829.813
  23692045.670    -5336160.21249  -4007335.56045  23692045.688    23692056.828
  23422671.394     4071517.36249   3155236.35546  23422671.362    23422682.706
  22754959.772    -6601750.92549  -5134589.03946  22754959.160    22754971.866
 03  4  3 17 49  0.0000000  0  7G24G30G 4G 5G 6G 9G10
  20882739.341      818371.98549    630837.24547  20882739.280    20882747.304
  21475781.773    -6152508.71949  -4779901.47347  21475782.175    21475789.999
  23026233.343     4165320.06049   3226431.02946  23026233.620    23026243.754
  20263498.083    -2737657.87149  -2129784.01348  20263497.663    20263504.943
  23678850.153    -5405503.59249  -4061369.29745  23678850.103    23678861.317
  23440775.730     4166655.89849   3229370.03746  23440775.739    23440787.210
  22737748.486    -6692196.47249  -5205065.94346  22737747.875    22737760.449
 03  4  3 17 49 30.0000000  0  7G24G30G 4G 5G 6G 9G10
  20891650.505      865200.25449    667326.73747  20891650.451    20891658.502
  21461498.294    -6227568.46649  -4838389.55947  21461498.694    21461506.582
  23044553.254     4261591.34449   3301447.42046  23044553.517    23044563.648
  20261267.668    -2749378.97549  -2138917.37748  20261267.256    20261274.503
  23665664.821    -5474793.75449  -4115361.57545  23665664.771    23665675.926
  23458902.593     4261912.19649   3303595.46046  23458902.499    23458914.162
  22720585.100    -6782390.29449  -5275346.70446  22720584.517    22720596.949
 03  4  3 17 50  0.0000000  0  7G24G30G 4G 5G 6G 9G10
  20900637.721      912427.89149    704127.42347  20900637.630    20900645.667
  21447275.634    -6302309.17449  -4896629.05847  21447276.030    21447283.898
  23062903.682     4358022.79349   3376588.61346  23062903.963    23062914.114
  20259131.939    -2760602.50349  -2147663.02348  20259131.515    20259138.771
  23652489.576    -5544030.53149  -4169312.26645  23652489.453    23652500.655
  23477051.340     4357283.12449   3377910.21446  23477051.175    23477062.986
  22703470.405    -6872328.55749  -5345428.31846  22703469.755    22703482.073
 03  4  3 17 50 30.0000000  0  7G24G30G 4G 5G 6G 9G10
  20909700.689      960053.89849    741238.52347  20909700.605    20909708.657
  21433114.376    -6376726.89749  -4954616.87847  21433114.793    21433122.595
  23081284.539     4454613.83649   3451854.16446  23081284.749    23081294.947
  20257091.395    -2771325.77849  -2156018.86248  20257090.978    20257098.279
  23639324.758    -5613212.25749  -4223220.05046  23639324.646    23639335.899
  23495221.558     4452767.17549   3452313.10146  23495221.456    23495233.310
  22686405.148    -6962006.61649  -5415307.18946  22686404.419    22686416.707
 03  4  3 17 51  0.0000000  0  7G24G30G 4G 5G 6G 9G10
  20918838.398     1008072.66949    778655.66847  20918838.319    20918846.393
  21419014.414    -6450822.92949  -5012354.03447  21419014.805    21419022.559
  23099694.548     4551357.93149   3527238.97346  23099694.793    23099704.953
  20255145.484    -2781551.72649  -2163987.17248  20255145.075    20255152.369
  23626169.673    -5682342.66449  -4277087.84146  23626169.643    23626180.933
  23513412.221     4548357.72449   3526798.97746  23513412.063    23513423.922
  22669389.071    -7051425.13849  -5484983.82446  22669388.409    22669400.771
 03  4  3 17 51 30.0000000  0  7G24G30G 4G 5G 6G 9G10
  20928051.539     1056487.61249    816381.52247  20928051.442    20928059.567
  21404977.101    -6524589.67949  -5069834.59547  21404977.453    21404985.191
  23118134.175     4648258.04849   3602745.35946  23118134.498    23118144.720
  20253295.482    -2791273.84249  -2171562.88148  20253295.085    20253302.352
  23613025.456    -5751416.47349  -4330911.53446  23613025.403    23613036.726
  23531623.632     4644057.07949   3601369.65146  23531623.425    23531635.189
  22652424.132    -7140575.29449  -5554451.35446  22652423.454    22652435.895
 03  4  3 17 52  0.0000000  0  7G24G30G 4G 5G 6G 9G10
  20937338.622     1105291.47449    854410.42747  20937338.522    20937346.713
  21391001.770    -6598029.93949  -5127060.75247  21391002.108    21391009.993
  23136602.073     4745306.49749   3678367.33446  23136602.423    23136612.732
  20251540.549    -2800496.36949  -2178749.30148  20251540.140    20251547.377
  23599890.993    -5820439.03549  -4384695.27646  23599890.926    23599902.158
  23549854.139     4739856.79549   3676018.51146  23549853.894    23549865.531
  22635510.027    -7229458.78849  -5623711.10746  22635509.323    22635521.764
 03  4  3 17 52 30.0000000  0  7G24G30G 4G 5G 6G 9G10
  20946700.038     1154485.78049    892743.56547  20946699.941    20946708.139
  21377089.824    -6671136.94849  -5184027.22847  21377090.219    21377098.217
  23155098.586     4842505.16949   3754106.34146  23155098.938    23155109.371
  20249881.653    -2809214.05749  -2185542.34648  20249881.249    20249888.468
  23586767.125    -5889405.95949  -4438435.66646  23586767.001    23586778.136
  23568103.865     4835758.26849   3750746.65846  23568103.661    23568115.177
  22618648.028    -7318068.18649  -5692757.27246  22618647.347    22618659.815
 03  4  3 17 53  0.0000000  0  7G24G30G 4G 5G 6G 9G10
  20956134.804     1204065.46849    931377.00347  20956134.710    20956142.912
  21363241.256    -6743911.46349  -5240734.62647  21363241.685    21363249.686
  23173622.589     4939848.72449   3829958.25145  23173622.934    23173633.547
  20248318.443    -2817429.05449  -2191943.68048  20248318.011    20248325.284
  23573653.148    -5958320.32449  -4492135.09446  23573653.030    23573664.234
  23586371.756     4931755.44049   3825549.37746  23586371.554    23586382.971
  22601838.153    -7406403.56049  -5761589.90946  22601837.534    22601849.987
 03  4  3 17 53 30.0000000  0  7G24G30G 4G 5G 6G 9G10
  20965643.096     1254031.28349    970311.32147  20965642.987    20965651.185
  21349456.996    -6816348.62149  -5297179.15047  21349457.418    21349465.362
  23192174.138     5037336.95049   3905922.89645  23192174.402    23192185.294
  20246851.435    -2825138.00449  -2197950.69748  20246851.007    20246858.319
  23560549.497    -6027179.77749  -4545791.75946  23560549.441    23560560.683
  23604657.767     5027847.94349   3900426.37946  23604657.555    23604668.976
  22585081.755    -7494458.76249  -5830204.22946  22585081.154    22585093.583
 03  4  3 17 54  0.0000000  0  7G24G30G 4G 5G 6G 9G10
  20975223.924     1304378.44949   1009542.79347  20975223.815    20975231.998
  21335736.961    -6888448.09749  -5353360.53147  21335737.336    21335745.328
  23210752.335     5134965.32849   3981996.74745  23210752.580    23210763.621
  20245480.586    -2832341.89449  -2203564.16048  20245480.186    20245487.510
  23547456.061    -6095986.17549  -4599407.08246  23547455.936    23547467.218
  23622960.815     5124030.56849   3975373.61046  23622960.684    23622972.117
  22568378.964    -7582232.64249  -5898599.34446  22568378.317    22568390.623
 03  4  3 17 54 30.0000000  0  7G24G30G 4G 5G 6G 9G10
  20984877.007     1355105.46049   1049070.24347  20984876.892    20984885.099
  21322081.746    -6960206.75349  -5409276.34247  21322082.150    21322090.161
  23229356.791     5232732.18349   4058178.48145  23229357.071    23229368.295
  20244206.237    -2839039.07949  -2208782.78948  20244205.848    20244213.164
  23534372.778    -6164738.86849  -4652980.55246  23534372.633    23534384.016
  23641280.645     5220301.03149   4050389.27546  23641280.541    23641291.973
  22551730.469    -7669721.13449  -5966772.07946  22551729.872    22551742.083
 03  4  3 17 55  0.0000000  0  7G24G30G 4G 5G 6G 9G10
  20994602.409     1406212.42949   1088893.75947  20994602.309    20994610.526
  21308492.193    -7031620.23049  -5464923.18647  21308492.618    21308500.624
  23247987.601     5330637.43249   4134468.06845  23247987.972    23247999.377
  20243028.935    -2845226.54349  -2213604.23148  20243028.523    20243035.815
  23521300.012    -6233435.76649  -4706510.54146  23521299.854    23521311.330
  23659617.124     5316658.50349   4125472.74945  23659617.028    23659628.385
  22535137.237    -7756919.11349  -6034718.43746  22535136.590    22535148.810
 03  4  3 17 55 30.0000000  0  7G24G30G 4G 5G 6G 9G10
  21004399.160     1457694.17949   1129009.31747  21004399.057    21004407.330
  21294968.318    -7102688.93949  -5520301.37947  21294968.750    21294976.723
  23266643.729     5428675.60949   4210861.24145  23266644.127    23266655.592
  20241948.123    -2850906.41049  -2218030.14048  20241947.701    20241955.083
  23508237.281    -6302079.76549  -4759999.32546  23508237.127    23508248.767
  23677969.109     5413097.02849   4200619.38245  23677968.952    23677980.150
  22518599.321    -7843826.22949  -6102438.14946  22518598.688    22518610.852
 03  4  3 17 56  0.0000000  0  7G24G30G 4G 5G 6G 9G10
  21014267.003     1509549.69749   1169416.12047  21014266.896    21014275.241
  21281510.737    -7173409.16949  -5575408.02947  21281511.146    21281519.089
  23285325.080     5526845.78549   4287357.25045  23285325.434    23285336.903
  20240964.302    -2856076.46549  -2222058.80048  20240963.892    20240971.329
  23495184.932    -6370669.36149  -4813445.72746  23495184.772    23495196.545
  23696336.199     5509615.18749   4275828.04645  23696336.057    23696347.096
  22502117.669    -7930437.72749  -6169927.50846  22502117.058    22502129.183
 03  4  3 17 56 30.0000000  0  7G24G30G 4G 5G 6G 9G10
  21024205.576     1561776.95649   1210112.59747  21024205.475    21024213.888
  21268119.924    -7243778.28549  -5630241.08247  21268120.327    21268128.238
  23304031.197     5625145.86449   4363954.49445  23304031.494    23304042.956
  20240077.822    -2860735.47049  -2225689.24148  20240077.406    20240084.805
  23482142.888    -6439204.35349  -4866849.57446  23482142.761    23482154.686
  23714717.746     5606210.10549   4351096.53745  23714717.633    23714728.627
  22485693.022    -8016749.90749  -6237183.63946  22485692.399    22485704.485
 03  4  3 17 57  0.0000000  0  7G24G30G 4G 5G 6G 9G10
  21034214.295     1614372.80549   1251096.28947  21034214.216    21034222.632
  21254796.181    -7313794.94749  -5684799.50547  21254796.600    21254804.390
  23322761.315     5723572.38949   4440650.24945  23322761.608    23322773.076
  20239288.468    -2864883.69949  -2228921.66948  20239288.042    20239295.465
  23469111.223    -6507685.70249  -4920211.59446  23469111.063    23469123.024
  23733113.112     5702877.83949   4426421.76945  23733113.058    23733124.166
  22469325.736    -8102760.62649  -6304204.85546  22469325.060    22469337.150
 03  4  3 17 57 30.0000000  0  7G24G30G 4G 5G 6G 9G10
  21044293.008     1667336.01849   1292366.24047  21044292.899    21044301.302
  21241540.189    -7383455.93849  -5739080.77947  21241540.607    21241548.305
  23341515.263     5822123.57749   4517443.14645  23341515.554    23341526.992
  20238596.626    -2868519.46149  -2231754.77848  20238596.221    20238603.680
  23456089.885    -6576112.81149  -4973531.38146  23456089.757    23456101.578
  23751521.864     5799616.10149   4501801.94245  23751521.784    23751533.094
  22453016.539    -8188465.75049  -6370987.95246  22453015.871    22453027.895
 03  4  3 17 58  0.0000000  0  7G24G30G 4G 5G 6G 9G10
  21054441.024     1720663.32249   1333919.90147  21054440.894    21054449.267
  21228352.111    -7452759.97749  -5793083.90847  21228352.497    21228360.223
  23360292.381     5920796.57849   4594330.95545  23360292.645    23360304.008
  20238002.278    -2871643.05949  -2234188.79748  20238001.873    20238009.312
  23443078.875    -6644486.46349  -5026809.50246  23443078.734    23443090.405
  23769943.467     5896420.99849   4577234.01645  23769943.310    23769954.905
  22436765.963    -8273862.82449  -6437531.01746  22436765.320    22436777.253
 03  4  3 17 58 30.0000000  0  7G24G30G 4G 5G 6G 9G10
  21064657.968     1774352.89749   1375755.85447  21064657.831    21064666.144
  21215232.423    -7521704.10649  -5846806.59147  21215232.800    21215240.599
  23379092.271     6019589.18549   4671311.97345  23379092.580    23379103.742
  20237505.643    -2874253.22349  -2236222.73948  20237505.237    20237512.646
  23430078.127    -6712806.07949  -5080045.52346  23430077.995    23430089.586
  23788377.285     5993290.29549   4652716.28145  23788377.098    23788388.961
  22420574.590    -8358948.27749  -6503831.26446  22420573.960    22420585.873
 03  4  3 17 59  0.0000000  0  7G24G30G 4G 5G 6G 9G10
  21074943.693     1828404.37949   1417873.82147  21074943.570    21074951.870
  21202182.033    -7590284.14549  -5900245.56547  21202182.434    21202190.206
  23397914.760     6118500.94649   4748385.83245  23397915.080    23397926.169
  20237107.225    -2876347.36549  -2237854.58548  20237106.802    20237114.135
  23417087.910    -6781070.05349  -5133238.18546  23417087.757    23417099.357
  23806822.779     6090222.29049   4728247.42145  23806822.730    23806834.960
  22404443.531    -8443717.02949  -6569884.73746  22404442.877    22404454.787
 03  4  3 17 59 30.0000000  0  7G24G30G 4G 5G 6G 9G10
  21085297.472     1882813.69449   1460270.61347  21085297.352    21085305.698
  21189201.151    -7658499.60049  -5953400.45647  21189201.551    21189209.229
  23416759.014     6217527.67049   4825549.27445  23416759.384    23416770.420
  20236806.808    -2877926.55849  -2239085.17148  20236806.380    20236813.698
  23404107.909    -6849279.92849  -5186388.69746  23404107.774    23404119.379
  23825279.305     6187212.56249   4803823.95745  23825279.283    23825292.131
  22388372.981    -8528167.82149  -6635690.45046  22388372.313    22388384.230
 03  4  3 18  0  0.0000000  0  7G24G30G 4G 5G 6G 9G10
  21095719.069     1937579.62649   1502945.28947  21095718.948    21095727.364
  21176290.300    -7726347.29349  -6006268.77647  21176290.669    21176298.197
  23435625.061     6316667.97349   4902801.19945  23435625.354    23435636.466
  20236604.600    -2878989.33349  -2239913.34748  20236604.170    20236611.460
  23391138.365    -6917435.04949  -5239496.53446  23391138.312    23391149.810
  23843746.877     6284258.79649   4879444.08045  23843746.697    23843759.880
  22372363.658    -8612296.61249  -6701245.26146  22372363.016    22372374.995
 03  4  3 18  0 30.0000000  0  7G24G30G 4G 5G 6G 9G10
  21106207.851     1992698.55849   1545895.03247  21106207.736    21106216.220
  21163449.603    -7793825.94049  -6058849.53247  21163449.959    21163457.398
  23454511.996     6415918.32449   4980138.89345  23454512.239    23454523.402
  20236500.637    -2879535.79049  -2240339.20348  20236500.183    20236507.512
  23378179.165    -6985536.22749  -5292562.33446  23378179.113    23378190.480
  23862224.453     6381357.28349   4955104.91445  23862224.205    23862237.321
  22356416.084    -8696101.22949  -6766547.47746  22356415.416    22356427.399
 03  4  3 18  1  0.0000000  0  7G24G30G 4G 5G 6G 9G10
  21116763.493     2048168.85949   1589118.56947  21116763.399    21116771.892
  21150679.648    -7860932.34749  -6111140.21947  21150679.999    21150687.451
  23473419.503     6515277.33849   5057561.25245  23473419.700    23473431.018
  20236495.140    -2879564.47349  -2240361.60048  20236494.726    20236502.105
  23365230.470    -7053582.66449  -5345585.48246  23365230.387    23365241.574
  23880711.443     6478505.80049   5030804.73045  23880711.347    23880724.316
  22340531.037    -8779577.49649  -6831593.82646  22340530.333    22340542.272
 03  4  3 18  1 30.0000000  0  7G24G30G 4G 5G 6G 9G10
  21127385.727     2103988.58449   1632614.39047  21127385.625    21127394.114
  21137980.843    -7927664.37249  -6163139.17947  21137981.210    21137988.759
  23492347.133     6614742.71249   5135066.49645  23492347.437    23492358.720
  20236588.348    -2879074.88349  -2239980.14848  20236587.941    20236595.288
  23352292.072    -7121574.39749  -5398566.02246  23352292.014    23352303.080
  23899207.446     6575701.28549   5106541.15045  23899207.452    23899220.176
  22324709.080    -8862722.26249  -6896381.87646  22324708.376    22324720.239
 03  4  3 18  2  0.0000000  0  7G24G30G 4G 5G 6G 9G10
  21138074.059     2160155.42449   1676380.68547  21138073.955    21138082.385
  21125353.842    -7994019.16249  -6214844.19347  21125354.242    21125361.838
  23511294.708     6714312.44549   5212653.05745  23511295.049    23511306.391
  20236780.448    -2878065.87549  -2239193.95648  20236780.029    20236787.312
  23339364.150    -7189510.97449  -5451503.55846  23339364.155    23339375.167
  23917711.937     6672941.23249   5182312.22145  23917711.822    23917724.662
  22308951.008    -8945531.77349  -6960908.68446  22308950.275    22308962.075
 03  4  3 18  2 30.0000000  0  7G24G30G 4G 5G 6G 9G10
  21148828.107     2216667.39149   1720415.90747  21148827.961    21148836.321
  21112799.222    -8059994.20549  -6266253.30647  21112799.623    21112807.179
  23530261.741     6813984.55749   5290319.38645  23530262.078    23530273.573
  20237071.499    -2876536.75849  -2238002.48148  20237071.067    20237078.346
  23326446.741    -7257392.06749  -5504397.86246  23326446.787    23326457.707
  23936224.288     6770222.73249   5258115.65045  23936224.186    23936236.980
  22293257.255    -9028002.84749  -7025171.77946  22293256.530    22293268.309
 03  4  3 18  3  0.0000000  0  7G24G30G 4G 5G 6G 9G10
  21159647.325     2273522.27649   1764718.33347  21159647.181    21159655.511
  21100317.191    -8125587.64349  -6317365.06147  21100317.574    21100325.145
  23549247.859     6913756.18149   5368063.23745  23549248.174    23549259.812
  20237461.608    -2874487.13049  -2236405.42048  20237461.187    20237468.472
  23313539.927    -7325218.11049  -5557249.28246  23313539.932    23313550.783
  23954743.855     6867542.76649   5333949.11445  23954743.646    23954756.610
  22277628.418    -9110132.67949  -7089168.97646  22277627.719    22277639.467
 03  4  3 18  3 30.0000000  0  7G24G30G 4G 5G 6G 9G10
  21170531.378     2330718.08949   1809286.42047  21170531.236    21170539.608
  21087908.263    -8190796.55349  -6368177.18047  21087908.675    21087916.260
  23568252.597     7013625.72649   5445883.42145  23568252.847    23568264.624
  20237950.921    -2871916.06449  -2234402.03748  20237950.488    20237957.804
  23300643.676    -7392988.44349  -5610057.26746  23300643.680    23300654.537
  23973269.915     6964898.81949   5409810.64745  23973269.761    23973283.168
  22262065.309    -9191917.43849  -7152897.28046  22262064.544    22262076.316
 03  4  3 18  4  0.0000000  0  7G24G30G 4G 5G 6G 9G10
  21181479.706     2388251.90249   1854117.87447  21181479.587    21181488.017
  21075572.883    -8255619.11749  -6418688.25747  21075573.294    21075580.950
  23587275.348     7113590.29349   5523777.62645  23587275.528    23587287.572
  20238539.394    -2868823.54849  -2231992.33248  20238538.971    20238546.344
  23287757.894    -7460703.55149  -5662822.23046  23287757.861    23287768.697
  23991802.147     7062287.29849   5485697.44245  23991802.161    23991815.875
  22246568.210    -9273354.71149  -7216354.81646  22246567.442    22246579.242
 03  4  3 18  4 30.0000000  0  7G24G30G 4G 5G 6G 9G10
  21192491.970     2446121.66749   1899211.10447  21192491.853    21192500.341
  21063311.501    -8320053.02149  -6468896.47947  21063311.903    21063319.602
  23606315.765     7213647.84649   5601744.29045  23606315.967    23606328.245
  20239227.311    -2865208.90649  -2229175.78448  20239226.895    20239234.266
  23274882.630    -7528363.30949  -5715544.05746  23274882.525    23274893.461
  24010340.456     7159705.52649   5561607.41645  24010340.407    24010354.223
  22231137.793    -9354441.15249  -7279538.98746  22231137.064    22231148.907
 03  4  3 18  5  0.0000000  0  7G24G30G 4G 5G 6G 9G10
  21203567.824     2504325.55849   1944564.70247  21203567.715    21203576.220
  21051124.662    -8384095.50349  -6518799.68847  21051125.039    21051132.731
  23625373.643     7313796.48649   5679781.92545  23625373.774    23625386.212
  20240014.698    -2861071.06249  -2225951.53548  20240014.280    20240021.699
  23262017.966    -7595967.11649  -5768222.28946  23262017.870    23262028.810
  24028884.097     7257150.99249   5637538.61645  24028883.899    24028898.027
  22215774.802    -9435173.13849  -7342446.93246  22215774.100    22215786.045
 03  4  3 18  5 30.0000000  0  7G24G30G 4G 5G 6G 9G10
  21214706.700     2562860.45549   1990176.22347  21214706.574    21214715.071
  21039012.695    -8447744.62749  -6568396.39447  21039013.054    21039020.697
  23644448.256     7414033.45749   5757888.39945  23644448.418    23644461.035
  20240901.728    -2856410.01549  -2222319.60448  20240901.305    20240908.735
  23249163.858    -7663515.24249  -5820857.13946  23249163.789    23249174.797
  24047432.235     7354620.39549   5713488.46745  24047431.968    24047446.204
  22200479.891    -9515547.83049  -7405076.47646  22200479.198    22200491.156
 03  4  3 18  6  0.0000000  0  7G24G30G 4G 5G 6G 9G10
  21225908.184     2621724.40149   2036044.14447  21225908.050    21225916.579
  21026976.022    -8510997.98649  -6617684.71347  21026976.397    21026983.948
  23663539.359     7514356.90049   5836062.23445  23663539.552    23663552.187
  20241888.388    -2851225.33249  -2218279.64948  20241887.952    20241895.387
  23236320.517    -7731007.53149  -5873448.48446  23236320.440    23236331.476
  24065984.504     7452111.20049   5789454.98745  24065984.155    24065998.401
  22185253.666    -9595561.99249  -7467425.08346  22185252.929    22185264.871
 03  4  3 18  6 30.0000000  0  7G24G30G 4G 5G 6G 9G10
  21237171.604     2680914.15449   2082165.93047  21237171.492    21237180.124
  21015014.838    -8573854.41249  -6666663.72247  21015015.158    21015022.747
  23682646.295     7614763.30149   5914300.71145  23682646.415    23682659.253
  20242974.549    -2845517.61449  -2213832.13648  20242974.101    20242981.593
  23223487.618    -7798445.00549  -5925997.09946  23223487.515    23223498.597
  24084540.009     7549619.22749   5865434.92645  24084539.750    24084554.055
  22170096.321    -9675213.86649  -7529491.38346  22170095.543    22170107.536
 03  4  3 18  7  0.0000000  0  7G24G30G 4G 5G 6G 9G10
  21248497.031     2740429.89349   2128541.72947  21248496.922    21248505.698
  21003130.019    -8636309.18949  -6715329.77147  21003130.375    21003137.998
  23701768.965     7715253.00649   5992604.11245  23701769.027    23701782.031
  20244160.739    -2839283.85449  -2208974.72248  20244160.329    20244167.879
  23210665.547    -7865825.12949  -5978501.02546  23210665.421    23210676.589
  24103098.605     7647143.95349   5941427.86445  24103098.292    24103112.933
  22155008.905    -9754497.51549  -7591270.75646  22155008.197    22155020.278
 03  4  3 18  7 30.0000000  0  7G24G30G 4G 5G 6G 9G10
  21259883.836     2800267.92049   2175168.66347  21259883.759    21259892.609
  20991321.866    -8698361.05649  -6763681.86447  20991322.240    20991329.862
  23720906.700     7815822.70649   6070969.84245  23720906.748    23720920.173
  20245447.041    -2832524.60049  -2203707.82948  20245446.629    20245454.208
  23197854.105    -7933148.95049  -6030961.07746  23197854.030    23197865.288
  24121659.488     7744681.21249   6017430.59245  24121659.283    24121673.924
  22139992.053    -9833410.88349  -7652761.59446  22139991.363    22140003.498
 03  4  3 18  8  0.0000000  0  7G24G30G 4G 5G 6G 9G10
  21271331.705     2860426.61549   2222045.46647  21271331.633    21271340.498
  20979590.875    -8760007.55849  -6811718.09047  20979591.241    20979598.889
  23740059.273     7916470.53449   6149396.45745  23740059.598    23740073.212
  20246833.531    -2825239.08249  -2198030.86248  20246833.109    20246840.685
  23185053.446    -8000416.10749  -6083376.98446  23185053.402    23185064.731
  24140222.217     7842228.59249   6093441.16145  24140222.171    24140236.924
  22125046.393    -9911950.48549  -7713961.18546  22125045.680    22125057.848
 03  4  3 18  8 30.0000000  0  7G24G30G 4G 5G 6G 9G10
  21282840.123     2920903.13449   2269169.92047  21282840.036    21282848.896
  20967937.437    -8821246.48649  -6859436.72647  20967937.819    20967945.488
  23759226.383     8017194.14149   6227882.12145  23759226.819    23759240.691
  20248320.103    -2817427.18049  -2191943.72048  20248319.670    20248327.296
  23172263.659    -8067626.43549  -6135748.63146  23172263.606    23172274.939
  24158786.417     7939783.24149   6169457.43445  24158786.369    24158801.281
  22110172.337    -9990113.65449  -7774867.45646  22110171.657    22110183.765
 03  4  3 18  9  0.0000000  0  7G24G30G 4G 5G 6G 9G10
  21294408.583     2981695.29649   2316540.33647  21294408.488    21294417.313
  20956361.982    -8882075.70649  -6906836.10147  20956362.342    20956370.067
  23778407.696     8117991.33049   6306425.10545  23778408.021    23778422.112
  20249906.839    -2809088.71449  -2185446.26348  20249906.431    20249914.102
  23159484.645    -8134780.06349  -6188076.07546  23159484.653    23159495.830
  24177351.544     8037342.18449   6245477.02945  24177351.667    24177366.517
  22095370.590   -10067897.29549  -7835477.98246  22095369.924    22095381.920
 03  4  3 18  9 30.0000000  0  7G24G30G 4G 5G 6G 9G10
  21306036.495     3042799.79949   2364154.13447  21306036.398    21306045.197
  20944864.667    -8942494.29949  -6953915.50047  20944865.062    20944872.847
  23797602.312     8218858.67349   6385022.79545  23797602.551    23797616.961
  20251593.688    -2800224.51049  -2178539.14048  20251593.274    20251600.964
  23146716.218    -8201878.20149  -6240360.27646  23146716.222    23146727.378
  24195916.864     8134901.28449   6321496.76245  24195916.994    24195931.935
  22080641.428   -10145299.60049  -7895791.36346  22080640.770    22080652.644
 03  4  3 18 10  0.0000000  0  7G24G30G 4G 5G 6G 9G10
  21317723.694     3104215.78549   2412010.65147  21317723.607    21317732.344
  20933446.421    -9002498.00349  -7000671.61247  20933446.806    20933454.547
  23816810.220     8319795.74749   6463674.77045  23816810.386    23816824.951
  20253381.024    -2790832.39749  -2171220.66448  20253380.586    20253388.266
  23133958.720    -8268918.88649  -6292599.70346  23133958.694    23133969.942
  24214482.160     8232459.43549   6397515.74345  24214482.312    24214497.039
  22065985.712   -10222315.75249  -7955803.85946  22065985.076    22065996.850
 03  4  3 18 10 30.0000000  0  7G24G30G 4G 5G 6G 9G10
  21329469.639     3165940.48249   2460107.71947  21329469.535    21329478.251
  20922107.404    -9062085.28549  -7047103.24547  20922107.786    20922115.464
  23836030.830     8420799.82249   6542378.96945  23836030.958    23836045.742
  20255268.796    -2780912.49949  -2163490.92748  20255268.359    20255276.041
  23121212.095    -8335902.49749  -6344794.66646  23121212.068    23121223.409
  24233046.786     8330013.19049   6473531.29645  24233046.720    24233061.181
  22051403.997   -10298943.20349  -8015513.45246  22051403.321    22051415.043
 03  4  3 18 11  0.0000000  0  7G24G30G 4G 5G 6G 9G10
  21341273.737     3227970.81149   2508442.94447  21341273.623    21341282.406
  20910847.882    -9121254.76549  -7093209.31047  20910848.241    20910855.854
  23855263.997     8521867.92949   6621133.06745  23855263.983    23855278.450
  20257256.816    -2770465.47449  -2155350.44148  20257256.373    20257264.086
  23108476.199    -8402829.67449  -6396945.64846  23108476.235    23108487.575
  24251609.765     8427558.97349   6549540.64545  24251609.649    24251623.745
  22036896.648   -10375179.52349  -8074918.27746  22036895.975    22036907.677
 03  4  3 18 11 30.0000000  0  7G24G30G 4G 5G 6G 9G10
  21353135.775     3290305.53549   2557015.34847  21353135.641    21353144.503
  20899668.490    -9180003.09149  -7138987.21247  20899668.810    20899676.409
  23874509.109     8622999.12849   6699936.33045  23874509.330    23874523.459
  20259345.346    -2759490.18649  -2146798.32448  20259344.937    20259352.660
  23095751.342    -8469699.19649  -6449051.70146  23095751.424    23095762.685
  24270170.769     8525094.96449   6625542.35045  24270170.639    24270184.301
  22022464.397   -10451020.92249  -8134015.37646  22022463.686    22022475.471
 03  4  3 18 12  0.0000000  0  7G24G30G 4G 5G 6G 9G10
  21365055.185     3352942.11149   2605822.97347  21365055.080    21365064.017
  20888569.528    -9238328.18149  -7184435.32347  20888569.874    20888577.500
  23893765.840     8724190.97749   6778786.85845  23893766.039    23893779.859
  20261534.514    -2747986.26449  -2137834.28648  20261534.112    20261541.820
  23083037.537    -8536511.04549  -6501112.82746  23083037.556    23083048.776
  24288729.356     8622618.17349   6701534.10845  24288729.371    24288742.503
  22008107.811   -10526464.24049  -8192802.29246  22008107.154    22008118.962
 03  4  3 18 12 30.0000000  0  7G24G30G 4G 5G 6G 9G10
  21377031.746     3415878.93149   2654864.55347  21377031.649    21377040.649
  20877551.669    -9296227.25549  -7229551.46747  20877552.012    20877559.735
  23913033.687     8825442.30049   6857683.72645  23913033.850    23913047.594
  20263824.497    -2735952.78849  -2128457.60248  20263824.086    20263831.792
  23070334.803    -8603264.56249  -6553128.48846  23070334.799    23070345.996
  24307285.186     8720126.50749   6777514.25945  24307284.966    24307297.776
  21993827.772   -10601505.99949  -8251276.31246  21993827.111    21993838.880
 03  4  3 18 13  0.0000000  0  7G24G30G 4G 5G 6G 9G10
  21389064.968     3479113.32849   2704138.01647  21389064.848    21389073.874
  20866615.145    -9353698.46149  -7274334.20947  20866615.533    20866623.326
  23932312.410     8926750.55249   6936624.95145  23932312.583    23932326.116
  20266215.161    -2723389.95049  -2118668.42948  20266214.761    20266222.508
  23057643.134    -8669959.97749  -6605098.90746  23057643.076    23057654.262
  24325837.413     8817616.80749   6853480.35245  24325837.293    24325849.759
  21979624.744   -10676143.39049  -8309435.23646  21979624.063    21979635.794
 03  4  3 18 13 30.0000000  0  7G24G30G 4G 5G 6G 9G10
  21401154.262     3542642.85649   2753641.45747  21401154.169    21401163.226
  20855760.510    -9410739.52949  -7318781.77247  20855760.917    20855768.768
  23951601.496     9028113.48349   7015608.78145  23951601.691    23951614.891
  20268706.558    -2710297.75449  -2108466.76948  20268706.157    20268713.926
  23044962.526    -8736597.13149  -6657023.92546  23044962.445    23044973.561
  24344385.447     8915086.12849   6929430.09645  24344385.103    24344398.027
  21965499.281   -10750373.62349  -8367276.89947  21965498.532    21965510.245
 03  4  3 18 14  0.0000000  0  7G24G30G 4G 5G 6G 9G10
  21413299.423     3606465.93049   2803373.64147  21413299.351    21413308.431
  20844988.368    -9467347.52649  -7362891.88147  20844988.745    20844996.614
  23970900.602     9129529.78449   7094634.20045  23970900.809    23970913.617
  20271298.909    -2696675.05049  -2097851.72948  20271298.492    20271306.299
  23032293.201    -8803175.14849  -6708902.85746  23032293.145    23032304.054
  24362928.880     9012532.39749   7005361.87845  24362928.605    24362941.817
  21951451.968   -10824192.81149  -8424798.28047  21951451.246    21951462.820
 03  4  3 18 14 30.0000000  0  7G24G30G 4G 5G 6G 9G10
  21425499.946     3670579.93249   2853332.52047  21425499.865    21425508.979
  20834298.965    -9523520.68749  -7406663.15847  20834299.325    20834307.225
  23990209.408     9230997.11049   7173699.38244  23990209.583    23990222.536
  20273992.184    -2682522.13349  -2086823.53848  20273991.777    20273999.576
  23019635.135    -8869694.21449  -6760735.85546  23019635.028    23019645.826
  24381467.438     9109952.56549   7081273.32945  24381467.131    24381480.614
  21937483.378   -10897598.21749  -8481997.22547  21937482.637    21937494.058
 03  4  3 18 15  0.0000000  0  7G24G30G 4G 5G 6G 9G10
  21437755.519     3734983.16349   2903516.77647  21437755.470    21437764.571
  20823692.718    -9579256.64749  -7450093.76247  20823693.077    20823701.031
  24009527.431     9332513.63749   7252802.90444  24009527.570    24009540.699
  20276786.451    -2667838.48149  -2075381.79448  20276786.043    20276793.802
  23006988.312    -8936153.80849  -6812522.49746  23006988.183    23006998.932
  24400000.687     9207344.07649   7157162.44245  24400000.451    24400014.166
  21923594.109   -10970586.56749  -8538871.20547  21923593.392    21923604.650
 03  4  3 18 15 30.0000000  0  7G24G30G 4G 5G 6G 9G10
  21450065.716     3799673.17549   2953924.49747  21450065.648    21450074.746
  20813170.139    -9634552.95449  -7493181.77047  20813170.512    20813178.517
  24028854.512     9434077.41649   7331943.24144  24028854.778    24028867.828
  20279681.756    -2652623.99349  -2063526.40548  20279681.339    20279689.072
  22994352.771    -9002553.64149  -6864262.58146  22994352.691    22994363.510
  24418527.954     9304704.38449   7233027.24545  24418527.684    24418541.702
  21909784.770   -11043154.90149  -8595417.87947  21909784.052    21909795.224
 03  4  3 18 16  0.0000000  0  7G24G30G 4G 5G 6G 9G10
  21462429.905     3864647.01049   3004553.37447  21462429.819    21462438.905
  20802731.500    -9689408.14749  -7535926.05947  20802731.888    20802739.934
  24048190.178     9535685.96848   7411118.46644  24048190.314    24048203.581
  20282677.944    -2636879.24549  -2051257.82548  20282677.524    20282685.254
  22981728.479    -9068894.24549  -6915956.51446  22981728.411    22981739.300
  24437048.751     9402030.18549   7308865.15145  24437048.443    24437062.801
  21896055.807   -11115301.01549  -8651635.56547  21896055.067    21896066.147
 03  4  3 18 16 30.0000000  0  7G24G30G 4G 5G 6G 9G10
  21474847.712     3929902.60449   3055401.81147  21474847.622    21474856.690
  20792377.271    -9743820.04049  -7578324.91947  20792377.686    20792385.666
  24067533.807     9637337.12549   7490326.90544  24067533.953    24067547.365
  20285775.013    -2620604.03749  -2038575.90548  20285774.610    20285782.360
  22969115.578    -9135175.24749  -6967604.02046  22969115.503    22969126.406
  24455562.312     9499318.60149   7384673.93145  24455561.937    24455576.642
  21882407.807   -11187021.74349  -8707521.77247  21882407.065    21882418.064
 03  4  3 18 17  0.0000000  0  7G24G30G 4G 5G 6G 9G10
  21487318.802     3995438.35949   3106468.55347  21487318.689    21487327.792
  20782108.010    -9797785.70349  -7620376.06947  20782108.386    20782116.344
  24086885.426     9739029.88448   7569567.74144  24086885.675    24086899.053
  20288973.303    -2603797.44649  -2025479.92348  20288972.896    20288980.632
  22956514.310    -9201395.58849  -7019204.26246  22956514.266    22956525.066
  24474068.133     9596567.43549   7460451.86845  24474067.865    24474083.040
  21868841.404   -11258313.55449  -8763073.77047  21868840.677    21868851.648
 03  4  3 18 17 30.0000000  0  7G24G30G 4G 5G 6G 9G10
  21499842.563     4061251.09149   3157751.11947  21499842.489    21499851.623
  20771923.758    -9851304.11749  -7662078.70947  20771924.136    20771932.156
  24106244.261     9840760.89648   7648838.36744  24106244.435    24106258.714
  20292272.491    -2586460.54749  -2011970.71648  20292272.072    20292279.826
  22943924.443    -9267556.33849  -7070758.05846  22943924.342    22943935.046
  24492565.946     9693772.95349   7536196.04345  24492565.599    24492581.235
  21855356.949   -11329174.47849  -8818290.01747  21855356.262    21855367.278
 03  4  3 18 18  0.0000000  0  7G24G30G 4G 5G 6G 9G10
  21512418.817     4127339.24549   3209248.29547  21512418.742    21512427.897
  20761825.187    -9904372.16549  -7703430.42647  20761825.607    20761833.652
  24125610.130     9942529.29148   7728138.12044  24125610.237    24125624.711
  20295672.713    -2568592.45649  -1998047.60348  20295672.288    20295680.068
  22931345.950    -9333656.37749  -7122264.55046  22931345.840    22931356.630
  24511055.330     9790933.35349   7611905.01045  24511054.879    24511070.641
  21841955.293   -11399600.83549  -8873167.64847  21841954.609    21841965.584
 03  4  3 18 18 30.0000000  0  7G24G30G 4G 5G 6G 9G10
  21525046.876     4193699.89049   3260957.80347  21525046.780    21525056.025
  20751812.762    -9956988.22449  -7744429.93447  20751813.149    20751821.146
  24144982.620    10044332.17348   7807464.79344  24144982.945    24144997.138
  20299173.898    -2550193.77549  -1983711.02848  20299173.465    20299181.285
  22918778.947    -9399695.93049  -7173723.89646  22918778.869    22918789.673
  24529535.630     9888045.61749   7687576.49145  24529535.224    24529550.917
  21828636.840   -11469590.10649  -8927704.67247  21828636.070    21828647.070
 03  4  3 18 19  0.0000000  0  7G24G30G 4G 5G 6G 9G10
  21537726.442     4260331.11749   3312878.15747  21537726.342    21537735.617
  20741886.756   -10009149.96949  -7785075.42747  20741887.130    20741895.096
  24164361.552    10146168.46048   7886817.48444  24164361.589    24164376.256
  20302776.106    -2531264.12549  -1968960.70648  20302775.691    20302783.509
  22906223.587    -9465674.42849  -7225135.65746  22906223.462    22906234.374
  24548006.383     9985107.22049   7763208.50345  24548005.988    24548021.576
  21815401.953   -11539139.25349  -8981898.74447  21815401.172    21815412.267
 03  4  3 18 19 30.0000000  0  7G24G30G 4G 5G 6G 9G10
  21550456.964     4327230.10249   3365007.15047  21550456.859    21550466.089
  20732047.503   -10060855.66649  -7825365.55347  20732047.872    20732055.773
  24183746.638    10248035.61248   7966194.20044  24183747.306    24183760.465
  20306479.382    -2511803.81549  -1953796.88748  20306478.957    20306486.770
  22893679.841    -9531591.94849  -7276499.91046  22893679.705    22893690.611
  24566466.922    10082115.03349   7838798.62145  24566466.578    24566481.988
  21802251.274   -11608245.54449  -9035747.73447  21802250.536    21802261.650
 03  4  3 18 20  0.0000000  0  7G24G30G 4G 5G 6G 9G10
  21563238.045     4394394.32149   3417342.81747  21563237.901    21563247.079
  20722295.401   -10112103.48649  -7865298.90047  20722295.773    20722303.579
  24203137.627    10349931.20348   8045593.13944                  24203138.278
  20310283.452    -2491813.22649  -1938219.86048  20310283.044    20310290.954
  22881147.635    -9597448.52949  -7327816.67346  22881147.531    22881158.481
  24584916.510    10179066.03749   7914344.48245  24584916.147    24584931.606
  21789185.471   -11676906.51549  -9089249.71447  21789184.751    21789195.761
 03  4  3 18 20 30.0000000  0  7G24G30G 4G 5G 6G 9G10
  21576069.460     4461823.19349   3469884.70847  21576069.318    21576078.496
  20712631.034   -10162890.09649  -7904872.85847  20712631.414    20712639.130
  24222533.093    10451854.78558   8125013.82144                  24222532.999
  20314188.686    -2471291.29149  -1922228.79748  20314188.280    20314196.180
  22868627.337    -9663242.72549  -7379084.81546  22868627.289    22868638.280
  24603354.721    10275958.70649   7989844.86645  24603354.482    24603369.957
  21776205.158   -11745118.12949  -9142401.53847  21776204.438    21776215.404
 03  4  3 18 21  0.0000000  0  7G24G30G 4G 5G 6G 9G10
  21588950.560     4529513.49349   3522630.30647  21588950.421    21588959.658
  20703054.731   -10213213.95249  -7944086.23347  20703055.123    20703062.762
  24241933.423    10553803.86458   8204454.43744                  24241934.097
  20318194.949    -2450238.44449  -1905824.03748  20318194.517    20318202.397
  22856118.990    -9728974.78849  -7430304.54646  22856118.879    22856129.848
  24621781.130    10372790.25249   8065297.62545  24621781.025    24621796.867
  21763310.811   -11812877.89449  -9195201.28247  21763310.094    21763321.139
 03  4  3 18 21 30.0000000  0  7G24G30G 4G 5G 6G 9G10
  21601881.155     4597464.06749   3575578.71147  21601881.019    21601890.356
  20693567.034   -10263072.16649  -7982936.76847  20693567.401    20693575.016
  24261338.260    10655777.43248   8283914.07144                  24261338.957
  20322302.335    -2428653.97549  -1889005.02548  20322301.923    20322309.786
  22843622.586    -9794643.71749  -7481475.07546  22843622.480    22843633.402
  24640195.783    10469558.56949   8140701.10645  24640195.527    24640211.670
  21750503.088   -11880182.23049  -9247646.12747  21750502.381    21750513.572
 03  4  3 18 22  0.0000000  0  7G24G30G 4G 5G 6G 9G10
  21614860.540     4665671.22749   3628727.05447  21614860.414    21614869.875
  20684168.115   -10312463.85849  -8021423.78447  20684168.458    20684176.108
  24280747.788    10757772.10648   8363390.19144                  24280748.488
  20326510.681    -2406539.37149  -1871772.91748  20326510.260    20326518.119
  22831138.008    -9860250.50349  -7532597.18346  22831137.862    22831148.756
  24658597.650    10566259.74649   8216052.28545  24658597.538    24658613.792
  21737782.327   -11947029.58049  -9299734.88647  21737781.617    21737792.923
 03  4  3 18 22 30.0000000  0  7G24G30G 4G 5G 6G 9G10
  21627888.349     4734132.73049   3682073.58247  21627888.234    21627897.790
  20674858.308   -10361387.02449  -8059545.71547  20674858.683    20674866.323
  24300161.069    10859786.31848   8442881.54544                  24300161.227
  20330819.824    -2383894.77949  -1854127.83148  20330819.416    20330827.314
  22818665.314    -9925795.04249  -7583670.78046  22818665.167    22818675.967
  24676986.317    10662891.05449   8291349.00445  24676986.157    24677002.386
  21725149.179   -12013417.09449  -9351465.33047  21725148.463    21725159.758
 03  4  3 18 23  0.0000000  0  7G24G30G 4G 5G 6G 9G10
  21640964.358     4802847.20949   3735617.22447  21640964.252    21640973.847
  20665638.240   -10409838.67949  -8097300.23847  20665638.616    20665646.261
  24319577.546    10961818.82748   8522387.11144                  24319577.070
  20335230.039    -2360719.38249  -1836069.13348  20335229.633    20335237.495
  22806204.768    -9991275.99049  -7634694.84346  22806204.603    22806215.178
  24695361.346    10759450.67749   8366589.84445  24695361.167    24695377.428
  21712604.179   -12079341.32349  -9402834.76347  21712603.418    21712614.745
 03  4  3 18 23 30.0000000  0  7G24G30G 4G 5G 6G 9G10
  21654087.945     4871811.40249   3789355.45047  21654087.847    21654097.404
  20656508.098   -10457817.90549  -8134686.63548  20656508.487    20656516.080
  24338997.041    11063867.12248   8601905.01444                  24338995.736
  20339741.068    -2337014.32949  -1817597.71648  20339740.650    20339748.494
  22793756.178   -10056693.96649  -7685669.81746  22793756.041    22793766.434
  24713721.849    10855935.06349   8441772.08745  24713721.707    24713737.927
  21700147.688   -12144800.44149  -9453841.77747  21700146.931    21700158.210
 03  4  3 18 24  0.0000000  0  7G24G30G 4G 5G 6G 9G10
  21667258.897     4941024.20549   3843287.39247  21667258.768    21667268.298
  20647468.499   -10505321.50949  -8171702.41948  20647468.865    20647476.452
  24358419.222    11165929.95448   8681434.28844                  24358417.956
  20344352.947    -2312778.94749  -1798713.05848  20344352.528    20344360.376
  22781319.813   -10122047.87049  -7736594.88446  22781319.621    22781329.831
  24732067.612    10952342.61849   8516894.45645  24732067.367    24732084.356
  21687780.499   -12209790.65049  -9504483.41447  21687779.673    21687790.916
 03  4  3 18 24 30.0000000  0  7G24G30G 4G 5G 6G 9G10
  21680476.882     5010484.49849   3897412.18547  21680476.748    21680486.295
  20638519.941   -10552346.56849  -8208345.31348  20638520.300    20638527.845
  24377843.826    11268006.60448   8760974.30344                  24377844.548
  20349065.911    -2288012.42149  -1779414.51948  20349065.485    20349073.312
  22768895.877   -10187336.03449  -7787468.70646  22768895.701    22768905.776
  24750398.377    11048671.68749   8591955.65345  24750398.095    24750415.570
  21675503.104   -12274307.84949  -9554756.47347  21675502.312    21675513.567
 03  4  3 18 25  0.0000000  0  7G24G30G 4G 5G 6G 9G10
  21693741.065     5080187.98849   3951726.48347  21693740.936    21693750.512
  20629662.408   -10598893.15149  -8244615.36548  20629662.752    20629670.307
  24397270.360    11370093.40948   8840522.19344  24397270.573    24397283.921
  20353879.506    -2262716.98249  -1759703.83648  20353879.083    20353886.977
  22756484.109   -10252560.17349  -7838292.63446  22756483.964    22756493.973
  24768713.494    11144917.77249   8666952.20045  24768713.366    24768730.927
  21663315.877   -12338351.64249  -9604660.63847  21663315.109    21663326.324
 03  4  3 18 25 30.0000000  0  7G24G30G 4G 5G 6G 9G10
  21707051.300     5150133.26449   4006229.18847  21707051.161    21707060.769
  20620896.484   -10644958.28949  -8280510.27248  20620896.840    20620904.342
  24416698.791    11472189.40248   8920077.28444  24416699.100    24416712.280
  20358793.852    -2236892.09749  -1739580.60248  20358793.440    20358801.399
  22744084.693   -10317719.17549  -7889065.83946  22744084.578    22744094.587
  24787012.404    11241079.09549   8741882.69145  24787012.547    24787030.084
  21651219.576   -12401918.18949  -9654192.92947  21651218.773    21651229.919
 03  4  3 18 26  0.0000000  0  8G17G24G30G 4G 5G 6G 9G10
  25047067.930     -658977.50549   -504455.19045  25047067.736    25047086.364
  21720406.914     5220316.92749   4060917.64647  21720406.755    21720416.402
  20612222.354   -10690541.10049  -8316029.33747  20612222.695    20612230.135
  24436128.336    11574291.66748   8999637.23244                  24436129.080
  20363808.696    -2210539.14449  -1719045.88448  20363808.259    20363816.229
  22731697.583   -10382813.79049  -7939788.85146  22731697.503    22731707.528
  24805294.686    11337151.97449   8816744.29445  24805295.000    24805312.705
  21639214.243   -12465006.28249  -9703352.39647  21639213.444    21639224.586
 03  4  3 18 26 30.0000000  0  8G17G24G30G 4G 5G 6G 9G10
  25029236.098     -752685.99349   -577474.63745  25029235.730    25029254.081
  21733806.873     5290733.50149   4115787.59447  21733806.699    21733816.403
  20603639.781   -10735642.74449  -8351173.46847  20603640.117    20603647.496
  24455558.397    11676395.34148   9079198.26744  24455558.786    24455572.434
  20368923.406    -2183661.47949  -1698102.30748  20368922.958    20368930.934
  22719322.220   -10447846.91849  -7990463.95946  22719322.071    22719332.125
  24823559.343    11433130.60049   8891532.42945  24823559.537    24823577.475
  21627299.892   -12527616.19649  -9752139.25747  21627299.102    21627310.218
 03  4  3 18 27  0.0000000  0  8G17G24G30G 4G 5G 6G 9G10
  25011426.937     -846275.11349   -650401.08545  25011426.430    25011444.393
  21747251.669     5361386.33149   4170841.64847  21747251.511    21747261.312
  20595150.112   -10780256.10249  -8385937.11448  20595150.454    20595157.812
  24474989.321    11778503.69148   9158762.96944  24474990.253    24475003.225
  20374138.847    -2156254.19549  -1676746.03948  20374138.417    20374146.427
  22706959.488   -10512812.70849  -8041086.59446  22706959.340    22706969.501
  24841806.571    11529017.67449   8966249.26145  24841806.604    24841824.545
  21615478.189   -12589739.83749  -9800547.20947  21615477.396    21615488.489
 03  4  3 18 27 30.0000000  0  8G17G24G30G 4G 5G 6G 9G10
  24993640.270     -939743.86549   -723233.74245  24993639.784    24993657.948
  21760741.048     5432273.40149   4226078.21447  21760740.903    21760750.736
  20586753.771   -10824379.06049  -8420318.62548  20586754.127    20586761.490
  24494421.204    11880615.21048   9238330.16644                  24494422.723
  20379455.045    -2128317.52549  -1654977.26348  20379454.617    20379462.642
  22694609.519   -10577710.92949  -8091656.56646  22694609.419    22694619.743
  24860035.874    11624810.71149   9040892.78145  24860035.794    24860053.898
  21603749.502   -12651374.51049  -9848574.15147  21603748.706    21603759.717
 03  4  3 18 28  0.0000000  0  8G17G24G30G 4G 5G 6G 9G10
  24975876.392    -1033092.48949   -795972.81945  24975876.091    24975894.117
  21774274.428     5503391.39549   4281494.72947  21774274.284    21774284.063
  20578450.981   -10868010.65849  -8454317.26548  20578451.344    20578458.699
  24513853.259    11982727.19948   9317897.70644                  24513854.690
  20384871.770    -2099852.76349  -1632796.98448  20384871.317    20384879.364
  22682272.453   -10642542.12649  -8142174.32046  22682272.380    22682282.778
  24878246.306    11720506.10349   9115460.23145  24878246.238    24878264.646
  21592114.095   -12712518.54149  -9896218.77147  21592113.351    21592124.174
 03  4  3 18 28 30.0000000  0  8G17G24G30G 4G 5G 6G 9G10
  24958135.906    -1126319.06649   -868616.78645  24958135.642    24958153.944
  21787851.526     5574738.69749   4337089.92547  21787851.364    21787861.006
  20570242.164   -10911148.49149  -8487931.15048  20570242.517    20570249.832
  24533285.038    12084838.38348   9397464.63144                  24533285.999
  20390388.910    -2070859.70949  -1610205.04548  20390388.488    20390396.628
  22669948.382   -10707305.45049  -8192639.18246  22669948.321    22669958.716
  24896437.718    11816102.01149   9189950.17445  24896437.694    24896456.363
  21580572.709   -12773168.73349  -9943478.58347  21580571.971    21580582.574
 03  4  3 18 29  0.0000000  0  8G17G24G30G 4G 5G 6G 9G10
  24940418.713    -1219423.76149   -941165.80845  24940418.408    24940436.886
  21801471.531     5646311.49749   4392860.82947  21801471.365    21801480.938
  20562127.337   -10953792.28049  -8521160.06748  20562127.695    20562134.943
  24552716.050    12186945.28448   9477028.17344                  24552716.869
  20396006.245    -2041340.51349  -1587203.13048  20396005.849    20396013.976
  22657637.015   -10772002.35249  -8243052.28146  22657636.954    22657647.281
  24914609.630    11911594.23749   9264359.29944  24914609.704    24914628.076
  21569125.371   -12833324.39149  -9990353.04447  21569124.646    21569135.160
 03  4  3 18 29 30.0000000  0  8G17G24G30G 4G 5G 6G 9G10
  24922725.121    -1312404.12249  -1013617.92545  24922724.717    24922743.391
  21815134.193     5718108.66949   4448806.57747  21815134.017    21815143.616
  20554107.145   -10995938.88149  -8554001.57048  20554107.507    20554114.686
                  12289047.58248   9556588.12344
  20401723.956    -2011294.30749  -1563790.55848  20401723.531    20401731.631
  22645338.594   -10836631.13949  -8293412.29746  22645338.518    22645348.740
  24932761.935    12006981.51249   9338686.64245  24932761.917    24932779.885
  21557772.911   -12892981.48249 -10036839.01947  21557772.195    21557782.702
 03  4  3 18 30  0.0000000  0  8G17G24G30G 4G 5G 6G 9G10
  24905055.427    -1405259.20049  -1085972.43945  24905054.979    24905073.619
  21828839.035     5790127.88449   4504925.34547  21828838.879    21828848.627
  20546181.879   -11037586.51149  -8586454.26548  20546182.244    20546189.413
  24591574.259    12391143.55648   9636143.21344                  24591573.756
  20407541.787    -1980721.49749  -1539967.64748  20407541.373    20407549.525
  22633053.099   -10901191.41849  -8343718.94946  22633053.053    22633063.223
  24950893.586    12102261.24249   9412930.19444  24950893.645    24950911.526
  21546515.766   -12952137.47249 -10082934.52747  21546515.128    21546525.661
 03  4  3 18 30 30.0000000  0  8G17G24G30G 4G 5G 6G 9G10
  24887409.916    -1497987.37849  -1158228.04845  24887409.396    24887427.745
  21842585.704     5862367.54649   4561215.88947  21842585.613    21842595.535
  20538351.929   -11078733.03649  -8618516.48648  20538352.325    20538359.592
                  12493231.70558  -2583432.93843
  20413459.805    -1949622.35849  -1515734.60948  20413459.386    20413467.544
  22620780.854   -10965682.38449  -8393971.59146  22620780.770    22620790.960
  24969003.991    12197430.90149   9487087.98944  24969004.168    24969022.246
  21535354.627   -13010789.67649 -10128637.48147  21535353.975    21535364.533
 03  4  3 18 31  0.0000000  0  8G17G24G30G 4G 5G 6G 9G10
  24869788.566    -1590588.36549  -1230384.52045  24869787.844    24869806.157
  21856373.728     5934824.43249   4617675.70047  21856373.677    21856383.781
  20530617.571   -11119377.30949  -8650187.34048  20530617.949    20530625.304
                  12595312.43858  -2503892.55543
  20419477.702    -1917998.20749  -1491092.47248  20419477.290    20419485.437
  22608521.689   -11030104.33049  -8444170.44246  22608521.636    22608531.873
  24987092.883    12292487.66449   9561157.82744  24987092.855    24987111.467
  21524289.583   -13068936.30649 -10173946.48247  21524288.955    21524299.519
 03  4  3 18 31 30.0000000  0  8G17G24G30G 4G 5G 6G 9G10
  24852191.044    -1683063.84249  -1302443.17845  24852190.277    24852208.569
  21870202.219     6007493.45949   4674300.81547  21870202.164    21870212.341
  20522978.631   -11159520.28449  -8681467.57548  20522979.017    20522986.407
                  12697419.75857  -2424343.24643
  20425594.874    -1885852.39549  -1466043.84948  20425594.465    20425602.637
  22596275.102   -11094459.85449  -8494317.52646  22596275.094    22596285.405
  25005159.403    12387426.22749   9635135.53244  25005159.248    25005177.982
  21513320.690   -13126577.50249 -10218861.63647  21513320.099    21513330.658
 03  4  3 18 32  0.0000000  0  8G17G24G30G 4G 5G 6G 9G10
  24834618.201    -1775409.38049  -1374400.57145  24834617.413    24834635.662
  21884071.477     6080376.61149   4731092.78347  21884071.402    21884081.555
  20515436.078   -11199156.37749  -8712352.83648  20515436.449    20515443.942
                  12799469.18218    250337.383 1
  20431811.975    -1853181.50549  -1440586.07448  20431811.561    20431819.767
  22584042.101   -11158744.57349  -8544409.44446  22584042.063    22584052.404
  25023203.593    12482247.58549   9709021.92645  25023203.595    25023222.122
  21502449.300   -13183707.10149 -10263378.15247  21502448.694    21502459.224
 03  4  3 18 32 30.0000000  0  8G17G24G30G 4G 5G 6G 9G10
  24817070.588    -1867621.04249  -1446253.60545  24817069.791    24817088.386
  21897981.480     6153473.41049   4788051.22447  21897981.413    21897991.447
  20507990.633   -11238281.95749  -8742840.29448  20507991.033    20507998.577
                  12901509.10448  -2543169.18343
  20438129.300    -1819984.15349  -1414718.06248  20438128.888    20438137.090
  22571822.980   -11222956.28449  -8594444.48746  22571822.942    22571833.233
  25041225.253    12576951.01249   9782816.42444  25041225.330    25041244.197
  21491676.115   -13240320.66749 -10307492.56647  21491675.473    21491685.990
 03  4  3 18 33  0.0000000  0  8G17G24G30G 4G 5G 6G 9G10
  24799548.140    -1959699.47849  -1518002.80345  24799547.561    24799566.373
  21911931.473     6226780.29349   4845173.37247  21911931.385    21911941.247
  20500642.547   -11276896.68049  -8772929.68548  20500642.960    20500650.407
                  13003531.57458  -2463634.68243
  20444546.423    -1786262.34449  -1388441.38248  20444546.005    20444554.215
  22559617.515   -11287096.13449  -8644423.53846  22559617.472    22559627.699
  25059223.859    12671532.56949   9856515.95245  25059223.789    25059242.906
  21481001.216   -13296417.42349 -10351204.27647  21481000.563    21481011.098
 03  4  3 18 33 30.0000000  0  8G17G24G30G 4G 5G 6G 9G10
  24782051.083    -2051645.70549  -1589648.97045  24782050.564    24782069.560
  21925920.715     6300293.24749   4902456.09847  21925920.590    21925930.330
  20493391.659   -11315000.68549  -8802621.10648  20493392.050    20493399.398
                  13105534.92048  -2384115.05643
  20451062.811    -1752018.68549  -1361758.07048  20451062.424    20451070.598
  22547425.439   -11351165.54549  -8694347.69946  22547425.392    22547435.617
  25077198.683    12765988.21649   9930117.36444  25077198.725    25077217.417
  21470424.873   -13351996.74849 -10394512.79147  21470424.204    21470434.668
 03  4  3 18 34  0.0000000  0  7G17G24G30G 4G 5G 6G10
  24764580.402    -2143454.29849  -1661187.87145  24764579.868    24764598.897
  21939949.402     6374013.94049   4959900.69047  21939949.289    21939959.014
  20486239.002   -11352588.26249  -8831910.12348  20486239.391    20486246.710
                  13207521.50348  -2580864.72843
  20457679.226    -1717249.89249  -1334665.57148  20457678.794    20457686.945
  22535247.659   -11415160.16649  -8744213.58846  22535247.563    22535257.832
  21459948.211   -13407052.25849 -10437413.14047  21459947.488    21459957.933
 03  4  3 18 34 30.0000000  0  7G17G24G30G 4G 5G 6G10
  24747135.256    -2235128.57249  -1732622.07145  24747134.895    24747153.655
  21954016.438     6447936.30749   5017502.44347  21954016.310    21954026.098
  20479184.114   -11389662.06949  -8860798.79548  20479184.486    20479191.803
                  13309485.48848  -2501545.73643
  20464394.557    -1681960.89149  -1307167.70548  20464394.145    20464402.355
  22523083.270   -11479083.84249  -8794024.18546  22523083.194    22523093.573
  21449570.808   -13461585.76449 -10479906.73247  21449570.062    21449580.516
 03  4  3 18 35  0.0000000  0  7G17G24G30G 4G 5G 6G10
  24729715.908    -2326668.25749  -1803951.39045  24729715.465    24729734.164
  21968121.245     6522057.35549   5075259.01047  21968121.096    21968131.001
  20472227.200   -11426220.87749  -8889286.17748  20472227.572    20472234.903
                  13411424.48248  -2422246.15843
  20471208.687    -1646152.74449  -1279265.31448  20471208.267    20471216.515
  22510932.316   -11542936.87549  -8843779.74446  22510932.236    22510942.737
  21439293.035   -13515595.53049 -10521992.22747  21439292.277    21439302.751
 03  4  3 18 35 30.0000000  0  6G17G24G30G 5G 6G10
  24712323.700    -2418065.37049  -1875169.60845  24712323.135    24712341.704
  21982264.630     6596381.51249   5133173.83247  21982264.505    21982274.590
  20465369.879   -11462256.14649  -8917365.60548  20465370.259    20465377.638
  20478122.770    -1609819.17949  -1250953.50448  20478122.351    20478130.583
  22498796.185   -11606711.75549  -8893474.40646  22498796.118    22498806.678
  21429116.601   -13569072.22549 -10563662.34447  21429115.882    21429126.409
 03  4  3 18 36  0.0000000  0  6G17G24G30G 5G 6G10
  24694957.567    -2509325.10449  -1946280.78145  24694956.997    24694975.145
  21996445.151     6670900.46749   5191240.44347  21996445.038    21996455.226
  20458611.243   -11497772.71049  -8945040.84748  20458611.628    20458619.013
  20485135.507    -1572967.53249  -1222237.99648  20485135.086    20485143.284
  22486673.782   -11670414.71749  -8943113.02746  22486673.730    22486684.320
  21419040.856   -13622020.12549 -10604920.41847  21419040.187    21419050.702
 03  4  3 18 36 30.0000000  0  6G17G24G30G 5G 6G10
  24677617.435    -2600447.07849  -2017284.60345  24677616.852    24677634.862
  22010662.238     6745611.45549   5249456.69447  22010662.125    22010672.376
  20451951.519   -11532769.41349  -8972311.00648  20451951.919    20451959.353
  20492246.539    -1535599.28849  -1193119.94548  20492246.093    20492254.268
  22474565.149   -11734045.85049  -8992695.67346  22474565.102    22474575.708
  21409066.110   -13674437.66349 -10645765.21847  21409065.393    21409075.975
 03  4  3 18 37  0.0000000  0  6G17G24G30G 5G 6G10
  24660303.888    -2691428.85849  -2088179.18445  24660303.298    24660321.204
  22024915.646     6820513.12649   5307821.52347  22024915.508    22024925.743
  20445391.237   -11567243.70249  -8999174.08948  20445391.670    20445399.106
  20499455.925    -1497714.01149  -1163599.01448  20499455.492    20499463.645
  22462470.603   -11797603.61949  -9042221.15346  22462470.525    22462481.008
  21399192.803   -13726321.38249 -10686194.05447  21399192.128    21399202.851
 03  4  3 18 37 30.0000000  0  6G17G24G30G 5G 6G10
  24643017.086    -2782269.92849  -2158964.10145  24643016.466    24643034.424
  22039204.964     6895603.42249   5366333.32847  22039204.786    22039215.024
  20438930.720   -11601194.06249  -9025628.92148  20438931.132    20438938.524
  20506763.515    -1459312.60649  -1133675.90448  20506763.043    20506771.200
  22450390.113   -11861087.57949  -9091689.11446  22450389.978    22450400.301
  21389421.683   -13777669.00249 -10726205.15747  21389421.002    21389431.749
 03  4  3 18 38  0.0000000  0  6G17G24G30G 5G 6G10
  24625757.367    -2872968.21249  -2229637.79545  24625756.814    24625774.725
  22053529.876     6970881.14149   5424991.18347  22053529.719    22053540.012
  20432570.440   -11634617.81649  -9051673.40448  20432570.825    20432578.197
  20514169.269    -1420394.77549  -1103350.38348  20514168.837    20514177.034
  22438323.860   -11924496.49949  -9141098.60746  22438323.741    22438333.902
  21379753.202   -13828477.40549 -10765796.09347  21379752.535    21379763.241
 03  4  3 18 38 30.0000000  0  6G17G24G30G 5G 6G10
  24608525.217    -2963521.70149  -2300198.65045  24608524.733    24608542.493
  22067890.160     7046344.87549   5483793.98347  22067890.007    22067900.424
  20426310.722   -11667513.00849  -9077306.02148  20426311.109    20426318.468
  20521673.321    -1380960.87849  -1072622.73748  20521672.891    20521681.131
  22426271.958   -11987829.40249  -9190448.86146  22426271.855    22426281.977
  21370187.762   -13878744.22849 -10804965.00947  21370187.057    21370197.692
 03  4  3 18 39  0.0000000  0  6G17G24G30G 5G 6G10
  24591320.756    -3053930.22049  -2370646.51845  24591320.224    24591337.961
  22082285.298     7121991.75549   5542739.49647  22082285.182    22082295.686
  20420151.765   -11699878.30149  -9102525.73048  20420152.153    20420159.590
  20529275.377    -1341012.13549  -1041493.90948  20529274.929    20529283.237
  22414234.510   -12051086.01349  -9239739.65346  22414234.468    22414244.584
  21360725.769   -13928467.13149 -10843710.08847  21360725.058    21360735.713
 03  4  3 18 39 30.0000000  0  6G17G24G30G 5G 6G10
  24574144.158    -3144192.52549  -2440980.47145  24574143.645    24574161.298
  22096715.068     7197820.44749   5601826.67647  22096714.963    22096725.584
  20414094.039   -11731711.74649  -9127331.00548  20414094.446    20414101.922
  20536975.273    -1300549.01349  -1009964.26348  20536974.848    20536983.234
  22402211.793   -12114265.55349  -9288970.39846  22402211.741    22402221.869
  21351367.692   -13977643.76649 -10882029.51147  21351367.036    21351377.668
 03  4  3 18 40  0.0000000  0  6G17G24G30G 5G 6G10
  24556995.647    -3234307.64849  -2511199.73245  24556994.997    24557012.711
  22111178.900     7273827.96249   5661053.19047  22111178.799    22111189.466
  20408137.745   -11763012.36149  -9151721.08948  20408138.130    20408145.609
  20544772.837    -1259572.82549   -978034.82848  20544772.380    20544780.844
  22390203.726   -12177367.98749  -9338141.06346  22390203.704    22390213.785
  21342113.965   -14026272.56149 -10919922.03747  21342113.292    21342123.856
 03  4  3 18 40 30.0000000  0  6G17G24G30G 5G 6G10
  24539875.241    -3324274.68949  -2581303.61945  24539874.569    24539892.218
  22125676.440     7350012.56049   5720417.69247  22125676.323    22125687.035
  20402283.130   -11793778.73249  -9175694.88048  20402283.513    20402290.969
  20552667.809    -1218084.61049   -945706.41548  20552667.374    20552675.906
  22378210.365   -12240393.03649  -9387251.44246  22378210.347    22378220.411
  21332964.863   -14074351.27849 -10957385.92847  21332964.196    21332974.696
 03  4  3 18 41  0.0000000  0  6G17G24G30G 5G 6G10
  24522783.264    -3414092.29349  -2651291.06145  24522782.601    24522800.067
  22140207.304     7426372.19749   5779918.58247  22140207.193    22140217.943
  20396530.556   -11824009.06349  -9199250.98348  20396530.925    20396538.306
  20560660.080    -1176084.86849   -912979.41248  20560659.671    20560668.268
  22366231.933   -12303339.77249  -9436300.78546  22366231.910    22366241.882
  21323920.988   -14121877.47349 -10994419.28547  21323920.307    21323930.684
 03  4  3 18 41 30.0000000  0  6G17G24G30G 5G 6G10
  24505720.048    -3503758.85549  -2721160.82245  24505719.494    24505736.657
  22154771.183     7502905.34249   5839554.66947  22154771.081    22154781.885
  20390880.356   -11853701.19549  -9222387.70948  20390880.737    20390888.100
  20568749.713    -1133573.98249   -879854.11248  20568749.311    20568757.902
  22354268.650   -12366207.00049  -9485288.16946  22354268.602    22354278.587
  21314982.675   -14168848.80549 -11031020.27747  21314981.945    21314992.245
 03  4  3 18 42  0.0000000  0  6G17G24G30G 5G 6G10
  24488685.611    -3593274.14049  -2790912.71545  24488685.107    24488702.064
  22169367.578     7579609.24749   5899323.81247  22169367.476    22169378.291
  20385332.692   -11882854.16749  -9245104.30648  20385333.088    20385340.505
  20576936.313    -1090553.49149   -846331.72248  20576935.904    20576944.490
  22342320.354   -12428994.74649  -9534213.62046  22342320.324    22342330.355
  21306150.144   -14215263.60349 -11067187.60047  21306149.430    21306159.760
 03  4  3 18 42 30.0000000  0  6G17G24G30G 5G 6G10
  24471680.316    -3682636.57149  -2860545.51845  24471679.819    24471696.491
  22183996.212     7656482.53549   5959224.95647  22183996.129    22184006.875
  20379888.013   -11911466.23949  -9267399.42748  20379888.397    20379895.887
  20585219.767    -1047023.95349   -812412.67648  20585219.369    20585227.932
  22330387.458   -12491702.09949  -9583076.44446  22330387.455    22330397.398
  21297423.953   -14261119.44849 -11102919.38547  21297423.271    21297433.624
 03  4  3 18 43  0.0000000  0  6G17G24G30G 5G 6G10
  24454704.031    -3771845.93249  -2930059.04645  24454703.572    24454720.112
  22198656.474     7733522.09849   6019255.66447  22198656.360    22198667.125
  20374546.342   -11939536.94449  -9289272.70448  20374546.725    20374554.237
  20593599.780    -1002987.34549   -778098.50448  20593599.358    20593607.898
  22318469.848   -12554329.67349  -9631877.08946  22318469.835    22318479.677
  21288804.420   -14306415.32249 -11138214.82247  21288803.718    21288814.053
 03  4  3 18 43 30.0000000  0  6G17G24G30G 5G 6G10
  24437757.321    -3860900.22349  -2999451.76745  24437756.873    24437773.293
  22213348.281     7810727.61249   6079415.67947  22213348.189    22213358.982
  20369308.251   -11967063.28649  -9310721.80348  20369308.621    20369316.111
  20602076.316     -958443.10449   -743388.77748  20602075.899    20602084.467
  22306567.959   -12616875.26049  -9680613.85746  22306567.884    22306577.627
  21280292.133   -14351147.56549 -11173071.07347  21280291.461    21280301.746
 03  4  3 18 44  0.0000000  0  6G17G24G30G 5G 6G10
  24420840.024    -3949800.04549  -3068724.14045  24420839.516    24420856.013
  22228070.923     7888095.20649   6139701.98947  22228070.826    22228081.723
  20364173.624   -11994045.66849  -9331747.04148  20364174.006    20364181.512
  20610648.971     -913393.93949   -708285.60348  20610648.545    20610657.080
  22294681.386   -12679339.98949  -9729287.61546  22294681.273    22294690.964
  21271887.127   -14395315.79449 -11207487.82947  21271886.450    21271896.785
 03  4  3 18 44 30.0000000  0  6G17G24G30G 5G 6G10
  24403952.523    -4038542.38349  -3137873.79045  24403951.866    24403968.744
  22242824.329     7965624.30149   6200114.14247  22242824.243    22242835.162
  20359143.166   -12020480.98249  -9352345.99748  20359143.568    20359151.050
  20619317.833     -867839.07749   -672788.38448  20619317.394    20619325.938
  22282810.508   -12741721.76649  -9777896.74146  22282810.412    22282820.198
  21263590.099   -14438916.43049 -11241462.30847  21263589.413    21263599.857
 03  4  3 18 45  0.0000000  0  6G17G24G30G 5G 6G10
  24387095.086    -4127127.05249  -3206900.58245  24387094.626    24387111.468
  22257607.983     8043312.29849   6260650.11347  22257607.888    22257618.758
  20354216.994   -12046368.42349  -9372518.03448  20354217.398    20354224.832
  20628082.572     -821780.19349   -636898.41548  20628082.146    20628090.772
  22270955.330   -12804020.49149  -9826441.14446  22270955.249    22270965.165
  21255401.367   -14481948.30749 -11274993.59447  21255400.692    21255411.107
 03  4  3 18 45 30.0000000  0  6G17G24G30G 5G 6G10
  24370267.966    -4215553.04449  -3275803.75045  24370267.505    24370284.250
  22272421.644     8121157.43449   6321308.52947  22272421.553    22272432.255
  20349395.343   -12071706.56849  -9392262.05448  20349395.717    20349403.129
  20636943.029     -775218.46149   -600616.62348  20636942.582    20636951.287
  22259116.159   -12866235.49949  -9874920.31846  22259116.105    22259126.044
  21247321.272   -14524409.57849 -11308080.26047  21247320.596    21247330.977
 03  4  3 18 46  0.0000000  0  6G17G24G30G 5G 6G10
  24353471.134    -4303820.02349  -3344583.02245  24353470.644    24353487.311
  22287264.662     8199156.72349   6382087.06547  22287264.537    22287275.026
  20344678.235   -12096494.80449  -9411577.56448  20344678.612    20344686.092
  20645898.758     -728155.68949   -563944.40148  20645898.352    20645907.027
  22247292.852   -12928366.93349  -9923334.36846  22247292.810    22247302.717
  21239350.018   -14566298.82249 -11340721.18347  21239349.355    21239359.769
 03  4  3 18 46 30.0000000  0  6G17G24G30G 5G 6G10
  24336704.891    -4391926.64749  -3413237.35645  24336704.370    24336720.925
  22302136.674     8277308.74449   6442984.60147  22302136.582    22302146.906
  20340066.065   -12120731.49749  -9430463.31048  20340066.445    20340074.018
  20654949.839     -680592.39849   -526882.17248  20654949.436    20654958.049
  22235485.689   -12990413.69949  -9971682.46046  22235485.674    22235495.501
  21231487.995   -14607613.60149 -11372914.48347  21231487.347    21231497.866
 03  4  3 18 47  0.0000000  0  6G17G24G30G 5G 6G10
  24319969.252    -4479872.52649  -3481766.44545  24319968.666    24319985.126
  22317037.336     8355611.11549   6503999.30246  22317037.226    22317047.490
  20335559.105   -12144415.56149  -9448918.43348  20335559.515    20335567.080
  20664095.884     -632530.07849   -489431.08848  20664095.464    20664104.042
  22223694.684   -13052375.71949 -10019964.50046  22223694.676    22223704.392
  21223735.507   -14648352.78849 -11404659.26847  21223734.864    21223745.451
 03  4  3 18 47 30.0000000  0  6G17G24G30G 5G 6G10
  24303264.347    -4567655.27549  -3550168.42045  24303263.911    24303280.289
  22331966.382     8434063.05049   6565130.55646  22331966.221    22331976.563
  20331157.845   -12167544.67049  -9466941.12048  20331158.232    20331165.726
  20673336.840     -583968.68449   -451591.11348  20673336.427    20673344.997
  22211920.203   -13114251.15549 -10068179.06747  22211920.168    22211929.817
  21216093.231   -14688513.23049 -11435953.08947  21216092.595    21216103.136
 03  4  3 18 48  0.0000000  0  6G17G24G30G 5G 6G10
  24286590.825    -4655274.08049  -3618442.64845  24286590.444    24286606.839
  22346923.425     8512662.70549   6626376.91246  22346923.317    22346933.764
  20326862.506   -12190117.32149  -9484530.20648  20326862.895    20326870.309
  20682672.599     -534909.28249   -413363.08548  20682672.184    20682680.700
  22200162.286   -13176039.25049 -10116325.57947  22200162.248    22200171.871
  21208561.535   -14728092.97349 -11466794.42447  21208560.889    21208571.361
 03  4  3 18 48 30.0000000  0  6G17G24G30G 5G 6G10
  24269948.737    -4742728.35449  -3686588.67945  24269948.324    24269964.648
  22361908.062     8591407.55049   6687736.40546  22361907.973    22361918.648
  20322673.153   -12212132.90549  -9501685.21248  20322673.506    20322680.920
  20692102.805     -485353.76949   -374748.47748  20692102.365    20692110.849
  22188420.969   -13237740.04049 -10164404.05647  22188420.926    22188430.578
  21201140.602   -14767090.95149 -11497182.42947  21201139.926    21201150.246
 03  4  3 18 49  0.0000000  0  6G17G24G30G 5G 6G10
  24253338.187    -4830017.64849  -3754606.15145  24253337.664    24253354.023
  22376919.963     8670295.07049   6749207.06446  22376919.871    22376930.663
  20318589.831   -12233590.85149  -9518405.69848  20318590.183    20318597.581
  20701627.050     -435303.66949   -335748.47548  20701626.632    20701635.148
  22176696.309   -13299353.19149 -10212414.24047  22176696.253    22176705.915
  21193830.551   -14805505.54049 -11527115.85147  21193829.867    21193840.135
 03  4  3 18 49 30.0000000  0  6G17G24G30G 5G 6G10
  24236759.101    -4917141.19249  -3822494.47045  24236758.591    24236774.824
  22391958.571     8749323.03449   6810787.16046  22391958.450    22391969.367
  20314612.819   -12254490.10549  -9534690.83848  20314613.186    20314620.557
  20711245.236     -384760.44749   -296364.22648  20711244.803    20711253.340
  22164988.380   -13360878.53849 -10260356.01747  22164988.328    22164998.006
  21186631.647   -14843335.87749 -11556594.01247  21186630.961    21186641.242
 03  4  3 18 50  0.0000000  0  6G17G24G30G 5G 6G10
  24220211.910    -5004097.73049  -3890252.65645  24220211.466    24220227.289
  22407023.681     8828490.15149   6872475.68746  22407023.590    22407034.515
  20310742.508   -12274828.80249  -9550539.18448  20310742.885    20310750.266
  20720957.104     -333724.64349   -256596.14648  20720956.670    20720965.231
  22153297.482   -13422314.58649 -10308228.20947  22153297.441    22153307.128
  21179544.412   -14880579.20349 -11585614.75747  21179543.697    21179554.012
 03  4  3 18 50 30.0000000  0  6G17G24G30G 5G 6G10
  24203696.653    -5090886.64049  -3957880.21845  24203696.120    24203711.744
  22422114.987     8907794.51749   6934271.15546  22422114.853    22422125.769
  20306979.063   -12294605.87349  -9565949.89848  20306979.431    20306986.798
  20730762.442     -282197.78249   -216445.42548  20730762.012    20730770.580
  22141623.725   -13483660.89649 -10356030.47047  22141623.633    22141633.389
  21172569.118   -14917234.05049 -11614176.94947  21172568.416    21172578.745
 03  4  3 18 51  0.0000000  0  6G17G24G30G 5G 6G10
  24187213.406    -5177506.63649  -4025376.16545  24187212.901    24187228.475
  22437231.985     8987233.91449   6996171.84346  22437231.797    22437242.622
  20303322.659   -12313820.35649  -9580922.23348  20303323.022    20303330.424
  20740660.969     -230181.15249   -175913.06948  20740660.539    20740669.127
  22129967.009   -13544916.93049 -10403762.39847  22129966.913    22129976.757
  21165706.164   -14953298.87849 -11642279.38547  21165705.457    21165715.834
 03  4  3 18 51 30.0000000  0  6G17G24G30G 5G 6G10
  24170762.545    -5263956.05449  -4092739.19845  24170762.069    24170777.714
  22452374.274     9066806.94249   7058176.67046  22452374.105    22452384.907
  20299773.605   -12332470.54049  -9595454.85248  20299773.979    20299781.449
  20750652.520     -177675.33449   -134999.52148  20750652.102    20750660.741
  22118327.675   -13606081.22449 -10451422.83947  22118327.631    22118337.545
  21158955.926   -14988771.55149 -11669920.39147  21158955.200    21158965.607
 03  4  3 18 52  0.0000000  0  6G17G24G30G 5G 6G10
  24154344.341    -5350234.35449  -4159968.90045  24154343.895    24154359.442
  22467541.662     9146511.80049   7120284.21746  22467541.504    22467552.244
  20296332.197   -12350555.31049  -9609546.89748  20296332.591    20296340.060
  20760736.959     -124681.69049    -93705.85348  20760736.541    20760745.166
  22106705.978   -13667153.08949 -10499011.26147  22106705.946    22106715.888
  21152318.671   -15023650.38549 -11697098.66947  21152317.945    21152328.360
 03  4  3 18 52 30.0000000  0  6G17G24G30G 5G 6G10
  24137958.866    -5436341.24949  -4227065.03545  24137958.369    24137973.693
  22482733.688     9226346.13449   7182492.66146  22482733.567    22482744.213
  20292998.461   -12368074.31149  -9623198.07948  20292998.849    20293006.327
  20770913.782      -71202.41449    -52033.76648  20770913.346    20770921.982
  22095101.852   -13728132.67249 -10546527.76547  22095101.829    22095111.768
  21145794.666   -15057934.45249 -11723813.49247  21145793.951    21145804.398
 03  4  3 18 53  0.0000000  0  6G17G24G30G 5G 6G10
  24121606.100    -5522275.41449  -4294026.57845  24121605.530    24121620.830
  22497950.021     9306308.02649   7244800.48846  22497949.913    22497960.502
  20289772.693   -12385026.03449  -9636407.23148  20289773.082    20289780.567
  20781182.822      -17238.28949     -9983.88048  20781182.407    20781191.111
  22083515.608   -13789018.84349 -10593971.49447  22083515.550    22083525.421
  21139384.149   -15091621.90649 -11750063.42047  21139383.419    21139393.887
 03  4  3 18 53 30.0000000  0  6G17G24G30G 5G 6G10
  24105286.125    -5608036.49749  -4360853.25845  24105285.649    24105300.944
  22513190.262     9386395.32449   7307206.04446  22513190.162    22513200.750
  20286654.955   -12401409.71849  -9649173.75348  20286655.351    20286662.890
  20791543.871       37209.02449     32442.51248  20791543.444    20791552.182
  22071947.213   -13849811.20349 -10641342.12547  22071947.129    22071956.972
  21133087.411   -15124711.54849 -11775847.52247  21133086.698    21133097.056
 03  4  3 18 54  0.0000000  0  6G17G24G30G 5G 6G10
  24088999.433    -5693622.50549  -4427543.49945  24088998.874    24089014.335
  22528454.318     9466607.42949   7369708.83446  22528454.215    22528464.777
  20283645.681   -12417223.31449  -9661496.05148  20283646.094    20283653.653
  20801996.808       92139.13849     75245.11248  20801996.367    20802005.130
  22060396.896   -13910508.04249 -10688638.33147  22060396.885    22060406.703
  21126905.120   -15157200.36149 -11801163.43847  21126904.348    21126914.528
 03  4  3 18 54 30.0000000  0  6G17G24G30G 5G 6G10
  24072746.033    -5779033.26449  -4494097.18445  24072745.525    24072761.016
  22543741.475     9546941.08049   7432306.34746  22543741.342    22543751.932
  20280744.891   -12432467.13749  -9673374.36948  20280745.302    20280752.924
  20812541.112      147549.53249    118421.95648  20812540.688    20812549.476
  22048864.740   -13971109.90349 -10735860.53347  22048864.699    22048874.467
  21120836.956   -15189088.57249 -11826011.35747  21120836.179    21120846.266
 03  4  3 18 55  0.0000000  0  6G17G24G30G 5G 6G10
  24056526.322    -5864267.69149  -4560513.46745  24056525.864    24056541.141
  22559051.528     9627395.33549   7494997.83846  22559051.384    22559062.028
  20277952.887   -12447139.31349  -9684807.24648  20277953.295    20277960.971
  20823176.686      203439.63649    161972.59648  20823176.265    20823185.106
  22037351.036   -14031615.13249 -10783007.44947  22037350.969    22037360.673
  21114883.538   -15220373.76249 -11850389.39147  21114882.791    21114892.762
 03  4  3 18 55 30.0000000  0  6G17G24G30G 5G 6G10
  24040340.347    -5949325.56549  -4626792.16645  24040339.849    24040354.920
  22574383.953     9707967.65149   7557781.32646  22574383.829    22574394.630
  20275269.729   -12461239.60949  -9695794.50248  20275270.143    20275277.833
  20833903.193      259807.44849    205895.47948  20833902.769    20833911.668
  22025855.604   -14092023.56749 -10830078.92147  22025855.528    22025865.347
  21109045.069   -15251055.11649 -11874296.89847  21109044.283    21109054.199
 03  4  3 18 56  0.0000000  0  6G17G24G30G 5G 6G10
  24024188.300    -6034204.69949  -4692931.58145  24024187.751    24024202.785
  22589738.697     9788657.10749   7620656.08646  22589738.569    22589749.477
  20272695.783   -12474765.91349  -9706334.49748  20272696.184    20272703.845
  20844720.525      316652.54249    250190.26648  20844720.090    20844729.018
  22014378.897   -14152333.51149 -10877073.65947  22014378.823    22014388.764
  21103321.902   -15281130.30249 -11897732.08547  21103321.155    21103331.080
 03  4  3 18 56 30.0000000  0  6G17G24G30G 5G 6G10
  24008070.026    -6118905.95349  -4758932.37945  24008069.440    24008084.399
  22605115.146     9869460.53549   7683619.65646  22605115.014    22605126.055
  20270230.934   -12487719.11449  -9716427.92048  20270231.321    20270238.954
  20855628.095      373971.91449    294854.62148  20855627.659    20855636.620
  22002920.768   -14212545.94549 -10923992.41247  22002920.715    22002930.733
  21097714.092   -15310599.52249 -11920695.08947  21097713.337    21097723.282
 03  4  3 18 57  0.0000000  0  6G17G24G30G 5G 6G10
  23991986.048    -6203426.86049  -4824792.63345  23991985.435    23992000.431
  22620513.242     9950377.79349   7746671.92646  22620513.154    22620524.294
  20267875.595   -12500096.46649  -9726072.62748  20267875.991    20267883.622
  20866625.938      431765.71149    339888.65748  20866625.506    20866634.569
  21991481.743   -14272658.43649 -10970833.28047  21991481.694    21991491.751
  21092222.088   -15339459.84449 -11943183.63147  21092221.339    21092231.328
 03  4  3 18 57 30.0000000  0  6G17G24G30G 5G 6G10
  23975936.043    -6287767.72749  -4890512.60645  23975935.535    23975950.732
  22635932.448    10031405.80949   7809810.49446  22635932.390    22635943.608
  20265629.740   -12511898.55049  -9735269.08048  20265630.126    20265637.731
  20877713.507      490031.08449    385290.15148  20877713.080    20877722.187
  21980061.696   -14332671.36749 -11017596.56647  21980061.630    21980071.674
  21086845.957   -15367711.25949 -11965197.69947  21086845.201    21086855.274
 03  4  3 18 58  0.0000000  0  6G17G24G30G 5G 6G10
  23959920.758    -6371927.05249  -4956091.09745  23959920.343    23959935.700
  22651372.571    10112543.47049   7873034.50946  22651372.491    22651383.831
  20263493.685   -12523123.45749  -9744015.77848  20263494.065    20263501.699
  20888890.748      548767.61349    431058.78748  20888890.332    20888899.472
  21968660.911   -14392582.92249 -11064280.85747  21968660.853    21968670.821
  21081586.122   -15395351.31949 -11986735.38547  21081585.372    21081595.553
 03  4  3 18 58 30.0000000  0  6G17G24G30G 5G 6G10
  23943940.301    -6455904.88049  -5021528.17745  23943939.816    23943955.228
  22666832.972    10193787.87549   7936341.68846  22666832.878    22666844.346
  20261467.471   -12533771.27749  -9752312.79848  20261467.868    20261475.464
  20900157.216      607972.84249    477192.63948  20900156.782    20900165.939
  21957279.339   -14452393.25849 -11110886.27547  21957279.322    21957289.179
  21076442.769   -15422379.71049 -12007796.45147  21076442.013    21076452.258
 03  4  3 18 59  0.0000000  0  6G17G24G30G 5G 6G10
  23927994.436    -6539700.30849  -5086823.12845  23927993.905    23928009.351
  22682313.343    10275137.58349   7999730.92746  22682313.291    22682324.936
  20259551.290   -12543841.21549  -9760159.53348  20259551.684    20259559.189
  20911512.550      667645.28949    523690.55148  20911512.121    20911521.283
  21945917.181   -14512101.66849 -11157412.27747  21945917.158    21945926.939
  21071416.017   -15448795.24249 -12028379.97147  21071415.283    21071425.574
 03  4  3 18 59 30.0000000  0  6G17G24G30G 5G 6G10
  23912083.534    -6623312.15949  -5151975.02645  23912083.039    23912098.334
  22697813.507    10356591.25649   8063201.18146  22697813.470    22697825.283
  20257745.365   -12553331.74349  -9767554.77348  20257745.754    20257753.179
  20922956.698      727784.06749    570551.84448  20922956.268    20922965.350
  21934574.709   -14571706.75649 -11203857.76547  21934574.690    21934584.375
  21066506.263   -15474596.04449 -12048484.47747  21066505.532    21066515.794
 03  4  3 19  0  0.0000000  0  6G17G24G30G 5G 6G10
  23896207.793    -6706739.61649  -5216983.23645  23896207.330    23896222.417
  22713333.234    10438147.32349   8126751.21646  22713333.196    22713345.116
  20256049.764   -12562242.36549  -9774498.14048  20256050.128    20256057.584
  20934489.228      788387.25949    617775.01748  20934488.805    20934497.827
  21923252.190   -14631207.65949 -11250222.06847  21923252.118    21923261.710
  21061713.693   -15499781.00749 -12068109.10947  21061712.999    21061723.229
 03  4  3 19  0 30.0000000  0  6G17G24G30G 5G 6G10
  23880367.033    -6789983.18649  -5281848.15846  23880366.506    23880381.456
  22728871.882    10519802.58349   8190378.54546  22728871.829    22728883.832
  20254464.245   -12570573.83349  -9780990.21348  20254464.626    20254472.155
  20946109.564      849452.03149    665357.86048  20946109.130    20946118.151
  21911949.303   -14690604.93349 -11296505.62247  21911949.193    21911958.710
  21057038.268   -15524350.51949 -12087254.16047  21057037.556    21057047.802
 03  4  3 19  1  0.0000000  0  6G17G24G30G 5G 6G10
  23864561.643    -6873040.72049  -5346568.10846  23864561.098    23864575.985
  22744429.274    10601556.20349   8254082.52446  22744429.179    22744441.210
  20252989.418   -12578324.25749  -9787029.52848  20252989.787    20252997.313
  20957817.661      910978.10949    713300.16248  20957817.235    20957826.276
  21900666.453   -14749896.69149 -11342706.94847  21900666.344    21900675.820
  21052480.256   -15548302.43449 -12105917.97347  21052479.572    21052489.885
 03  4  3 19  1 30.0000000  0  6G17G24G30G 5G 6G10
  23848791.681    -6955911.72149  -5411142.71446  23848791.166    23848806.030
  22760005.191    10683406.73849   8317862.01446  22760005.016    22760016.960
  20251625.343   -12585492.46549  -9792615.17148  20251625.711    20251633.231
  20969613.227      972963.93449    761600.70848  20969612.789    20969621.875
  21889403.817   -14809081.82649 -11388825.19747  21889403.741    21889413.240
  21048040.216   -15571635.06649 -12124099.22947  21048039.565    21048049.876
 03  4  3 19  2  0.0000000  0  6G17G24G30G 5G 6G10
  23833057.325    -7038595.54649  -5475571.46746  23833056.848    23833071.618
  22775599.117    10765352.10549   8381715.39046  22775598.951    22775610.661
  20250372.129   -12592078.36949  -9797747.06848  20250372.499    20250380.054
  20981495.912     1035407.69649    810258.09247  20981495.493    20981504.631
  21878161.592   -14868159.80649 -11434859.94247  21878161.494    21878171.057
  21043718.207   -15594347.80249 -12141797.44947  21043717.527    21043727.793
 03  4  3 19  2 30.0000000  0  6G17G24G30G 5G 6G10
  23817358.841    -7121090.75149  -5539853.24946  23817358.356    23817373.105
  22791210.847    10847391.16149   8445641.78646  22791210.683    22791222.192
  20249229.986   -12598080.60749  -9802424.16148  20249230.360    20249237.949
  20993465.565     1098308.13049    859271.31847  20993465.136    20993474.312
  21866940.018   -14927129.20049 -11480810.08047  21866939.942    21866949.596
  21039514.428   -15616438.77349 -12159011.17547  21039513.748    21039523.989
 03  4  3 19  3  0.0000000  0  6G17G24G30G 5G 6G10
  23801696.249    -7203396.83549  -5603987.66246  23801695.750    23801710.575
  22806839.932    10929521.95449   8509639.64846  22806839.783    22806851.146
  20248199.001   -12603498.61749  -9806646.01248  20248199.383    20248207.009
  21005521.741     1161663.47049    908639.02047  21005521.300    21005530.535
  21855739.258   -14985989.46349 -11526675.18647  21855739.197    21855748.851
  21035429.134   -15637907.42649 -12175739.97947  21035428.456    21035438.603
 03  4  3 19  3 30.0000000  0  6G17G24G30G 5G 6G10
  23786069.847    -7285512.49249  -5667973.69145  23786069.298    23786084.196
  22822486.143    11011743.17649   8573707.99146  22822485.992    22822497.391
  20247279.358   -12608331.68749  -9810412.06748  20247279.750    20247287.362
  21017664.317     1225472.56049    958360.28847  21017663.884    21017673.162
  21844559.482   -15044739.20449 -11572454.16747  21844559.436    21844569.150
  21031462.588   -15658752.21549 -12191982.65147  21031461.882    21031471.906
 03  4  3 19  4  0.0000000  0  6G17G24G30G 5G 6G10
  23770479.829    -7367437.46749  -5731811.12045  23770479.280    23770494.131
  22838149.117    11094052.82649   8637845.22946  22838149.058    22838160.482
  20246471.111   -12612579.39149  -9813721.99048  20246471.459    20246479.103
  21029892.854     1289733.29049   1008433.48947  21029892.408    21029901.677
  21833400.831   -15103377.94149 -11618146.64947  21833400.811    21833410.549
  21027614.773   -15678972.56449 -12207738.73947  21027614.056    21027624.084
 03  4  3 19  4 30.0000000  0  6G17G24G30G 5G 6G10
  23754926.065    -7449171.99249  -5795500.14645  23754925.547    23754940.211
  22853828.590    11176448.53849   8702049.52046  22853828.524    22853839.986
  20245774.137   -12616242.06049  -9816576.04348  20245774.522    20245782.193
  21042206.823     1354443.20649   1058856.69847  21042206.383    21042215.665
  21822263.442   -15161905.51949 -11663752.52247  21822263.381    21822273.046
  21023885.848   -15698568.14649 -12223008.00647  21023885.117    21023895.164
 03  4  3 19  5  0.0000000  0  6G17G24G30G 5G 6G10
  23739408.877    -7530714.66549  -5859039.68645  23739408.360    23739422.867
  22869524.259    11258928.78949   8766319.68046  22869524.137    22869535.635
  20245188.608   -12619318.96849  -9818973.65948  20245189.007    20245196.707
  21054605.930     1419600.75049   1109628.71247  21054605.510    21054614.824
  21811147.420   -15220320.89849 -11709270.96747  21811147.337    21811156.955
  21020275.942   -15717538.08149 -12237789.75547  21020275.216    21020285.286
 03  4  3 19  5 30.0000000  0  6G17G24G30G 5G 6G10
  23723928.251    -7612065.47849  -5922429.71945  23723927.687    23723942.132
  22885235.647    11341491.69349   8830654.25846  22885235.490    22885247.096
  20244714.666   -12621809.77749  -9820914.57548  20244715.055    20244722.785
  21067089.876     1485204.03949   1160748.06147  21067089.467    21067098.867
  21800052.844   -15278623.34649 -11754701.41647  21800052.767    21800062.333
  21016785.213   -15735881.71149 -12252083.47047  21016784.513    21016794.632
 03  4  3 19  6  0.0000000  0  6G17G24G30G 5G 6G10
  23708484.307    -7693223.36549  -5985669.43245  23708483.789    23708498.074
  22900962.375    11424135.86749   8895052.14846  22900962.293    22900973.974
  20244352.400   -12623713.75349  -9822398.21948  20244352.786    20244360.552
  21079658.371     1551251.50149   1212213.52047  21079657.936    21079667.408
  21788980.000   -15336811.73749 -11800042.99147  21788979.903    21788989.395
  21013413.956   -15753598.14649 -12265888.46047  21013413.237    21013423.283
 03  4  3 19  6 30.0000000  0  6G17G24G30G 5G 6G10
  23693077.314    -7774186.81649  -6048757.63645  23693076.794    23693091.024
  22916704.418    11506860.18249   8959512.48646  22916704.345    22916716.123
  20244101.971   -12625029.76049  -9823423.70648  20244102.360    20244110.186
  21092311.139     1617742.04049   1264024.22747  21092310.707    21092320.208
  21777929.116   -15394884.41549 -11845294.40147  21777928.994    21777938.483
  21010162.336   -15770685.56449 -12279203.31847  21010161.608    21010171.545
 03  4  3 19  7  0.0000000  0  6G17G24G30G 5G 6G10
  23677707.367    -7854956.32649  -6111694.71545  23677706.835    23677720.935
  22932461.295    11589661.97649   9024033.19946  22932461.197    22932472.983
  20243963.370   -12625758.34549  -9823991.46448  20243963.755    20243971.540
  21105047.746     1684672.90749   1316178.04347  21105047.319    21105056.796
  21766900.122   -15452841.45149 -11890455.70047  21766900.039    21766909.609
  21007030.359   -15787144.12449 -12292028.16047  21007029.636    21007039.529
 03  4  3 19  7 30.0000000  0  6G17G24G30G 5G 6G10
  23662374.544    -7935530.56349  -6174479.63946  23662373.990    23662388.017
  22948232.672    11672539.77649   9088613.14446  22948232.599    22948244.297
  20243936.627   -12625899.14249  -9824101.19648  20243936.994    20243944.738
  21117867.849     1752042.42549   1368673.66747  21117867.414    21117876.862
  21755893.357   -15510682.05249 -11935526.27047  21755893.318    21755902.918
  21004018.180   -15802973.33649 -12304362.59947  21004017.431    21004027.305
 03  4  3 19  8  0.0000000  0  6G17G24G30G 5G 6G10
  23647078.806    -8015909.33949  -6237112.24446  23647078.249    23647092.351
  22964018.128    11755491.80549   9153250.91246  22964017.961    22964029.725
  20244021.699   -12625451.80649  -9823752.64948  20244022.095    20244029.854
  21130771.031     1819848.54249   1421509.49647  21130770.602    21130780.102
  21744909.025   -15568405.34349 -11980505.43747  21744908.972    21744918.485
  21001125.794   -15818172.53249 -12316206.12447  21001125.054    21001134.902
 03  4  3 19  8 30.0000000  0  6G17G24G30G 5G 6G10
  23631820.572    -8096091.05149  -6299591.29146  23631820.021    23631834.237
  22979817.389    11838517.11149   9217945.79346  22979817.253    22979829.067
  20244218.963   -12624415.30849  -9822945.01248  20244219.369    20244227.084
  21143757.075     1888090.27549   1474684.77047  21143756.662    21143766.213
  21733947.328   -15626009.77349 -12025391.97147  21733947.241    21733956.645
  20998353.651   -15832740.04949 -12327557.43047  20998352.913    20998362.786
 03  4  3 19  9  0.0000000  0  6G17G24G30G 5G 6G10
  23616600.011    -8176075.14249  -6361916.35846  23616599.478    23616613.751
  22995630.250    11921614.19349   9282696.59146  22995630.156    22995642.053
  20244528.409   -12622789.07349  -9821677.83848  20244528.804    20244536.544
  21156825.810     1956766.24449   1528198.40347  21156825.364    21156834.895
  21723008.420   -15683494.09149 -12070184.91747  21723008.334    21723017.660
  20995701.860   -15846674.98949 -12338415.81747  20995701.099    20995711.068
 03  4  3 19  9 30.0000000  0  6G17G24G30G 5G 6G10
  23601417.214    -8255861.30649  -6424087.19546  23601416.629    23601430.844
  23011456.338    12004780.88449   9347501.64846  23011456.230    23011468.291
  20244950.098   -12620573.26949  -9819951.25948  20244950.492    20244958.182
  21169976.598     2025873.70849   1582048.26747  21169976.180    21169985.663
  21712092.531   -15740857.79549 -12114883.88347  21712092.451    21712101.694
  20993170.409   -15859977.30049 -12348781.25047  20993169.661    20993179.740
 03  4  3 19 10  0.0000000  0  6G17G24G30G 5G 6G10
  23586272.138    -8335448.88649  -6486103.30946  23586271.564    23586285.693
  23027295.368    12088015.58649   9412359.69146  23027295.225    23027307.484
  20245484.036   -12617767.72449  -9817765.14048  20245484.413    20245492.080
  21183209.223     2095410.99149   1636233.05347  21183208.800    21183218.255
  21701199.698   -15798099.91449 -12159488.10447  21701199.632    21701208.850
  20990759.432   -15872646.44549 -12358653.31247  20990758.740    20990768.864
 03  4  3 19 10 30.0000000  0  6G17G24G30G 5G 6G10
  23571164.953    -8414837.57749  -6547964.44846  23571164.472    23571178.267
  23043147.285    12171317.37249   9477270.01446  23043147.101    23043159.516
  20246130.236   -12614371.86849  -9815119.03648  20246130.615    20246138.323
  21196523.339     2165376.43049   1690751.46447  21196522.902    21196532.314
  21690330.286   -15855219.26149 -12203996.64647  21690330.207    21690339.428
  20988469.097   -15884681.94949 -12368031.62647  20988468.465    20988478.549
 03  4  3 19 11  0.0000000  0  6G17G24G30G 5G 6G10
  23556095.742    -8494026.86149  -6609670.21146  23556095.255    23556108.821
  23059011.532    12254683.58749   9542230.53246  23059011.338    23059023.831
  20246888.666   -12610386.38149  -9812013.48448  20246889.050    20246896.760
  21209918.287     2235767.20749   1745601.31047  21209917.849    21209927.296
  21679484.282   -15912215.67949 -12248409.40447  21679484.205    21679493.330
  20986299.468   -15896083.66049 -12376916.07747  20986298.808    20986308.830
 03  4  3 19 11 30.0000000  0  6G17G24G30G 5G 6G10
  23541064.499    -8573016.17049  -6671220.15946  23541064.021    23541077.515
  23074887.897    12338113.13349   9607240.40346  23074887.678    23074900.257
  20247759.478   -12605810.36949  -9808447.78448  20247759.858    20247767.632
  21223393.911     2306581.99049   1800781.55547  21223393.470    21223403.011
  21668661.895   -15969087.63449 -12292725.17547  21668661.798    21668670.900
  20984250.709   -15906850.54449 -12385305.85747  20984250.036    20984260.000
 03  4  3 19 12  0.0000000  0  6G17G24G30G 5G 6G10
  23526071.514    -8651804.22349  -6732613.28746  23526071.070    23526084.448
  23090776.046    12421604.92049   9672298.77046  23090775.808    23090788.436
  20248742.728   -12600643.39349  -9804421.59948  20248743.117    20248750.896
  21236949.851     2377819.28049   1856291.02547  21236949.446    21236959.132
  21657863.358   -16025833.72749 -12336942.87547  21657863.283    21657872.421
  20982322.875   -15916981.70049 -12393200.26747  20982322.180    20982332.134
 03  4  3 19 12 30.0000000  0  6G17G24G30G 5G 6G10
  23511116.868    -8730390.38949  -6793849.10046  23511116.443    23511129.758
  23106675.798    12505157.13449   9737404.22346  23106675.491    23106688.045
  20249838.490   -12594885.56049  -9799935.00748  20249838.878    20249846.572
  21250585.886     2449476.90649   1912128.03247  21250585.486    21250595.304
  21647088.942   -16082453.36349 -12381062.04047  21647088.892    21647098.018
  20980515.954   -15926476.92249 -12400599.14347  20980515.252    20980525.259
 03  4  3 19 13  0.0000000  0  6G17G24G30G 5G 6G10
  23496200.677    -8808774.37249  -6854927.38046  23496200.200    23496213.611
  23122586.585    12588768.12949   9802555.48446  23122586.316    23122598.820
  20251046.672   -12588536.78049  -9794987.93748  20251047.052    20251054.669
  21264301.573     2521552.90049   1968291.03247  21264301.150    21264311.055
  21636338.837   -16138945.53549 -12425081.87947  21636338.794    21636347.859
  20978830.140   -15935335.77349 -12407502.14747  20978829.459    20978839.503
 03  4  3 19 13 30.0000000  0  6G17G24G30G 5G 6G10
  23481323.143    -8886954.79549  -6915847.04746  23481322.689    23481336.203
  23138508.326    12672437.23949   9867752.02946  23138508.094    23138520.591
  20252367.499   -12581595.95849  -9789579.53848  20252367.877    20252375.457
  21278096.689     2594046.17149   2024779.18047  21278096.260    21278106.179
  21625613.256   -16195308.30649 -12469000.88747  21625613.200    21625622.280
  20977265.739   -15943557.14849 -12413908.41547  20977265.051    20977275.051
 03  4  3 19 14  0.0000000  0  6G17G24G30G 5G 6G10
  23466484.431    -8964931.51249  -6976607.98546  23466483.942    23466497.577
  23154440.798    12756162.06449   9932991.97146  23154440.514    23154453.044
  20253800.768   -12574064.04649  -9783710.54848  20253801.145    20253808.799
  21291970.624     2666953.62949   2081590.07047  21291970.195    21291980.108
  21614912.261   -16251541.72849 -12512819.09747  21614912.198    21614921.362
  20975822.531   -15951141.57349 -12419818.35747  20975821.831    20975831.781
 03  4  3 19 14 30.0000000  0  6G17G24G30G 5G 6G10
  23451684.288    -9042704.74449  -7037210.35546  23451683.808    23451697.592
  23170383.463    12839940.96549   9998274.05446  23170383.218    23170395.796
  20255346.511   -12565941.08849  -9777381.00448  20255346.905    20255354.633
  21305922.971     2740273.11349   2138722.02447  21305922.517    21305932.428
  21604236.051   -16307644.93049 -12556535.84347  21604236.019    21604245.287
  20974500.494   -15958088.70549 -12425231.71047  20974499.756    20974509.735
 03  4  3 19 15  0.0000000  0  6G17G24G30G 5G 6G10
  23436923.312    -9120272.67549  -7097652.76146  23436922.826    23436936.771
  23186336.158    12923772.93249  10063597.51046  23186335.924    23186348.585
  20257004.889   -12557226.34949  -9770590.33548  20257005.267    20257013.082
  21319953.477     2814003.52549   2196174.18047  21319953.043    21319962.982
  21593585.003   -16363615.99649 -12600149.62747  21593584.992    21593594.324
  20973299.969   -15964397.52049 -12430147.67247  20973299.267    20973309.189
 03  4  3 19 15 30.0000000  0  6G17G24G30G 5G 6G10
  23422201.442    -9197635.47349  -7157935.33046  23422200.958    23422214.922
  23202298.505    13007655.63749  10128960.49846  23202298.333    23202311.170
  20258775.732   -12547920.45549  -9763339.02448  20258776.141    20258784.052
  21334061.688     2888142.18149   2253944.44747  21334061.267    21334071.220
  21582959.230   -16419454.61249 -12643660.20347  21582959.228    21582968.575
  20972220.846   -15970068.41049 -12434566.54347  20972220.104    20972230.046
 03  4  3 19 16  0.0000000  0  6G17G24G30G 5G 6G10
  23407518.737    -9274792.51749  -7218057.56746  23407518.253    23407532.269
  23218270.475    13091588.33849  10194362.42846  23218270.286    23218283.287
  20260659.244   -12538022.98349  -9755626.75248  20260659.637    20260667.556
  21348247.222     2962687.39249   2312031.50847  21348246.816    21348256.806
  21572358.935   -16475159.49849 -12687066.58247  21572358.917    21572368.268
  20971263.366   -15975100.54349 -12438487.69147  20971262.617    20971272.508
 03  4  3 19 16 30.0000000  0  6G17G24G30G 5G 6G10
  23392875.241    -9351743.49549  -7278019.22146  23392874.810    23392888.812
  23234251.577    13175569.07549  10259801.77845  23234251.432    23234264.517
  20262655.099   -12527534.89249  -9747454.25448  20262655.456    20262663.371
  21362509.644     3037636.18349   2370433.05347  21362509.222    21362519.191
  21561784.215   -16530730.28149 -12730368.46447  21561784.168    21561793.506
  20970427.223   -15979494.95349 -12441911.90347  20970426.456    20970436.339
 03  4  3 19 17  0.0000000  0  6G17G24G30G 5G 6G10
  23378271.034    -9428488.25049  -7337820.20746  23378270.601    23378284.600
  23250241.488    13259596.13449  10325277.24345  23250241.323    23250254.583
  20264763.246   -12516456.11949  -9738821.48448  20264763.616    20264771.582
  21376848.535     3112986.73649   2429147.65547  21376848.066    21376858.057
  21551235.152   -16586165.93549 -12773565.04947  21551235.100    21551244.411
  20969712.390   -15983251.30649 -12444838.92447  20969711.621    20969721.602
 03  4  3 19 17 30.0000000  0  6G17G24G30G 5G 6G10
  23363706.323    -9505026.40949  -7397460.20246  23363705.843    23363719.710
  23266239.708    13343667.45149  10390787.17545  23266239.597    23266253.019
  20266983.779   -12504786.94349  -9729728.66048  20266984.159    20266992.189
  21391263.359     3188736.95949   2488173.68547  21391262.917    21391273.016
  21540711.953   -16641465.56549 -12816655.64547  21540711.916    21540721.219
  20969118.946   -15986369.34449 -12447268.56747  20969118.232    20969128.333
 03  4  3 19 18  0.0000000  0  6G17G24G30G 5G 6G10
  23349181.043    -9581357.24949  -7456938.64046  23349180.519    23349194.258
  23282246.141    13427781.95749  10456330.77345  23282246.027    23282259.613
  20269316.658   -12492527.46949  -9720175.86448  20269317.064    20269325.137
  21405753.852     3264884.70349   2547509.46947  21405753.435    21405763.606
  21530214.929   -16696627.88649 -12859639.24447  21530214.902    21530224.176
  20968647.012   -15988849.03449 -12449200.78847  20968646.348    20968656.478
 03  4  3 19 18 30.0000000  0  6G17G24G30G 5G 6G10
  23334695.322    -9657479.52749  -7516254.57446  23334694.797    23334708.393
  23298260.581    13511938.89649  10521907.43045  23298260.489    23298274.274
  20271762.078   -12479676.92949  -9710162.49648  20271762.481    20271770.554
  21420319.728     3341428.46949   2607153.84547  21420319.301    21420329.485
  21519744.441   -16751651.03249 -12902514.39847  21519744.421    21519753.669
  20968296.836   -15990689.49349 -12450634.90947  20968296.121    20968306.300
 03  4  3 19 19  0.0000000  0  6G17G24G30G 5G 6G10
  23320249.469    -9733392.44649  -7575407.38146  23320248.948    23320262.440
  23314283.074    13596137.23549  10587516.35145  23314282.947    23314296.893
  20274319.968   -12466235.32949  -9699688.56448  20274320.360    20274328.503
  21434960.590     3418366.58449   2667105.49947  21434960.186    21434970.419
  21509300.649   -16806533.63349 -12945280.03047  21509300.611    21509309.905
  20968068.339   -15991890.15349 -12451570.48947  20968067.659    20968077.827
 03  4  3 19 19 30.0000000  0  6G17G24G30G 5G 6G10
  23305843.504    -9809096.27349  -7634397.25346  23305842.991    23305856.350
  23330313.121    13680375.01849  10653156.00645  23330312.980    23330326.981
  20276990.195   -12452203.42349  -9688754.65348  20276990.591    20276998.753
  21449676.034     3495696.28849   2727362.28747  21449675.638    21449685.929
  21498883.614   -16861275.34749 -12987935.88347  21498883.563    21498892.956
  20967961.539   -15992451.65249 -12452008.01847  20967960.853    20967970.938
 03  4  3 19 20  0.0000000  0  6G17G24G30G 5G 6G10
  23291477.399    -9884590.97849  -7693224.18246  23291476.896    23291490.119
  23346350.396    13764650.25849  10718824.84845  23346350.178    23346364.176
  20279772.646   -12437581.67249  -9677361.11948  20279773.055    20279781.228
  21464465.579     3573415.07549   2787922.26447  21464465.150    21464475.495
  21488493.577   -16915875.53549 -13030481.45147  21488493.515    21488502.934
  20967976.206   -15992374.37049 -12451947.78847  20967975.493    20967985.560
 03  4  3 19 20 30.0000000  0  6G17G24G30G 5G 6G10
  23277151.165    -9959875.85449  -7751887.62946  23277150.704    23277163.813
  23362394.549    13848961.70149  10784521.88045  23362394.401    23362408.323
  20282667.283   -12422370.57749  -9665508.36348  20282667.681    20282675.790
  21479328.711     3651520.85949   2848783.79447  21479328.280    21479338.687
  21478130.582   -16970333.09049 -13072915.87847  21478130.530    21478139.929
  20968112.417   -15991658.20849 -12451389.73847  20968111.758    20968121.845
 03  4  3 19 21  0.0000000  0  6G17G24G30G 5G 6G10
  23262865.123   -10034949.69349  -7810386.61646  23262864.674    23262877.712
  23378445.398    13933308.28249  10850246.29645  23378445.258    23378459.175
  20285674.138   -12406569.78749  -9653196.11048  20285674.530    20285682.598
  21494265.133     3730012.04849   2909945.63647  21494264.710    21494275.172
  21467795.090   -17024646.27749 -13115237.81247  21467795.055    21467804.442
  20968370.360   -15990302.93049 -12450333.68647  20968369.690    20968379.698
 03  4  3 19 21 30.0000000  0  6G17G24G30G 5G 6G10
  23248619.224   -10109812.77549  -7868721.38046  23248618.746    23248631.699
  23394502.506    14017688.22549  10915996.73245  23394502.392    23394516.262
  20288792.997   -12390179.94749  -9640424.85048  20288793.411    20288801.474
  21509274.391     3808885.90149   2971405.65847  21509273.989    21509284.525
  21457487.205   -17078814.31649 -13157446.63947  21457487.191    21457496.567
  20968749.871   -15988308.69449 -12448779.73147  20968749.147    20968759.126
 03  4  3 19 22  0.0000000  0  6G17G24G30G 5G 6G10
  23234413.629   -10184463.61349  -7926890.75746  23234413.110    23234426.087
  23410565.718    14102100.73849  10981772.54845  23410565.712    23410579.566
  20292024.144   -12373200.69849  -9627194.31848  20292024.543    20292032.564
  21524356.205     3888140.99549   3033162.74447  21524355.808    21524366.384
  21447207.277   -17132835.51949 -13199541.04547  21447207.258    21447216.644
  20969250.910   -15985675.17749 -12446727.64447  20969250.200    20969260.207
 03  4  3 19 22 30.0000000  0  6G17G24G30G 5G 6G10
  23220248.357   -10258901.94249  -7984894.56046  23220247.857    23220260.787
  23426635.032    14186544.96949  11047573.06445  23426635.077    23426648.998
  20295367.337   -12355632.34849  -9613504.74448  20295367.719    20295375.760
  21539510.257     3967775.24449   3095215.27747  21539509.837    21539520.344
  21436955.449   -17186708.78049 -13241520.17647  21436955.425    21436964.809
  20969873.749   -15982402.27549 -12444177.33247  20969873.039    20969883.006
 03  4  3 19 23  0.0000000  0  6G17G24G30G 5G 6G10
  23206123.378   -10333127.92449  -8042732.89646  23206122.876    23206135.907
  23442710.091    14271018.49749  11113396.40745  23442710.029    23442723.915
  20298822.425   -12337476.02649  -9599357.01048  20298822.817    20298830.872
  21554735.852     4047785.57749   3157560.86047  21554735.427    21554745.915
  21426731.858   -17240433.57849 -13283383.62547  21426731.872    21426741.261
  20970617.979   -15978491.24949 -12441129.77247  20970617.254    20970627.238
 03  4  3 19 23 30.0000000  0  6G17G24G30G 5G 6G10
  23192039.095   -10407139.86049  -8100404.43846  23192038.676    23192051.849
  23458790.588    14355521.32149  11179242.57945  23458790.547    23458804.445
  20302389.640   -12318730.73049  -9584750.33348  20302390.018    20302398.063
  21570032.917     4128171.44949   3220199.07447  21570032.487    21570042.992
  21416537.075   -17294007.21649 -13325129.28247  21416537.050    21416546.432
  20971483.887   -15973940.54449 -12437583.76447  20971483.204    20971493.209
 03  4  3 19 24  0.0000000  0  6G17G24G30G 5G 6G10
  23177995.565   -10480938.49649  -8157909.78746  23177995.088    23178008.377
  23474876.040    14440050.50749  11245109.28645  23474876.111    23474889.946
  20306068.493   -12299398.17949  -9569686.06648  20306068.871    20306076.920
  21585400.723     4208929.23949   3283127.08247  21585400.288    21585410.775
  21406371.032   -17347430.00849 -13366757.41447  21406371.038    21406380.314
  20972471.341   -15968751.68649 -12433540.50247  20972470.691    20972480.676
 03  4  3 19 24 30.0000000  0  6G17G24G30G 5G 6G10
  23163992.717   -10554523.56249  -8215248.70346  23163992.282    23164005.470
  23490966.507    14524605.23349  11310995.89345  23490966.532    23490980.141
  20309859.023   -12279478.99149  -9554164.67148  20309859.437    20309867.445
  21600838.908     4290056.69549   3346343.14947  21600838.450    21600848.932
  21396233.937   -17400700.90749 -13408267.17447  21396233.945    21396243.117
  20973580.170   -15962924.98149 -12429000.20447  20973579.473    20973589.487
 03  4  3 19 25  0.0000000  0  6G17G24G30G 5G 6G10
  23150030.680   -10627894.52949  -8272420.79746  23150030.198    23150043.343
  23507061.631    14609184.09449  11376901.31445  23507061.660    23507075.093
  20313761.200   -12258973.39349  -9538186.33248  20313761.585    20313769.604
  21616346.926     4371551.59349   3409845.53247  21616346.515    21616357.030
  21386126.087   -17453818.55949 -13449657.52847  21386126.053    21386135.135
  20974810.330   -15956460.54449 -12423962.97047  20974809.651    20974819.660
 03  4  3 19 25 30.0000000  0  6G17G24G30G 5G 6G10
  23136109.328   -10701051.19649  -8329425.91146  23136108.845    23136121.988
  23523161.101    14693785.58949  11442824.36045  23523161.114    23523174.286
  20317774.773   -12237882.22449  -9521751.70548  20317775.147    20317783.171
  21631924.420     4453411.20349   3473632.10047  21631923.981    21631934.585
  21376047.426   -17506782.27149 -13490927.92947  21376047.390    21376056.442
  20976161.736   -15949359.19449 -12418429.44247  20976161.036    20976171.030
 03  4  3 19 26  0.0000000  0  6G17G24G30G 5G 6G10
  23122228.965   -10773992.83449  -8386263.47246  23122228.574    23122241.656
  23539264.706    14778408.39249  11508764.00645  23539264.675    23539277.593
  20321899.759   -12216205.58849  -9504860.87348  20321900.131    20321908.102
  21647570.948     4535633.96349   3537701.64447  21647570.529    21647581.235
  21365998.388   -17559590.19149 -13532076.93747  21365998.387    21366007.404
  20977634.380   -15941620.73649 -12412399.46947  20977633.656    20977643.664
 03  4  3 19 26 30.0000000  0  6G17G24G30G 5G 6G10
  23108389.695   -10846719.53949  -8442933.53746  23108389.294    23108402.173
  23555371.810    14863050.32149  11574718.56645  23555371.855    23555384.546
  20326135.900   -12193944.80649  -9487514.85848  20326136.279    20326144.254
  21663286.036     4618216.72949   3602051.71647  21663285.639    21663296.405
  21355979.174   -17612242.00449 -13573104.29347  21355979.133    21355988.128
  20979227.898   -15933246.46049 -12405874.05347  20979227.203    20979237.263
 03  4  3 19 27  0.0000000  0  6G17G24G30G 5G 6G10
  23094591.445   -10919230.61749  -8499435.58146  23094590.938    23094603.655
  23571482.641    14947711.47849  11640688.10245  23571482.652    23571495.370
  20330483.230   -12171099.48949  -9469713.36648  20330483.599    20330491.606
  21679069.467     4701157.92849   3666681.07947  21679069.032    21679079.770
  21345989.938   -17664735.82849 -13614008.55747  21345989.869    21345998.855
  20980942.563   -15924235.94849 -12398852.87147  20980941.856    20980951.829
 03  4  3 19 27 30.0000000  0  6G17G24G30G 5G 6G10
  23080834.138   -10991525.68049  -8555769.30746  23080833.622    23080846.241
  23587596.689    15032390.16249  11706671.29645  23587596.567    23587609.428
  20334941.567   -12147670.59049  -9451457.13148  20334941.943    20334950.063
  21694920.601     4784454.95549   3731587.71347  21694920.139    21694930.846
  21336030.887   -17717070.69049 -13654788.93447  21336030.833    21336039.873
  20982778.247   -15914589.57749 -12391336.21647  20982777.486    20982787.424
 03  4  3 19 28  0.0000000  0  6G17G24G30G 5G 6G10
  23067118.117   -11063603.14149  -8611933.46746  23067117.627    23067130.270
  23603713.807    15117085.88149  11772667.77145  23603713.649    23603726.761
  20339510.981   -12123657.87249  -9432745.96848  20339511.409    20339519.642
  21710839.102     4868106.66449   3796770.71547  21710838.659    21710849.334
  21326102.479   -17769244.35249 -13695443.70347  21326102.437    21326111.540
  20984734.847   -15904307.24449 -12383324.02047  20984734.131    20984744.058
 03  4  3 19 28 30.0000000  0  6G17G24G30G 5G 6G10
  23053443.407   -11135463.37549  -8667928.35646  23053442.953    23053455.644
  23619833.885    15201797.07949  11838676.29745  23619833.789    23619846.985
  20344191.500   -12099062.19749  -9413580.55948  20344191.909    20344200.179
  21726824.684     4952110.60549   3862228.18347  21726824.232    21726834.889
  21316204.921   -17821256.10149 -13735972.30947  21316204.898    21316213.996
  20986812.431   -15893389.20449 -12374816.46547  20986811.703    20986821.635
 03  4  3 19 29  0.0000000  0  6G17G24G30G 5G 6G10
  23039810.342   -11207105.29949  -8723753.13246  23039809.892    23039822.563
  23635956.724    15286523.06549  11904696.36645  23635956.697    23635969.990
  20348982.854   -12073883.92249  -9393961.17548  20348983.242    20348991.530
  21742876.733     5036464.66749   3927958.47647  21742876.280    21742887.022
  21306338.546   -17873104.23449 -13776373.41547  21306338.499    21306347.544
  20989010.909   -15881835.91349 -12365813.91347  20989010.161    20989020.109
 03  4  3 19 29 30.0000000  0  6G17G24G30G 5G 6G10
  23026218.850   -11278528.87049  -8779407.76946  23026218.391    23026231.065
  23652082.111    15371262.18549  11970726.67245  23652082.124    23652095.614
  20353884.910   -12048123.76649  -9373888.38448  20353885.278    20353893.552
  21758994.920     5121166.42049   3993959.69647  21758994.482    21759005.365
  21296503.548   -17924787.67349 -13816646.18947  21296503.497    21296512.523
  20991330.173   -15869648.10549 -12356316.94547  20991329.445    20991339.414
 03  4  3 19 30  0.0000000  0  6G17G24G30G 5G 6G10
  23012668.985   -11349733.94749  -8834892.15046  23012668.491    23012681.106
  23668209.505    15456012.96649  12036766.05345  23668209.570    23668223.333
  20358897.477   -12021782.67449  -9353362.90748  20358897.858    20358906.166
  21775178.766     5206213.22149   4060229.78547  21775178.358    21775189.389
  21286700.011   -17976305.41849 -13856789.85547  21286699.954    21286709.009
  20993770.077   -15856826.49349 -12346326.10447  20993769.306    20993779.294
 03  4  3 19 30 30.0000000  0  6G17G24G30G 5G 6G10
  22999160.662   -11420720.38849  -8890206.17746  22999160.133    22999172.607
  23684338.894    15540774.02349  12102813.43145  23684338.943    23684353.040
  20364020.356   -11994861.88949  -9332385.71848  20364020.712    20364029.118
  21791427.811     5291602.37949   4126766.64947  21791427.359    21791438.555
  21276928.183   -18027656.54249 -13896803.68247  21276928.129    21276937.223
  20996330.382   -15843372.00149 -12335842.10247  20996329.604    20996339.623
 03  4  3 19 31  0.0000000  0  6G17G24G30G 5G 6G10
  22985693.827   -11491488.31949  -8945349.93546  22985693.336    22985705.633
  23700470.170    15625544.01649  12168867.76845  23700470.166    23700484.393
  20369253.341   -11967362.35849  -9310957.56848  20369253.719    20369262.164
  21807741.495     5377331.19849   4193568.17847  21807741.065    21807752.381
  21267188.230   -18078840.22849 -13936687.05047  21267188.162    21267197.289
  20999010.936   -15829285.48049 -12324865.61847  20999010.168    20999020.272
 03  4  3 19 31 30.0000000  0  6G17G24G30G 5G 6G10
  22972268.782   -11562036.75049  -9000322.65746  22972268.330    22972280.478
  23716603.000    15710322.37049  12234928.63945  23716603.057    23716617.440
  20374596.492   -11939284.24649  -9289078.57048  20374596.870    20374605.267
  21824119.530     5463397.91649   4260633.00747  21824119.086    21824130.491
  21257480.474   -18129854.55049 -13976438.44847  21257480.403    21257489.536
  21001811.735   -15814566.97349 -12313396.67247  21001810.989    21001821.177
 03  4  3 19 32  0.0000000  0  6G17G24G30G 5G 6G10
  22958885.532   -11632366.12249  -9055124.69346  22958885.055    22958897.128
  23732736.991    15795106.88349  12300994.29945  23732737.177    23732751.615
  20380049.480   -11910628.96649  -9266749.83548  20380049.845    20380058.164
  21840561.402     5549799.69049   4327958.90847  21840560.944    21840572.327
  21247805.034   -18180698.95749 -14016057.44447  21247804.971    21247814.133
  21004732.615   -15799217.92949 -12301436.40547  21004731.886    21004742.051
 03  4  3 19 32 30.0000000  0  6G17G24G30G 5G 6G10
  22945543.924   -11702476.05849  -9109755.72646  22945543.431    22945555.587
  23748872.133    15879896.20549  12367063.70145  23748872.287    23748886.694
  20385612.069   -11881397.42149  -9243972.05848  20385612.464    20385620.738
  21857066.572     5636534.12449   4395544.02947  21857066.098    21857077.396
  21238162.218   -18231372.14749 -14055543.01847  21238162.166    21238171.365
  21007773.468   -15783238.99049 -12288985.31347  21007772.711    21007782.776
 03  4  3 19 33  0.0000000  0  6G17G24G30G 5G 6G10
  22932244.094   -11772365.67149  -9164215.10146  22932243.609    22932255.985
  23765008.026    15964689.88449  12433136.49245  23765008.077    23765022.718
  20391284.216   -11851590.27349  -9220745.76548  20391284.617    20391292.878
  21873634.572     5723599.08749   4463386.69547  21873634.098    21873645.372
  21228552.291   -18281872.51949 -14094893.93047  21228552.259    21228561.450
  21010934.048   -15766630.43949 -12276043.61747  21010933.283    21010943.267
 03  4  3 19 33 30.0000000  0  6G17G24G30G 5G 6G10
  22918986.256   -11842034.77049  -9218502.64246  22918985.826    22918998.346
  23781144.286    16049486.70749  12499211.72845  23781144.467    23781159.198
  20397065.848   -11821207.99949  -9197071.32048  20397066.225    20397074.546
  21890265.092     5810992.48249   4531485.28347  21890264.645    21890275.902
  21218975.616   -18332198.56649 -14134109.01047  21218975.549    21218984.729
  21014214.309   -15749392.73149 -12262611.67047  21014213.552    21014223.451
 03  4  3 19 34  0.0000000  0  6G17G24G30G 5G 6G10
  22905770.661   -11911483.04049  -9272618.11646  22905770.176    22905782.762
  23797281.058    16134285.76749  12565288.71945  23797281.056    23797296.090
  20402956.721   -11790251.51449  -9172949.44148  20402957.107    20402965.419
  21906957.679     5898711.86349   4599837.88247  21906957.239    21906968.501
  21209432.259   -18382349.06049 -14173187.29247  21209432.196    21209441.438
  21017614.170   -15731526.75749 -12248690.17147  21017613.419    21017623.213
 03  4  3 19 34 30.0000000  0  6G17G24G30G 5G 6G10
  22892597.101   -11980710.03149  -9326561.17346  22892596.606    22892609.281
  23813418.122    16219085.84549  12631366.47445  23813417.953    23813433.127
  20408956.674   -11758721.76649  -9148380.85948  20408957.063    20408965.424
  21923711.789     5986754.78249   4668442.59147  21923711.360    21923722.612
  21199922.543   -18432322.71549 -14212127.78347  21199922.489    21199931.766
  21021133.391   -15713033.36849 -12234279.77147  21021132.633    21021142.362
 03  4  3 19 35  0.0000000  0  6G17G24G30G 5G 6G10
  22879465.427   -12049716.63449  -9380332.50046  22879464.956    22879477.794
  23829555.060    16303884.51449  12697443.15845  23829554.762    23829569.892
  20415065.336   -11726620.82649  -9123367.19248  20415065.724    20415074.162
  21940526.806     6075117.64849   4737296.60547  21940526.369    21940537.652
  21190446.577   -18482119.41049 -14250930.38747  21190446.519    21190455.758
  21024771.514   -15693914.47249 -12219381.95647  21024770.754    21024780.541
 03  4  3 19 35 30.0000000  0  6G17G24G30G 5G 6G10
  22866376.055   -12118501.64149  -9433931.15546  22866375.617    22866388.510
  23845691.661    16388682.09249  12763519.00245  23845691.511    23845706.309
  20421282.726   -11693948.52749  -9097908.31748  20421283.100    20421291.574
  21957402.432     6163799.26249   4806398.99147  21957402.036    21957413.341
  21181004.726   -18531736.70049 -14289593.19347  21181004.666    21181013.884
  21028528.758   -15674169.85849 -12203996.57747  21028528.013    21028537.904
 03  4  3 19 36  0.0000000  0  6G17G24G30G 5G 6G10
  22853328.831   -12187065.45349  -9487357.45846  22853328.350    22853341.195
  23861827.644    16473476.48349  12829592.32545  23861827.391    23861842.226
  20427608.468   -11660706.72349  -9072005.67248  20427608.841    20427617.311
  21974338.196     6252796.43849   4875747.26847  21974337.782    21974349.133
  21171597.154   -18581173.99749 -14328115.74647  21171597.098    21171606.265
  21032404.762   -15653801.32049 -12188125.02147  21032404.020    21032413.998
 03  4  3 19 36 30.0000000  0  6G17G24G30G 5G 6G10
  22840323.891   -12255406.60149  -9540610.25346  22840323.413    22840336.225
  23877962.757    16558267.55049  12895663.08045  23877962.779    23877977.384
  20434042.619   -11626895.46149  -9045659.29648  20434042.976    20434051.434
  21991333.729     6342107.69249   4945340.28147  21991333.316    21991344.715
  21162224.328   -18630428.91349 -14366496.18047  21162224.247    21162233.343
  21036399.599   -15632808.61249 -12171767.09547  21036398.834    21036408.844
 03  4  3 19 37  0.0000000  0  6G17G24G30G 5G 6G10
  22827361.355   -12323525.49249  -9593689.86146  22827360.857    22827373.544
  23894097.236    16643053.92949  12961730.17145  23894097.271    23894111.778
  20440584.827   -11592516.15949  -9018870.28848  20440585.207    20440593.686
  22008388.500     6431730.34249   5015175.93347  22008388.100    22008399.575
  21152886.290   -18679500.63849 -14404733.87047  21152886.221    21152895.254
  21040512.899   -15611192.96349 -12154923.76147  21040512.127    21040522.253
 03  4  3 19 37 30.0000000  0  6G17G24G30G 5G 6G10
  22814440.883   -12391423.26649  -9646597.17646  22814440.371    22814452.888
  23910230.520    16727833.13249  13027791.67745  23910230.512    23910244.941
  20447234.733   -11557571.17149  -8991640.49848  20447235.103    20447243.535
  22025501.635     6521660.34949   5085251.08247  22025501.263    22025512.887
  21143583.082   -18728389.17449 -14442828.82047  21143583.032    21143592.057
  21044744.355   -15588956.74549 -12137596.87847  21044743.597    21044753.695
 03  4  3 19 38  0.0000000  0  6G17G24G30G 5G 6G10
  22801562.917   -12459097.86349  -9699330.57846  22801562.397    22801574.687
  23926362.438    16812605.30849  13093847.72845  23926362.364    23926376.815
  20453992.336   -11522060.29449  -8963969.75248  20453992.685    20454001.109
  22042673.134     6611896.67249   5155564.91347  22042672.775    22042684.491
  21134315.333   -18777091.76149 -14480778.87347  21134315.248    21134324.254
  21049094.095   -15566099.61749 -12119786.16447  21049093.316    21049103.324
 03  4  3 19 38 30.0000000  0  6G17G24G30G 5G 6G10
  22788727.357   -12526549.45849  -9751890.21146  22788726.833    22788739.010
  23942492.909    16897369.41649  13159897.48145  23942492.677    23942507.213
  20460857.345   -11485984.73049  -8935858.98848  20460857.703    20460866.114
  22059902.518     6702436.77049   5226115.45447  22059902.117    22059913.875
  21125083.149   -18825607.15549 -14518583.05547  21125083.049    21125092.082
  21053561.634   -15542622.83349 -12101492.60347  21053560.823    21053570.871
 03  4  3 19 39  0.0000000  0  6G17G24G30G 5G 6G10
  22775934.198   -12593777.93049  -9804275.97246  22775933.689    22775945.833
  23958621.442    16982124.17249  13225939.94345  23958621.251    23958635.636
  20467829.586   -11449345.75349  -8907309.19648  20467829.946    20467838.279
  22077189.266     6793278.04549   5296900.68047  22077188.820    22077200.625
  21115886.736   -18873934.25349 -14556240.51647  21115886.666    21115895.689
  21058146.784   -15518527.44249 -12082717.01047  21058146.019    21058156.187
 03  4  3 19 39 30.0000000  0  6G17G24G30G 5G 6G10
  22763183.579   -12660783.00849  -9856487.65946  22763183.056    22763195.150
  23974747.977    17066868.52649  13291974.29745  23974747.747    23974762.135
  20474908.828   -11412144.56049  -8878321.32248  20474909.185    20474917.433
  22094532.801     6884417.87549   5367918.54247  22094532.333    22094544.190
  21106726.488   -18922071.69049 -14593750.18147  21106726.417    21106735.416
  21062849.432   -15493814.68449 -12063460.35547  21062848.703    21062858.922
 03  4  3 19 40  0.0000000  0  6G17G24G30G 5G 6G10
  22750475.367   -12727564.86149  -9908525.39646  22750474.874    22750486.888
  23990872.397    17151601.58049  13357999.85245  23990872.125    23990886.463
  20482094.832   -11374382.16049  -8848896.14448  20482095.190    20482103.414
  22111932.712     6975853.97249   5439167.25847  22111932.228    22111944.113
  21097602.535   -18970017.94149 -14631110.86947  21097602.464    21097611.489
  21067669.425   -15468485.42549 -12043723.30947  21067668.676    21067678.994
 03  4  3 19 40 30.0000000  0  6G17G24G30G 5G 6G10
  22737809.989   -12794121.88049  -9960387.93846  22737809.502    22737821.534
  24006994.641    17236323.37949  13424016.65545  24006994.343    24007008.702
  20489387.596   -11336058.70249  -8819033.77848  20489387.952    20489396.171
  22129388.603     7067585.01949   5510645.80547  22129388.173    22129400.097
  21088515.498   -19017770.59149 -14668320.70447  21088515.435    21088524.355
  21072606.791   -15442539.58849 -12023505.81347  21072606.028    21072616.384
 03  4  3 19 41  0.0000000  0  6G17G24G30G 5G 6G10
  22725187.131   -12860455.38849 -10012076.31046  22725186.601    22725198.643
  24023114.138    17321031.18449  13490022.55245  24023113.904    24023128.316
  20496786.562   -11297177.25749  -8788736.61348  20496786.900    20496795.118
  22146899.933     7159606.87449   5582350.95847  22146899.520    22146911.473
  21079465.216   -19065330.12149 -14705380.05647  21079465.140    21079473.978
  21077660.913   -15415979.99749 -12002810.06747  21077660.189    21077670.540
 03  4  3 19 41 30.0000000  0  6G17G24G30G 5G 6G10
  22712607.124   -12926563.76749 -10063589.25846  22712606.629    22712618.604
  24039230.949    17405725.36949  13556017.82945  24039230.737    24039245.378
  20504291.634   -11257737.74049  -8758004.59248  20504291.994    20504300.246
  22164466.407     7251918.17349   5654281.65347  22164465.979    22164477.919
  21070452.153   -19112693.96449 -14742286.91947  21070452.099    21070460.903
  21082831.777   -15388806.80649 -11981636.19447  21082831.080    21082841.446
 03  4  3 19 42  0.0000000  0  6G17G24G30G 5G 6G10
  22700069.810   -12992447.91849 -10114927.48746  22700069.279    22700081.209
  24055344.775    17490403.92249  13622000.93445  24055344.591    24055359.411
  20511902.597   -11217742.18049  -8726839.29648  20511902.955    20511911.243
  22182087.328     7344515.80349   5726435.45447  22182086.900    22182098.813
  21061476.515   -19159861.49649 -14779040.81447  21061476.443    21061485.259
  21088119.082   -15361021.85149 -11959985.62247  21088118.409    21088128.766
 03  4  3 19 42 30.0000000  0  6G17G24G30G 5G 6G10
  22687575.139   -13058107.24949 -10166090.51946  22687574.639    22687586.652
  24071455.495    17575065.78149  13687971.02645  24071455.468    24071470.291
  20519619.110   -11177191.59449  -8695241.51348  20519619.473    20519627.830
  22199762.319     7437397.34449   5798810.48347  22199761.894    22199773.745
  21052538.494   -19206831.08049 -14815640.47047  21052538.411    21052547.273
  21093522.721   -15332626.14349 -11937859.12847  21093522.018    21093532.355
 03  4  3 19 43  0.0000000  0  6G17G24G30G 5G 6G10
  22675123.293   -13123541.76149 -10217078.36746  22675122.789    22675134.865
  24087563.149    17659710.59849  13753927.80945  24087562.976    24087577.718
  20527441.005   -11136087.29349  -8663212.25748  20527441.358    20527449.789
  22217490.892     7530560.38249   5871404.85447  22217490.471    22217502.256
  21043638.419   -19253601.19349 -14852084.69047  21043638.332    21043647.197
  21099042.229   -15303621.14849 -11915257.88147  21099041.527    21099051.811
 03  4  3 19 43 30.0000000  0  6G17G24G30G 5G 6G10
  22662714.187   -13188751.65249 -10267891.18446  22662713.650    22662725.767
  24103667.166    17744336.68349  13819870.01445  24103667.019    24103681.543
  20535367.889   -11094431.26549  -8630753.08648  20535368.250    20535376.661
  22235272.374     7624001.66749   5944216.04246  22235271.921    22235283.653
  21034776.428   -19300171.13949 -14888372.93447  21034776.347    21034785.192
  21104677.386   -15274008.61849 -11892183.21947  21104676.686    21104686.891
 03  4  3 19 44  0.0000000  0  6G17G24G30G 5G 6G10
  22650347.958   -13253735.79449 -10318528.09046  22650347.471    22650359.617
  24119767.390    17828943.75249  13885797.37045  24119767.212    24119781.970
  20543399.787   -11052223.84749  -8597864.26548  20543400.150    20543408.524
  22253106.429     7717719.83849   6017242.98846  22253105.995    22253117.763
  21025953.025   -19346538.42849 -14924503.26947  21025952.936    21025961.718
  21110428.149   -15243788.74749 -11868635.30747  21110427.405    21110437.534
 03  4  3 19 44 30.0000000  0  6G17G24G30G 5G 6G10
  22638024.691   -13318494.35149 -10368989.21146  22638024.232    22638036.378
  24135863.594    17913530.81149  13951709.16845  24135863.609    24135878.411
  20551536.315   -11009466.61049  -8564547.00948  20551536.687    20551545.040
  22270992.650     7811712.13249   6090483.54246  22270992.203    22271004.089
  21017168.359   -19392701.91949 -14960474.80047  21017168.277    21017177.034
  21116294.132   -15212962.84949 -11844615.17547  21116293.404    21116303.542
 03  4  3 19 45  0.0000000  0  6G17G24G30G 5G 6G10
  22625744.602   -13383026.48449 -10419273.90446  22625744.143    22625756.268
  24151955.904    17998097.51349  14017605.09645  24151955.860    24151971.101
  20559777.293   -10966160.36249  -8530801.95548  20559777.662    20559786.034
  22288930.570     7905976.60349   6163936.17946  22288930.164    22288942.197
  21008422.887   -19438659.64349 -14996285.99547  21008422.782    21008431.569
  21122275.213   -15181532.15649 -11820123.76647  21122274.494    21122284.617
 03  4  3 19 45 30.0000000  0  6G17G24G30G 5G 6G10
  22613507.469   -13447332.72349 -10469382.57846  22613507.025    22613519.057
  24168044.027    18082642.17749  14083483.85145  24168043.892    24168059.780
  20568122.326   -10922307.13149  -8496630.68548  20568122.685    20568131.147
  22306919.731     8000510.09849   6237598.43646  22306919.371    22306931.483
  20999716.684   -19484410.74149 -15031936.18647  20999716.609    20999725.434
  21128370.978   -15149498.53049 -11795162.54547  21128370.274    21128380.478
 03  4  3 19 46  0.0000000  0  6G17G24G30G 5G 6G10
  22601313.083   -13511414.06749 -10519316.00046  22601312.667    22601324.678
  24184127.784    18167163.36349  14149344.33245  24184127.627    24184144.133
  20576570.963   -10877909.17449  -8462034.94448  20576571.376    20576579.939
  22324959.590     8095309.30049   6311467.75146  22324959.232    22324971.366
  20991049.952   -19529954.58449 -15067424.87947  20991049.879    20991058.774
  21134581.104   -15116863.95449 -11769733.04347  21134580.444    21134590.632
 03  4  3 19 46 30.0000000  0  6G17G24G30G 5G 6G10
  22589161.647   -13575269.43849 -10569073.34146  22589161.259    22589173.320
  24200206.967    18251660.59849  14215186.14545  24200206.745    24200223.738
  20585123.208   -10832967.37749  -8427015.44448  20585123.575    20585132.159
  22343049.742     8190372.27249   6385542.58546  22343049.358    22343061.450
  20982423.092   -19575289.13849 -15102750.49547  20982423.021    20982431.908
  21140905.551   -15083629.25749 -11743835.92147  21140904.836    21140915.009
 03  4  3 19 47  0.0000000  0  6G17G24G30G 5G 6G10
  22577053.313   -13638898.63649 -10618654.45646  22577052.892    22577064.992
  24216281.467    18336133.25149  14281008.78745  24216281.387    24216298.760
  20593778.602   -10787483.25249  -8391573.35147  20593778.963    20593787.564
  22361189.600     8285696.34649   6459820.87746  22361189.190    22361201.194
  20973836.266   -19620413.07149 -15137911.98847  20973836.195    20973845.120
  21147343.795   -15049795.88149 -11717472.29147  21147343.069    21147353.334
 03  4  3 19 47 30.0000000  0  6G17G24G30G 5G 6G10
  22564987.915   -13702302.02949 -10668059.61546  22564987.494    22564999.647
  24232351.245    18420579.42149  14346810.79545  24232351.181    24232368.672
  20602536.779   -10741458.77649  -8355710.20047  20602537.160    20602545.780
  22379378.558     8381278.38849   6534300.18346  22379378.078    22379390.032
  20965289.738   -19665325.59749 -15172908.75147  20965289.662    20965298.592
  21153895.446   -15015366.02849 -11690643.87647  21153894.763    21153905.193
 03  4  3 19 48  0.0000000  0  6G17G24G30G 5G 6G10
  22552965.330   -13765481.08849 -10717289.96846  22552964.897    22552977.011
  24248415.692    18504996.76149  14412590.32745  24248415.690    24248433.235
  20611397.200   -10694896.92649  -8319428.31347  20611397.586    20611406.227
  22397615.835     8477114.56649   6608977.51946  22397615.323    22397627.295
  20956783.483   -19710026.59349 -15207740.68947  20956783.401    20956792.285
  21160560.185   -14980342.59149 -11663352.91947  21160559.519    21160569.995
 03  4  3 19 48 30.0000000  0  6G17G24G30G 5G 6G10
  22540985.820   -13828434.21149 -10766344.27046  22540985.341    22540997.322
  24264474.803    18589386.32949  14478348.23645  24264474.704    24264492.219
  20620359.873   -10647797.89049  -8282727.84247  20620360.232    20620368.962
  22415901.126     8573203.77149   6683852.01146  22415900.585    22415912.706
  20948317.986   -19754513.17649 -15242405.54747  20948317.881    20948326.745
  21167337.958   -14944725.39849 -11635599.29747  21167337.267    21167347.816
 03  4  3 19 49  0.0000000  0  6G17G24G30G 5G 6G10
  22529049.293   -13891161.42049 -10815222.53546  22529048.764    22529060.667
  24280528.465    18673747.51449  14544084.00745  24280528.310    24280545.961
  20629424.507   -10600163.00249  -8245609.82047  20629424.866    20629433.727
  22434233.949     8669543.53949   6758921.74646  22434233.473    22434245.767
  20939893.519   -19798783.71949 -15276902.04947  20939893.444    20939902.315
  21174228.409   -14908515.99049 -11607384.20647  21174227.707    21174238.265
 03  4  3 19 49 30.0000000  0  6G17G24G30G 5G 6G10
  22517155.799   -13953661.59949 -10863923.90246  22517155.258    22517167.186
  24296576.489    18758079.40849  14609796.97045  24296576.399    24296594.108
  20638590.955   -10551993.50449  -8208075.22347  20638591.280    20638600.206
  22452614.111     8766131.60849   6834184.96846  22452613.699    22452626.081
  20931510.511   -19842836.50449 -15311228.87847  20931510.437    20931519.345
  21181231.399   -14871715.52749 -11578708.56047  21181230.689    21181241.159
 03  4  3 19 50  0.0000000  0  6G17G24G30G 5G 6G10
  22505305.352   -14015935.34349 -10912448.82246  22505304.852    22505316.804
  24312618.872    18842380.65149  14675486.05545  24312618.714    24312636.276
  20647858.648   -10503291.31049  -8170125.53447  20647859.015    20647867.950
  22471041.150     8862965.04149   6909639.37446  22471040.702    22471053.113
  20923169.131   -19886670.47449 -15345385.20147  20923169.062    20923178.036
  21188346.495   -14834325.86149 -11549573.80247  21188345.763    21188356.138
 03  4  3 19 50 30.0000000  0  6G17G24G30G 5G 6G10
  22493498.089   -14077982.58949 -10960797.25047  22493497.616    22493509.538
  24328655.204    18926650.44849  14741150.62845  24328655.062    24328672.385
  20657227.400   -10454058.26449  -8131762.19547  20657227.779    20657236.767
  22489514.376     8960041.18149   6985282.90346  22489513.923    22489526.284
  20914869.752   -19930284.04649 -15379369.78047  20914869.677    20914878.665
  21195573.400   -14796348.77849 -11519981.31147  21195572.680    21195582.988
 03  4  3 19 51  0.0000000  0  6G17G24G30G 5G 6G10
  22481734.003   -14139803.33149 -11008969.19646  22481733.509    22481745.310
  24344685.351    19010888.42149  14806790.38245  24344685.284    24344702.564
  20666697.030   -10404295.62149  -8092986.19147  20666697.403    20666706.365
  22508033.268     9057357.74249   7061113.77346  22508032.793    22508045.202
  20906612.624   -19973675.53249 -15413181.30747  20906612.523    20906621.493
  21202911.806   -14757785.49249 -11489932.04647  21202911.070    21202921.354
 03  4  3 19 51 30.0000000  0  6G17G24G30G 5G 6G10
  22470013.090   -14201396.83249 -11056964.06947  22470012.574    22470024.316
  24360709.282    19095094.02249  14872404.95345  24360709.341    24360726.600
  20676267.118   -10354004.94849  -8053798.73247  20676267.458    20676276.390
  22526597.341     9154912.40149   7137130.16446  22526596.941    22526609.483
  20898398.100   -20016843.07849 -15446818.33447  20898398.010    20898406.970
  21210361.526   -14718637.57549 -11459427.22047  21210360.802    21210371.028
 03  4  3 19 52  0.0000000  0  6G17G24G30G 5G 6G10
  22458335.256   -14262763.78949 -11104782.41147  22458334.779    22458346.487
  24376727.102    19179265.95949  14937993.26945  24376726.943    24376744.267
  20685937.253   -10303188.23649  -8014201.37747  20685937.623    20685946.561
  22545206.246     9252702.31549   7213329.87246  22545205.869    22545218.564
  20890226.382   -20059785.81949 -15480280.19947  20890226.297    20890235.181
  21217922.022   -14678907.16249 -11428468.50247  21217921.299    21217931.551
 03  4  3 19 52 30.0000000  0  6G17G24G30G 5G 6G10
  22446700.600   -14323904.09449 -11152424.15346  22446700.143    22446711.800
  24392738.215    19263402.88849  15003554.30245  24392737.958    24392755.142
  20695707.109   -10251847.53349  -7974195.71547  20695707.500    20695716.482
  22563859.422     9350724.30749   7289710.41046  22563858.985    22563871.840
  20882097.614   -20102502.59949 -15513565.98647  20882097.525    20882106.395
  21225593.033   -14638596.10549 -11397057.33347  21225592.308    21225602.613
 03  4  3 19 53  0.0000000  0  6G17G24G30G 5G 6G10
  22435109.040   -14384817.77849 -11199889.30246  22435108.608    22435120.230
  24408742.466    19347504.35949  15069087.72145  24408742.099    24408759.245
  20705576.487   -10199984.40649  -7933782.97147  20705576.857    20705585.824
  22582556.323     9448976.10149   7366270.01746  22582555.832    22582568.859
  20874012.182   -20144991.61249 -15546674.29247  20874012.072    20874020.990
  21233374.253   -14597705.85149 -11365194.84547  21233373.521    21233383.863
 03  4  3 19 53 30.0000000  0  6G17G24G30G 5G 6G10
  22423560.711   -14445504.69449 -11247177.75546  22423560.203    22423571.815
  24424739.705    19431569.67849  15134592.97345  24424739.344    24424756.570
  20715545.006   -10147600.37249  -7892964.32547  20715545.386    20715554.245
  22601296.403     9547455.34449   7443006.85846  22601295.948    22601309.139
  20865970.336   -20187251.30449 -15579603.91747  20865970.259    20865979.194
  21241265.399   -14556238.02649 -11332882.30447  21241264.658    21241275.012
 03  4  3 19 54  0.0000000  0  6G17G24G30G 5G 6G10
  22412055.641   -14505963.74849 -11294288.65946  22412055.128    22412066.787
  24440730.161    19515599.29749  15200070.38745  24440729.784    24440746.950
  20725612.407   -10094696.39749  -7851740.53047  20725612.767    20725621.581
  22620079.426     9646160.35649   7519919.60846  22620078.995    22620092.296
  20857972.669   -20229279.26449 -15612352.96947  20857972.596    20857981.531
  21249266.332   -14514193.49649 -11300120.38447  21249265.579    21249275.935
 03  4  3 19 54 30.0000000  0  6G17G24G30G 5G 6G10
  22400593.773   -14566195.76949 -11341222.65246  22400593.262    22400604.934
  24456713.376    19599590.72949  15265518.08445  24456713.070    24456730.042
  20735778.106   -10041275.39049  -7810113.85447  20735778.489    20735787.319
  22638904.841     9745087.40649   7597005.37546  22638904.362    22638917.698
  20850019.169   -20271075.15249 -15644921.18047  20850019.122    20850028.029
  21257376.286   -14471575.29849 -11266911.44447  21257375.535    21257385.957
 03  4  3 19 55  0.0000000  0  6G17G24G30G 5G 6G10
  22389175.129   -14626200.96349 -11387979.89946  22389174.607    22389186.214
  24472689.189    19683543.41449  15330935.56745  24472688.760    24472705.932
  20746041.791    -9987339.36549  -7768085.86947  20746042.164    20746051.060
  22657772.036     9844233.59449   7674261.88046  22657771.481    22657784.815
  20842110.119   -20312637.82349 -15677307.66847  20842110.057    20842118.902
  21265594.961   -14428385.36449 -11233257.00547  21265594.215    21265604.747
 03  4  3 19 55 30.0000000  0  6G17G24G30G 5G 6G10
  22377799.678   -14685979.05649 -11434560.18147  22377799.172    22377810.825
  24488657.424    19767456.95849  15396322.56345  24488657.046    24488674.271
  20756403.263    -9932889.66749  -7725657.61547  20756403.631    20756412.541
  22676680.481     9943596.87549   7751687.56546  22676679.921    22676693.240
  20834245.853   -20353965.13549 -15709510.75647  20834245.762    20834254.521
  21273922.287   -14384625.00249 -11199158.06847  21273921.551    21273932.103
 03  4  3 19 56  0.0000000  0  6G17G24G30G 5G 6G10
  22366467.445   -14745530.17849 -11480963.60347  22366466.917    22366478.702
  24504617.867    19851330.80449  15461678.61445  24504617.517    24504635.056
  20766862.213    -9877927.93449  -7682830.37547  20766862.580    20766871.526
  22695629.664    10043174.61749   7829280.36646  22695629.132    22695642.451
  20826426.626   -20395055.51249 -15741529.22347  20826426.535    20826435.250
  21282357.810   -14340295.86049 -11164615.93547  21282357.101    21282367.662
 03  4  3 19 56 30.0000000  0  6G17G24G30G 5G 6G10
  22355178.493   -14804853.68049 -11527189.66347  22355177.972    22355189.873
  24520570.702    19935164.50649  15527003.35845  24520570.542    24520588.235
  20777418.224    -9822455.86349  -7639605.47747  20777418.602    20777427.575
  22714619.314    10142964.66249   7907038.57546  22714618.766    22714632.066
  20818652.780   -20435907.28349 -15773361.76647  20818652.707    20818661.382
  21290901.279   -14295399.63349 -11129631.92447  21290900.596    21290911.164
 03  4  3 19 57  0.0000000  0  6G17G24G30G 5G 6G10
  22343932.764   -14863950.08249 -11573238.75647  22343932.288    22343944.168
  24536515.818    20018956.79549  15592295.85045  24536515.743    24536533.494
  20788070.913    -9766475.81549  -7595984.74447  20788071.288    20788080.315
  22733648.696    10242963.52849   7984959.51246  22733648.153    22733661.390
  20810924.529   -20476519.44849 -15805007.60447  20810924.427    20810933.184
  21299552.293   -14249938.64849 -11094207.83847  21299551.607    21299562.173
 03  4  3 19 57 30.0000000  0  6G17G24G30G 5G 6G10
  22332730.306   -14922819.71849 -11619111.14847  22332729.793    22332741.578
  24552453.217    20102706.51049  15657555.14345  24552453.060    24552470.694
  20798819.833    -9709990.11349  -7551969.99747  20798820.196    20798829.305
  22752717.245    10343168.34549   8063040.91846  22752716.671    22752729.937
  20803241.979   -20516890.88849 -15836465.86347  20803241.905    20803250.800
  21308310.329   -14203915.27849 -11058345.52847  21308309.634    21308320.134
 03  4  3 19 58  0.0000000  0  6G17G24G30G 5G 6G10
  22321570.712   -14981463.58349 -11664807.63247  22321570.199    22321581.966
  24568382.234    20186412.20049  15722780.12945  24568382.042    24568399.605
  20809664.433    -9653001.54849  -7507563.42347  20809664.809    20809673.954
  22771824.233    10443575.67849   8141280.12146  22771823.704    22771837.043
  20795605.393   -20557020.82749 -15867735.94147  20795605.342    20795614.358
  21317174.750   -14157332.30049 -11022047.16847  21317174.028    21317184.555
 03  4  3 19 58 30.0000000  0  6G17G24G30G 5G 6G10
  22310454.364   -15039880.32449 -11710327.12747  22310453.844    22310465.573
  24584302.696    20270073.91749  15787970.89745  24584302.611    24584320.113
  20820604.602    -9595511.17049  -7462765.82247  20820604.985    20820614.096
  22790969.487    10544183.85649   8219675.84846  22790968.960    22790982.380
  20788015.324   -20596906.84949 -15898815.95647  20788015.267    20788024.302
  21326145.389   -14110190.65649 -10985313.48147  21326144.697    21326155.342
 03  4  3 19 59  0.0000000  0  6G17G24G30G 5G 6G10
  22299381.124   -15098070.46249 -11755670.04747  22299380.610    22299392.339
  24600214.861    20353691.15949  15853126.98045  24600214.675    24600232.182
  20831639.927    -9537520.74149  -7417578.57047  20831640.295    20831649.395
  22810152.659    10644990.46649   8298226.17946  22810152.100    22810165.463
  20780471.998   -20636547.30649 -15929704.62347  20780471.949    20780480.963
  21335222.119   -14062492.29849 -10948145.98647  21335221.403    21335232.140
 03  4  3 19 59 30.0000000  0  6G17G24G30G 5G 6G10
  22288350.958   -15156033.91549 -11800836.32647  22288350.496    22288362.259
  24616118.401    20437262.80549  15918247.53445  24616118.136    24616135.435
  20842769.988    -9479032.51549  -7372003.42847  20842770.360    20842779.473
  22829373.014    10745992.60249   8376928.85546  22829372.474    22829385.829
  20772975.658   -20675940.88049 -15960400.91048  20772975.618    20772984.627
  21344404.425   -14014239.35949 -10910546.36247  21344403.717    21344414.480
 03  4  3 20  0  0.0000000  0  6G17G24G30G 5G 6G10
  22277364.141   -15213769.92249 -11845825.37247  22277363.672    22277375.419
  24632013.177    20520789.36349  15983332.93945  24632012.901    24632030.113
  20853994.593    -9420047.50349  -7326041.18547  20853994.949    20854004.023
  22848630.152    10847188.63249   8455782.61446  22848629.652    22848643.013
  20765526.806   -20715085.11949 -15990902.91248  20765526.745    20765535.732
  21353692.168   -13965432.85149 -10872515.39247  21353691.447    21353702.109
 03  4  3 20  0 30.0000000  0  6G17G24G30G 5G 6G10
  22266420.484   -15271278.75049 -11890637.40347  22266420.008    22266431.781
  24647899.147    20604269.83449  16048382.45445  24647898.974    24647916.069
  20865313.309    -9360567.88449  -7279693.53047  20865313.674    20865322.757
  22867923.634    10948575.77649   8534785.29546  22867923.196    22867936.607
  20758125.667   -20753978.54449 -16021209.47248  20758125.618    20758134.558
  21363084.865   -13916074.95349 -10834054.75847  21363084.134    21363094.707
 03  4  3 20  1  0.0000000  0  6G17G24G30G 5G 6G10
  22255519.974   -15328560.42749 -11935272.42847  22255519.535    22255531.425
  24663776.074    20687703.30649  16113395.35145  24663775.893    24663792.853
  20876725.643    -9300596.28749  -7232962.51947  20876726.013    20876735.066
  22887252.964    11050150.81849   8613934.39246  22887252.494    22887265.949
  20750772.437   -20792620.35449 -16051319.96848  20750772.379    20750781.241
  21372582.008   -13866167.89749 -10795166.21647  21372581.269    21372591.810
 03  4  3 20  1 30.0000000  0  6G17G24G30G 5G 6G10
  22244662.871   -15385614.72249 -11979730.27747  22244662.431    22244674.397
  24679643.915    20771089.53249  16178371.41845  24679643.928    24679660.754
  20888231.310    -9240134.20849  -7185849.31447  20888231.658    20888240.706
  22906617.681    11151911.57349   8693228.19046  22906617.179    22906630.691
  20743467.441   -20831008.59049 -16081232.87748  20743467.376    20743476.162
  21382183.187   -13815713.58749 -10755851.24147  21382182.463    21382193.006
 03  4  3 20  2  0.0000000  0  6G17G24G30G 5G 6G10
  22233848.860   -15442442.84249 -12024011.89347  22233848.387    22233860.297
  24695502.534    20854427.14649  16243309.61345  24695502.599    24695519.522
  20899829.708    -9179184.23249  -7138355.93247  20899830.089    20899839.210
  22926017.049    11253854.81049   8772664.18746  22926016.529    22926030.078
  20736210.896   -20869142.13449 -16110947.32248  20736210.830    20736219.566
  21391887.943   -13764714.69449 -10716111.92047  21391887.275    21391897.804
 03  4  3 20  2 30.0000000  0  7G17G24G30G29G 5G 6G10
  22223077.968   -15499044.60249 -12068117.11647  22223077.464    22223089.234
  24711351.989    20937715.52449  16308209.44845  24711352.037    24711368.958
  20911520.574    -9117748.81349  -7090484.28047  20911520.965    20911530.142
                   -908662.83049   -698710.51343
  22945450.586    11355977.69949   8852240.16146  22945450.075    22945463.745
  20729003.089   -20907019.67949 -16140462.28448  20729002.990    20729011.719
  21401695.980   -13713173.36749 -10675949.92147  21401695.284    21401705.757
 03  4  3 20  3  0.0000000  0  7G17G24G30G29G 5G 6G10
  22212350.046   -15555420.33149 -12112046.20947  22212349.521    22212361.120
  24727191.925    21020953.62549  16373070.11545  24727191.891    24727208.643
  20923303.343    -9055830.34049  -7042236.22247  20923303.708    20923312.957
  24334265.909     -977208.27149   -752122.28145  24334266.508    24334284.745
  22964917.629    11458277.08849   8931953.67046  22964917.129    22964931.005
  20721844.125   -20944639.97449 -16169776.79748  20721844.046    20721852.782
  21411606.679   -13661092.56149 -10635367.55547  21411605.983    21411616.434
 03  4  3 20  3 30.0000000  0  7G17G24G30G29G 5G 6G10
  22201665.040   -15611570.18049 -12155799.29947  22201664.527    22201676.048
  24743022.013    21104140.66549  16437890.97445  24743021.932    24743038.874
  20935177.680    -8993430.95849  -6993613.43347  20935178.038    20935187.294
  24321251.308    -1045603.01049   -805416.60445  24321250.808    24321269.401
  22984417.735    11560750.41949   9011802.70546  22984417.259    22984431.402
  20714734.441   -20982001.48049 -16198889.64948  20714734.378    20714743.116
  21421619.721   -13608473.95749 -10594366.12747  21421619.012    21421629.467
 03  4  3 20  4  0.0000000  0  7G17G24G30G29G 5G 6G10
  22191023.136   -15667493.83749 -12199376.13747  22191022.624    22191034.016
  24758842.282    21187276.15249  16502671.68145  24758842.349    24758859.374
  20947143.124    -8930552.64549  -6944617.45047  20947143.494    20947152.762
  24308265.230    -1113844.02949   -858591.13245  24308264.409    24308283.185
  23003950.474    11663395.11949   9091785.27546  23003949.987    23003964.406
  20707674.310   -21019102.75049 -16227799.72348  20707674.255    20707682.999
  21431734.749   -13555319.56549 -10552947.20247  21431734.059    21431744.541
 03  4  3 20  4 30.0000000  0  7G17G24G30G29G 5G 6G10
  22180424.394   -15723190.91549 -12242776.41447  22180423.872    22180435.131
  24774652.867    21270360.47649  16567412.50545  24774652.934    24774670.014
  20959199.455    -8867196.84849  -6895249.40547  20959199.818    20959209.122
  24295309.070    -1181927.44049   -911642.84745  24295307.709    24295327.501
  23023515.563    11766209.48249   9171900.04746  23023515.052    23023529.716
  20700664.152   -21055941.30749 -16256505.08948  20700664.079    20700672.871
  21441951.514   -13501630.58249 -10511111.71747  21441950.826    21441961.300
 03  4  3 20  5  0.0000000  0  7G17G24G30G29G 5G 6G10
  22169868.771   -15778660.97549 -12285999.79847  22169868.220    22169879.479
  24790453.855    21353393.34549  16632113.25745  24790453.825    24790470.930
  20971346.328    -8803365.12649  -6845510.51047  20971346.689    20971356.005
  24282383.588    -1249849.81249   -964569.06945  24282382.716    24282402.255
  23043112.517    11869191.46349   9252145.42046  23043112.075    23043126.859
  20693704.361   -21092515.23049 -16285004.24548  20693704.297    20693713.130
  21452269.683   -13447408.89449 -10468861.13447  21452268.973    21452279.455
 03  4  3 20  5 30.0000000  0  7G17G24G30G29G 5G 6G10
  22159356.082   -15833905.60749 -12329047.52347  22159355.547    22159366.750
  24806244.770    21436372.85249  16696772.41645  24806244.674    24806261.919
  20983583.034    -8739061.24349  -6795403.70247  20983583.387    20983592.692
  24269489.168    -1317609.66649  -1017368.64745  24269488.542    24269508.055
  23062740.635    11972336.82049   9332518.09546  23062740.247    23062755.040
  20686794.962   -21128824.37949 -16313297.08748  20686794.880    20686803.746
  21462688.533   -13392658.43849 -10426198.52347  21462687.800    21462698.214
 03  4  3 20  6  0.0000000  0  7G17G24G30G29G 5G 6G10
  22148886.383   -15888924.19249 -12371919.10447  22148885.826    22148897.044
  24822025.459    21519298.81349  16761389.85045  24822025.329    24822042.689
  20995909.290    -8674286.84649  -6744930.26047  20995909.644    20995918.895
  24256626.289    -1385203.47949  -1070038.82145  24256625.778    24256645.462
  23082399.586    12075643.47849   9413016.45746  23082399.157    23082413.928
  20679936.320   -21164866.67849 -16341381.99447  20679936.238    20679945.087
  21473207.648   -13337380.76449 -10383125.08547  21473206.898    21473217.337
 03  4  3 20  6 30.0000000  0  7G17G24G30G29G 5G 6G10
  22138459.809   -15943716.10149 -12414614.05447  22138459.284    22138470.485
  24837795.933    21602171.50549  16825965.76745  24837795.731    24837813.217
  21008324.762    -8609043.39149  -6694091.31847  21008325.129    21008334.387
  24243795.789    -1452627.56949  -1122576.77845  24243795.409    24243814.961
  23102088.945    12179109.50949   9493638.97746  23102088.476    23102103.234
  20673128.870   -21200639.82949 -16369257.18248  20673128.821    20673137.657
  21483826.564   -13281577.35449 -10339641.99347  21483825.827    21483836.510
 03  4  3 20  7  0.0000000  0  7G17G24G30G29G 5G 6G10
  22128076.049   -15998282.99249 -12457133.66647  22128075.552    22128086.762
  24853555.826    21684989.09149  16890498.76945  24853555.552    24853573.319
  21020828.859    -8543334.26249  -6642889.51647  21020829.222    21020838.471
  24230998.179    -1519879.89049  -1174980.87245  24230997.839    24231016.977
  23121807.830    12282731.01449   9574382.65446  23121807.305    23121822.037
  20666372.754   -21236143.51449 -16396922.39348  20666372.718    20666381.557
  21494544.934   -13225251.43549 -10295751.75047  21494544.267    21494555.099
 03  4  3 20  7 30.0000000  0  7G17G24G30G29G 5G 6G10
  22117735.535   -16052623.00549 -12499476.48547  22117735.011    22117746.192
  24869305.182    21767752.49749  16954989.55044  24869304.879    24869322.955
  21033421.462    -8477160.39449  -6591325.58147  21033421.805    21033431.043
  24218233.650    -1586956.46149  -1227248.02345  24218233.406    24218252.381
  23141556.036    12386506.82549   9655246.56546  23141555.494    23141570.189
  20659668.466   -21271374.75749 -16424375.31248  20659668.419    20659677.253
  21505362.665   -13168403.80749 -10251454.97747  21505361.928    21505372.988
 03  4  3 20  8  0.0000000  0  7G17G24G30G29G 5G 6G10
  22107437.989   -16106736.80549 -12541643.03247  22107437.460    22107448.597
  24885043.986    21850460.66649  17019437.31744  24885043.623    24885061.910
  21046101.952    -8410524.42849  -6539401.57447  21046102.306    21046111.612
  24205502.997    -1653854.38649  -1279375.98045  24205502.860    24205521.832
  23161332.939    12490433.79249   9736228.25146  23161332.412    23161347.159
  20653016.303   -21306332.37949 -16451615.02748  20653016.254    20653025.053
  21516279.077   -13111037.18049 -10206753.79447  21516278.351    21516289.659
 03  4  3 20  8 30.0000000  0  6G17G30G29G 5G 6G10
  22097183.297   -16160624.97049 -12583633.75547  22097182.789    22097193.952
  21058869.922    -8343428.73649  -6487119.33247  21058870.267    21058879.662
  24192806.705    -1720571.02149  -1331362.69745  24192806.749    24192825.923
  23181138.007    12594509.15649   9817325.58146  23181137.542    23181152.282
  20646416.427   -21341015.03249 -16478640.47948  20646416.353    20646425.158
  21527293.802   -13053154.16349 -10161650.22847  21527293.105    21527304.495
 03  4  3 20  9  0.0000000  0  7G17G30G29G 5G 6G10G23
  22086971.831   -16214286.15249 -12625447.61747  22086971.358    22086982.530
  21071725.172    -8275874.52749  -6434479.81147  21071725.508    21071734.992
  24180146.015    -1787102.28749  -1383204.99445  24180146.084    24180165.209
  23200971.049    12698731.31049   9898537.27746  23200970.602    23200985.364
  20639869.380   -21375420.00649 -16505449.55348  20639869.326    20639878.173
  21538406.723   -12994756.06849 -10116145.30247  21538405.982    21538417.352
                  -1186471.71249   -912134.06043
 03  4  3 20  9 30.0000000  0  7G17G30G29G 5G 6G10G23
  22076802.648   -16267725.46849 -12667088.59447  22076802.178    22076813.334
  21084666.322    -8207868.79349  -6381488.44747  21084666.679    21084676.252
  24167520.295    -1853449.98349  -1434904.26245  24167520.214    24167539.168
  23220830.597    12803092.80449   9979857.54446  23220830.163    23220844.998
  20633374.595   -21409550.55149 -16532044.78748  20633374.502    20633383.394
  21549616.239   -12935849.76649 -10070244.36847  21549615.521    21549626.858
                  -1294446.31149   -762968.60843
 03  4  3 20 10  0.0000000  0  7G17G30G29G 5G 6G10G23
  22066675.248   -16320945.47749 -12708558.68247  22066674.749    22066685.867
  21097692.444    -8139416.58549  -6328149.18947  21097692.781    21097702.419
  24154929.373    -1919613.69649  -1486460.17445  24154929.252    24154948.280
  23240715.653    12907588.57449  10061282.43646  23240715.266    23240730.207
  20626931.757   -21443407.65149 -16558426.95148  20626931.682    20626940.596
  21560921.601   -12876440.23749 -10023951.31547  21560920.895    21560932.142
                  -1402328.60149   -847032.30543
 03  4  3 20 10 30.0000000  0  7G17G30G29G 5G 6G10G23
  22056590.227   -16373942.51449 -12749855.02847  22056589.701    22056600.837
  21110803.727    -8070516.17849  -6274460.68347  21110804.104    21110813.849
  24142374.784    -1985586.48749  -1537867.36345  24142374.822    24142393.892
  23260626.612    13012219.79149  10142812.86946  23260626.252    23260641.142
  20620542.032   -21476985.69749 -16584591.66748  20620541.976    20620550.882
  21572323.085   -12816525.98549  -9977264.97447  21572322.361    21572333.503
                  -1510112.25749   -931019.33644                  24233720.281
 03  4  3 20 11  0.0000000  0  7G17G30G29G 5G 6G10G23
  22046548.021   -16426713.97949 -12790975.59947  22046547.503    22046558.826
  21124000.312    -8001167.62349  -6220422.96347  21124000.719    21124010.597
  24129857.870    -2051363.06749  -1589121.65745  24129857.957    24129876.689
  23280563.419    13116986.27349  10224448.70045  23280563.080    23280577.802
  20614206.138   -21510280.96649 -16610536.02848  20614206.082    20614215.034
  21583820.626   -12756106.89349  -9930185.24247  21583819.892    21583830.933
  24213210.323    -1617792.55749  -1014925.68944  24213208.724    24213230.032
 03  4  3 20 11 30.0000000  0  7G17G30G29G 5G 6G10G23
  22036549.200   -16479257.41449 -12831918.48247  22036548.685    22036560.147
  21137282.260    -7931370.64149  -6166035.83047  21137282.654    21137292.675
  24117379.303    -2116937.90849  -1640218.77845  24117379.436    24117398.178
  23300526.071    13221887.97549  10306189.89445  23300525.621    23300540.280
  20607924.860   -21543289.38649 -16636256.87248  20607924.791    20607933.780
  21595414.203   -12695182.69549  -9882711.92947  21595413.436    21595424.541
  24192739.886    -1725364.35849  -1098747.53445  24192738.086    24192760.049
 03  4  3 20 12  0.0000000  0  7G17G30G29G 5G 6G10G23
  22026593.822   -16531572.66049 -12872683.56347  22026593.297    22026604.798
  21150649.239    -7861127.08349  -6111300.72247  21150649.640    21150659.721
  24104939.662    -2182307.52549  -1691156.02145  24104939.747    24104958.669
  23320514.000    13326922.75549  10388034.77246  23320513.553    23320528.022
  20601698.589   -21576008.75349 -16661752.48348  20601698.531    20601707.485
  21607103.453   -12633755.35749  -9834846.55647  21607102.684    21607113.852
  24172290.366    -1832824.58049  -1182482.39345  24172289.443    24172310.444
 03  4  3 20 12 30.0000000  0  8G17G30G29G 5G 6G26G10G23
  22016681.218   -16583663.29549 -12913273.61347  22016680.719    22016692.229
  21164100.164    -7790442.44249  -6056221.90847  21164100.588    21164110.672
  24092539.094    -2247471.91749  -1741933.35045  24092539.182    24092558.150
  23340526.143    13432084.87949  10469978.86746  23340525.689    23340540.043
  20595527.056   -21608440.54549 -16687024.01348  20595527.003    20595535.919
  24270113.494    -1971003.25549  -1523596.27145  24270113.540    24270136.253
  21618887.542   -12571830.16049  -9786593.24947  21618886.756    21618897.913
  24151861.992    -1940173.97849  -1266130.91745  24151861.024    24151882.488
 03  4  3 20 13  0.0000000  0  8G17G30G29G 5G 6G26G10G23
  22006811.327   -16635529.91049 -12953689.10147  22006810.832    22006822.274
  21177634.408    -7719320.05049  -6000801.98647  21177634.818    21177644.939
  24080177.913    -2312429.01449  -1792549.14945  24080178.010    24080196.938
  23360561.812    13537370.91849  10552019.53145  23360561.379    23360575.737
  20589410.321   -21640584.01549 -16712070.86548  20589410.268    20589419.209
  24253008.362    -2060890.53149  -1593638.00345  24253008.422    24253031.106
  21630765.719   -12509410.24449  -9737954.44147  21630764.913    21630776.102
  24131454.967    -2047410.75549  -1349691.66744  24131454.243    24131475.752
 03  4  3 20 13 30.0000000  0  8G17G30G29G 5G 6G26G10G23
  21996984.498   -16687170.09649 -12993928.16047  21996984.025    21996995.398
  21191252.071    -7647759.71449  -5945040.81447  21191252.451    21191262.569
  24067857.255    -2377173.55749  -1842999.30445  24067857.419    24067876.127
  23380620.922    13642780.76049  10634156.64345  23380620.543    23380635.027
  20583349.244   -21672435.09849 -16736889.89648  20583349.174    20583358.096
  24235910.698    -2150738.70549  -1663649.25745  24235910.769    24235933.247
  21642737.993   -12446495.91249  -9688930.37447  21642737.214    21642748.393
  24111070.335    -2154530.20349  -1433160.98044  24111069.874    24111091.381
 03  4  3 20 14  0.0000000  0  8G17G30G29G 5G 6G26G10G23
  21987200.349   -16738586.31349 -13033992.68647  21987199.848    21987211.144
  21204952.142    -7575766.03849  -5888941.98147  21204952.537    21204962.631
  24055577.152    -2441704.36649  -1893282.89945  24055577.281    24055596.208
  23400702.646    13748309.73249  10716386.58845  23400702.300    23400716.987
  20577343.729   -21703994.19949 -16761481.41248  20577343.661    20577352.529
  24218820.744    -2240546.37649  -1733628.95745  24218820.779    24218843.048
  21654803.691   -12383091.42049  -9639524.37047  21654802.871    21654813.938
  24090708.122    -2261531.89649  -1516538.50044  24090707.679    24090729.003
 03  4  3 20 14 30.0000000  0  8G17G30G29G 5G 6G26G10G23
  21977458.863   -16789778.05649 -13073882.29547  21977458.342    21977469.633
  21218734.350    -7503340.80849  -5832506.86947  21218734.725    21218744.834
  24043338.132    -2506018.25349  -1943397.45145  24043338.404    24043357.507
  23420806.635    13853955.72449  10798707.71845  23420806.293    23420821.227
  20571394.139   -21735259.39449 -16785843.90248  20571394.100    20571402.953
  24201739.053    -2330309.96349  -1803574.30745  24201739.265    24201761.276
  21666962.138   -12319199.09849  -9589738.24147  21666961.315    21666972.295
  24070369.114    -2368412.88749  -1599821.96044  24070368.930    24070389.785
 03  4  3 20 15  0.0000000  0  8G17G30G29G 5G 6G26G10G23
  21967759.886   -16840746.33049 -13113597.77747  21967759.387    21967770.652
  21232598.095    -7430487.09249  -5775737.87847  21232598.438    21232608.545
  24031141.198    -2570112.56549  -1993340.90545  24031141.397    24031160.767
  23440932.361    13959715.54149  10881117.54145  23440931.949    23440947.124
  20565500.751   -21766229.58649 -16809976.52248  20565500.690    20565509.544
  24184666.152    -2420026.39249  -1873482.89245  24184666.444    24184688.512
  21679212.824   -12254821.54249  -9539574.00247  21679212.014    21679222.971
  24050053.481    -2475171.09349  -1683009.77344  24050053.395    24050073.694
 03  4  3 20 15 30.0000000  0  8G17G30G29G 5G 6G26G10G23
  21958103.511   -16891490.94749 -13153138.98547  21958103.022    21958114.264
  21246542.838    -7357207.40449  -5718636.96147  21246543.154    21246553.333
  24018986.839    -2633984.45549  -2043111.04145  24018986.872    24019006.318
  23461079.390    14065586.62149  10963614.04445  23461078.832    23461094.184
  20559663.800   -21796903.14449 -16833878.00448  20559663.731    20559672.605
  24167602.685    -2509692.40349  -1943352.18145  24167603.108    24167625.308
  21691555.408   -12189961.34049  -9489033.68447  21691554.619    21691565.518
  24029761.803    -2581803.96849  -1766099.89145  24029761.592    24029781.759
 03  4  3 20 16  0.0000000  0  8G17G30G29G 5G 6G26G10G23
  21948489.473   -16942012.68749 -13192506.51947  21948488.978    21948500.299
  21260567.944    -7283504.90249  -5661206.57947  21260568.285    21260578.531
  24006875.220    -2697631.55549  -2092705.99445  24006875.176    24006894.458
  23481246.832    14171565.53449  11046194.55945  23481246.160    23481261.750
  20553883.469   -21827279.31949 -16857547.75348  20553883.402    20553892.268
  24150549.551    -2599305.23649  -2013180.02845  24150550.082    24150572.183
  21703989.214   -12124621.66149  -9438119.74747  21703988.421    21703999.273
  24009494.198    -2688309.97449  -1849091.13945  24009493.883    24009513.957
 03  4  3 20 16 30.0000000  0  9G17G30G29G 5G 6G26G15G10G23
  21938917.758   -16992311.73949 -13231700.53847  21938917.284    21938928.643
  21274673.168    -7209381.73749  -5603448.41047  21274673.550    21274683.790
  23994807.196    -2761050.91049  -2142123.47945  23994807.110    23994825.789
  23501434.216    14277649.92249  11128857.27645  23501433.666    23501449.475
  20548160.082   -21857356.21349 -16880984.29748  20548160.005    20548168.855
  24133507.447    -2688861.35449  -2082963.66545  24133507.941    24133529.797
                  -1182558.55649   -914012.55343
  21716513.788   -12058804.87649  -9386834.03847  21716512.951    21716523.821
  23989251.212    -2794686.38349  -1931981.40845  23989250.839    23989270.719
 03  4  3 20 17  0.0000000  0  8G17G30G29G 5G 6G26G10G23
  21929388.504   -17042388.18349 -13270721.09347  21929388.001    21929399.312
  21288858.008    -7134840.18149  -5545364.22547  21288858.430    21288868.574
  23982783.077    -2824239.16349  -2191360.85745  23982782.865    23982801.219
  23521641.190    14383837.28349  11211600.23445  23521640.677    23521656.762
  20542493.939   -21887132.11249 -16904186.30248  20542493.847    20542502.703
  24116476.515    -2778357.04849  -2152700.23445  24116476.972    24116498.901
  21729128.760   -11992513.05049  -9335178.17147  21729127.947    21729138.783
  23969033.422    -2900930.45849  -2014768.55545  23969032.885    23969052.791
 03  4  3 20 17 30.0000000  0  9G17G30G29G 5G 6G26G15G10G23
  21919901.725   -17092241.38149 -13309567.70047  21919901.228    21919912.465
  21303122.192    -7059882.22949  -5486955.57047  21303122.595    21303132.685
  23970803.344    -2887192.90649  -2240415.49445  23970803.029    23970821.322
  23541867.393    14490125.68149  11294421.92045  23541866.875    23541883.208
  20536885.495   -21916604.75949 -16927152.00748  20536885.430    20536894.256
  24099457.988    -2867788.56049  -2222386.77745  24099458.243    24099480.282
                  -1352840.74349   -867032.32443
  21741833.821   -11925748.13049  -9283153.65047  21741833.012    21741843.793
  23948841.402    -3007039.16549  -2097450.23045  23948840.833    23948860.597
 03  4  3 20 18  0.0000000  0  9G17G30G29G 5G 6G26G15G10G23
  21910457.257   -17141872.00649 -13348240.87347  21910456.747    21910468.040
  21317464.930    -6984511.27249  -5428225.10347  21317465.325    21317475.406
  23958868.526    -2949909.96749  -2289285.70345  23958868.340    23958886.324
  23562112.257    14596511.64849  11377319.61345  23562111.709    23562128.177
  20531334.890   -21945773.52049 -16949880.92148  20531334.823    20531343.572
  24082452.139    -2957153.13149  -2292021.17645  24082452.405    24082474.614
                  -1437801.79549   -933235.90244                  24553174.502
  21754628.251   -11858513.48649  -9230763.12047  21754627.455    21754638.187
  23928675.175    -3113011.04049  -2180025.24145  23928674.843    23928694.332
 03  4  3 20 18 30.0000000  0  9G17G30G29G 5G 6G26G15G10G23
  21901054.965   -17191280.62549 -13386741.05247  21901054.505    21901065.846
  21331885.914    -6908729.76749  -5369174.72347  21331886.252    21331896.316
  23946979.392    -3012387.53649  -2337969.28645  23946979.302    23946997.073
  23582375.210    14702992.65049  11460291.36445  23582374.701    23582391.234
  20525842.395   -21974636.81049 -16972371.80148  20525842.305    20525851.050
  24065459.554    -3046447.20349  -2361600.65445  24065459.809    24065482.107
  24537013.567    -1522642.75949   -999345.66044  24537013.269    24537031.536
  21767511.634   -11790811.67849  -9178008.55547  21767510.865    21767521.546
  23908535.719    -3218843.47649  -2262491.59345  23908535.287    23908554.886
 03  4  3 20 19  0.0000000  0  9G17G30G29G 5G 6G26G15G10G23
  21891695.097   -17240467.06549 -13425068.11047  21891694.625    21891705.939
  21346384.566    -6832539.65549  -5309805.95447  21346384.905    21346394.984
  23935136.399    -3074622.04449  -2386463.46445  23935136.360    23935154.133
  23602655.923    14809566.58649  11543335.51645  23602655.321    23602671.939
  20520408.365   -22003192.53949 -16994623.02848  20520408.297    20520417.054
  24048481.111    -3135667.16949  -2431122.35945  24048481.435    24048503.874
  24520891.723    -1607362.58249  -1065361.02345  24520889.411    24520909.752
  21780483.503   -11722644.78449  -9124891.59247  21780482.715    21780493.474
  23888423.342    -3324533.57749  -2344847.06945  23888422.830    23888442.593
 03  4  3 20 19 30.0000000  0  9G17G30G29G 5G 6G26G15G10G23
  21882377.270   -17289432.65949 -13463223.08447  21882376.806    21882387.984
  21360960.122    -6755945.21349  -5250122.12547  21360960.474    21360970.567
  23923339.932    -3136612.26549  -2434767.27745  23923339.787    23923357.637
  23622953.443    14916229.23349  11626448.78145  23622952.979    23622969.456
  20515032.912   -22031440.60449 -17016634.51748  20515032.848    20515041.591
  24031517.109    -3224810.91749  -2500584.67245  24031517.218    24031539.798
  24504792.664    -1691962.28349  -1131282.77545  24504791.356    24504810.821
  21793543.085   -11654016.50749  -9071415.11047  21793542.285    21793553.199
  23868338.030    -3430080.37649  -2427090.86645  23868337.504    23868357.446
 03  4  3 20 20  0.0000000  0  9G17G30G29G 5G 6G26G15G10G23
  21873101.797   -17338175.81149 -13501204.73447  21873101.327    21873112.379
  21375612.541    -6678946.83449  -5190123.54447  21375612.891    21375623.040
  23911590.684    -3198353.28649  -2482876.91045  23911590.601    23911608.482
  23643267.779    15022980.01149  11709630.72045  23643267.296    23643283.760
  20509716.675   -22059377.52549 -17038403.55948  20509716.599    20509725.348
  24014568.663    -3313873.21949  -2569983.49245  24014569.189    24014591.547
  24488717.194    -1776439.68849  -1197109.23745  24488716.284    24488735.188
  21806690.168   -11584927.75949  -9017579.82347  21806689.393    21806700.544
  23848280.774    -3535479.53349  -2509219.62645  23848280.240    23848300.164
 03  4  3 20 20 30.0000000  0  9G17G30G29G 5G 6G26G15G10G23
  21863868.425   -17386697.77949 -13539014.02547  21863867.969    21863878.884
  21390341.018    -6601548.61249  -5129813.39447  21390341.385    21390351.626
  23899889.067    -3259843.64449  -2530791.21045  23899889.052    23899906.942
  23663598.270    15129815.07449  11792878.33645  23663597.761    23663614.272
  20504459.610   -22087003.23449 -17059930.09548  20504459.548    20504468.341
  23997636.449    -3402852.01849  -2639317.21345  23997637.042    23997659.216
  24472664.903    -1860795.89849  -1262841.23445  24472664.256    24472682.673
  21819924.187   -11515382.55549  -8963388.84947  21819923.421    21819934.769
  23828251.818    -3640730.04349  -2591232.56845  23828251.545    23828271.261
 03  4  3 20 21  0.0000000  0  9G17G30G29G 5G 6G26G15G10G23
  21854677.184   -17434998.57749 -13576650.97747  21854676.692    21854687.536
  21405145.233    -6523752.63149  -5069193.29847  21405145.596    21405155.930
  23888235.768    -3321079.86749  -2578507.49145  23888235.749    23888253.825
  23683944.340    15236732.00549  11876189.73745  23683943.876    23683960.324
  20499262.195   -22114315.68449 -17081212.53348  20499262.146    20499271.048
  23980720.899    -3491743.44849  -2708582.86645  23980721.382    23980743.715
  24456635.609    -1945030.23449  -1328478.26745  24456635.014    24456653.482
  21833244.806   -11445383.04449  -8908843.87347  21833243.960    21833255.386
  23808251.692    -3745829.11349  -2673127.50445  23808251.392    23808271.135
 03  4  3 20 21 30.0000000  0  9G17G30G29G 5G 6G26G15G10G23
  21845527.660   -17483079.49749 -13614116.59047  21845527.166    21845537.989
  21420024.490    -6445562.46749  -5008266.04547  21420024.845    21420035.192
  23876631.312    -3382060.12949  -2626024.34245  23876631.272    23876649.345
  23704305.412    15343727.42349  11959562.30045  23704304.871    23704321.352
  20494124.557   -22141314.10649 -17102250.27148  20494124.513    20494133.477
  23963822.690    -3580544.99849  -2777778.49045  23963823.111    23963844.858
  24440629.295    -2029143.17949  -1394020.69645  24440628.845    24440647.244
  21846651.105   -11374932.76149  -8853947.64347  21846650.239    21846661.740
  23788280.792    -3850775.18749  -2754903.24145  23788280.467    23788300.184
 03  4  3 20 22  0.0000000  0  9G17G30G29G 5G 6G26G15G10G23
  21836420.139   -17530939.34949 -13651409.95547  21836419.652    21836430.511
  21434978.527    -6366979.17049  -4947032.46747  21434978.883    21434989.190
  23865076.677    -3442779.86649  -2673338.19745  23865076.701    23865094.479
  23724681.218    15450800.08749  12042995.04345  23724680.654    23724697.060
  20489047.299   -22167995.52249 -17123040.99248  20489047.248    20489056.226
  23946942.306    -3669251.53449  -2846900.07045  23946942.787    23946964.125
  24424646.479    -2113132.85649  -1459467.04845  24424646.120    24424664.598
  21860142.890   -11304032.73349  -8798700.96147  21860142.089    21860153.684
  23768339.760    -3955564.41849  -2836556.76745  23768339.331    23768359.035
 03  4  3 20 22 30.0000000  0  9G17G30G29G 5G 6G26G15G10G23
  21827354.521   -17578578.77349 -13688531.55047  21827354.058    21827364.977
  21450006.748    -6288006.02049  -4885495.10547  21450007.099    21450017.448
  23853572.155    -3503237.04749  -2720447.43545  23853572.166    23853589.699
  23745071.037    15557946.61949  12126485.34245  23745070.469    23745086.805
  20484030.486   -22194359.09049 -17143584.04048  20484030.441    20484039.411
  23930080.504    -3757860.33249  -2915945.48045  23930080.800    23930102.044
  24408687.214    -2196999.43549  -1524817.49745  24408686.688    24408705.034
  21873719.671   -11232686.33449  -8743106.46047  21873718.860    21873730.571
  23748429.146    -4060194.90449  -2918086.61745  23748428.656    23748448.093
 03  4  3 20 23  0.0000000  0  9G17G30G29G 5G 6G26G15G10G23
  21818330.753   -17625998.29349 -13725481.78947  21818330.284    21818341.293
  21465108.478    -6208645.99549  -4823656.27647  21465108.834    21465119.312
  23842117.655    -3563429.01449  -2767350.03445  23842117.776    23842135.294
  23765474.292    15665164.36449  12210031.12645  23765473.764    23765490.115
  20479074.467   -22220403.43249 -17163878.33248  20479074.412    20479083.373
  23913237.902    -3846368.38549  -2984912.38545  23913238.100    23913259.234
  24392751.237    -2280743.03049  -1590072.11145  24392750.690    24392768.826
  21887380.920   -11160896.38549  -8687166.32947  21887380.122    21887391.872
  23728549.135    -4164664.53049  -2999491.13745  23728548.498    23728567.708
 03  4  3 20 23 30.0000000  0  9G17G30G29G 5G 6G26G15G10G23
  21809349.100   -17673196.96349 -13762259.94247  21809348.652    21809359.761
  21480283.493    -6128900.79749  -4761517.32047  21480283.849    21480294.396
  23830714.285    -3623352.10649  -2814043.09945  23830714.459    23830732.035
  23785890.708    15772451.61449  12293631.06145  23785890.210    23785906.846
  20474179.629   -22246126.00749 -17183921.90048  20474179.580    20474188.543
  23896415.039    -3934771.37549  -3053797.41545  23896415.267    23896436.346
  24376839.027    -2364362.24949  -1655229.80245  24376838.427    24376856.385
  21901126.202   -11088664.58949  -8630881.91647  21901125.396    21901137.186
  23708700.355    -4268970.04949  -3080767.80245  23708699.709    23708718.542
 03  4  3 20 24  0.0000000  0  9G17G30G29G 5G 6G26G15G10G23
  21800409.017   -17720177.47749 -13798868.10247  21800408.531    21800419.739
  21495531.017    -6048774.90649  -4699081.71947  21495531.373    21495541.901
  23819362.701    -3683005.06149  -2860525.69045  23819362.838    23819380.264
  23806319.422    15879803.98149  12377281.73945  23806319.008    23806335.858
  20469345.963   -22271527.23649 -17203715.06648  20469345.897    20469354.850
  23879612.323    -4023067.52349  -3122599.20145  23879612.589    23879633.820
  24360950.119    -2447858.68749  -1720291.79445  24360949.466    24360967.453
  21914954.744   -11015995.50749  -8574256.75447  21914953.933    21914965.713
  23688882.815    -4373110.89049  -3161916.17345  23688882.239    23688900.926
 03  4  3 20 24 30.0000000  0  9G17G30G29G 5G 6G26G15G10G23
  21791510.880   -17766937.56249 -13835304.49747  21791510.361    21791521.637
  21510850.920    -5968269.11649  -4636350.09447  21510851.257    21510861.760
  23808063.288    -3742383.26849  -2906794.19245  23808063.491    23808080.840
  23826760.477    15987220.80249  12460982.63545  23826760.046    23826777.158
  20464574.086   -22296603.57649 -17223255.07848  20464574.020    20464582.949
  23862830.911    -4111251.58649  -3191313.66245  23862831.276    23862852.495
  24345085.002    -2531230.14749  -1785256.40245  24345084.289    24345102.336
  21928866.327   -10942889.82349  -8517291.39247  21928865.552    21928877.290
  23669097.434    -4477082.74049  -3242932.88345  23669096.885    23669115.466
 03  4  3 20 25  0.0000000  0  9G17G30G29G 5G 6G26G15G10G23
  21782654.344   -17813478.75349 -13871570.31647  21782653.833    21782665.151
  21526242.401    -5887387.02949  -4573325.25647  21526242.752    21526253.235
  23796816.440    -3801484.93749  -2952847.20345  23796816.667    23796833.961
  23847213.126    16094698.48449  12544730.94045  23847212.667    23847229.990
  20459864.105   -22321354.62649 -17242541.61348  20459864.051    20459872.930
  23846071.679    -4199320.84649  -3259938.69745  23846072.008    23846093.016
  24329243.379    -2614477.48649  -1850124.29445  24329242.686    24329260.575
  21942860.306   -10869351.40849  -8459988.83647  21942859.564    21942871.270
  23649344.467    -4580884.21149  -3323816.86045  23649343.890    23649362.197
 03  4  3 20 25 30.0000000  0  9G17G30G29G 5G 6G26G15G10G23
  21773839.635   -17859800.10249 -13907664.83447  21773839.135    21773850.485
  21541705.217    -5806130.26049  -4510008.45947  21541705.547    21541715.974
  23785623.085    -3860306.10949  -2998681.67845  23785623.236    23785640.530
  23867677.051    16202235.45049  12628525.44145  23867676.540    23867694.168
  20455216.583   -22345777.76949 -17261572.63948  20455216.528    20455225.312
  23829335.112    -4287271.09849  -3328471.00545  23829335.574    23829355.903
  24313425.632    -2697599.31749  -1914894.37645  24313424.886    24313442.952
  21956936.400   -10795381.71749  -8402350.23247  21956935.669    21956947.251
  23629624.537    -4684511.89049  -3404565.42945  23629624.072    23629642.244
 03  4  3 20 26  0.0000000  0  9G17G30G29G 5G 6G26G15G10G23
  21765066.498   -17905902.68749 -13943588.88947  21765066.009    21765077.431
  21557238.544    -5724502.53749  -4446402.60247  21557238.904    21557249.264
  23774483.411    -3918844.94049  -3044296.13745  23774483.458    23774500.583
  23888151.528    16309828.07249  12712363.32845  23888151.027    23888168.926
  20450631.559   -22369872.43249 -17280347.69648  20450631.472    20450640.261
  23812621.894    -4375099.59849  -3396908.45845  23812622.245    23812641.956
  24297631.686    -2780596.23249  -1979567.13045  24297631.070    24297649.071
  21971093.967   -10720984.01749  -8344378.11147  21971093.248    21971104.706
  23609938.029    -4787964.27749  -3485177.41445  23609937.511    23609955.670
 03  4  3 20 26 30.0000000  0  9G17G30G29G 5G 6G26G15G10G23
  21756334.669   -17951788.30049 -13979343.87547  21756334.213    21756345.675
  21572841.741    -5642507.95549  -4382510.88147  21572842.102    21572852.435
  23763397.696    -3977099.96549  -3089689.45145  23763397.653    23763414.738
  23908635.774    16417472.33749  12796241.43045  23908635.266    23908653.510
  20446109.022   -22393638.37249 -17298866.61148  20446108.943    20446117.797
  23795932.136    -4462804.32949  -3465249.46745  23795932.279    23795951.877
  24281861.545    -2863469.00549  -2044143.16645  24281860.857    24281878.844
  21985332.108   -10646162.75849  -8286075.94747  21985331.411    21985342.764
  23590285.067    -4891240.33749  -3565652.01745  23590284.597    23590302.696
 03  4  3 20 27  0.0000000  0  9G17G30G29G 5G 6G26G15G10G23
  21747644.534   -17997455.22149 -14014928.45547  21747644.069    21747655.519
  21588514.590    -5560147.23549  -4318333.86347  21588514.952    21588525.301
  23752366.986    -4035066.31049  -3134857.81645  23752366.859    23752383.906
  23929129.773    16525167.73449  12880159.37945  23929129.228    23929147.910
  20441649.632   -22417072.16549 -17317126.71748  20441649.581    20441658.501
  23779266.673    -4550379.92749  -3533489.86845  23779266.727    23779286.540
  24266115.349    -2946215.61549  -2108620.88545  24266114.669    24266132.676
  21999650.728   -10570918.70949  -8227444.34247  21999649.979    21999661.281
  23570666.383    -4994335.70549  -3645985.82345  23570665.918    23570684.173
 03  4  3 20 27 30.0000000  0  9G17G30G29G 5G 6G26G15G10G23
  21738995.984   -18042903.55149 -14050342.69747  21738995.517    21739006.912
  21604256.605    -5477423.19649  -4253873.74347  21604256.944    21604267.390
  23741391.637    -4092741.48449  -3179799.30645  23741391.577    23741408.420
  23949633.086    16632911.37849  12964114.90445  23949632.493    23949651.370
  20437253.744   -22440172.49349 -17335126.98048  20437253.724    20437262.677
  23762626.435    -4637822.84249  -3601626.90545  23762626.547    23762646.509
  24250393.044    -3028836.12949  -2173000.38945  24250392.353    24250410.620
  22014049.227   -10495254.69749  -8168485.48447  22014048.481    22014059.814
  23551082.620    -5097248.17749  -3726177.12245  23551082.166    23551100.407
 03  4  3 20 28  0.0000000  0 10G17G30G29G 5G 6G26G15G10G23G18
  21730388.828   -18088134.60649 -14085587.63147  21730388.345    21730399.677
  21620066.980    -5394339.85149  -4189133.64547  21620067.319    21620077.922
  23730471.930    -4150123.94449  -3224512.72545  23730471.847    23730488.729
  23970144.964    16740699.79949  13048105.32645  23970144.414    23970163.373
  20432921.481   -22462938.91049 -17352867.05648  20432921.453    20432930.412
  23746011.882    -4725130.94049  -3669658.88445  23746011.828    23746032.042
  24234694.554    -3111331.12349  -2237282.07645  24234693.861    24234712.402
  22028526.895   -10419174.54749  -8109202.37247  22028526.129    22028537.536
  23531533.817    -5199976.59049  -3806225.00045  23531533.329    23531551.614
                  -1677027.04849  -1051087.40843
 03  4  3 20 28 30.0000000  0 10G17G30G29G 5G 6G26G15G10G23G18
  21721823.060   -18133148.01549 -14120662.97447  21721822.595    21721833.817
  21635945.405    -5310898.64949  -4124114.69947  21635945.766    21635956.583
  23719608.557    -4207209.45549  -3268994.75845  23719608.507    23719625.495
  23990664.965    16848531.44749  13132129.40645  23990664.527    23990683.732
  20428653.298   -22485368.79949 -17370344.89948  20428653.237    20428662.165
  23729423.810    -4812299.48449  -3737582.11845  23729423.853    23729443.953
  24219020.187    -3193699.41549  -2301465.03545  24219019.533    24219038.003
  22043083.397   -10342679.70449  -8049596.10247  22043082.671    22043094.204
  23512020.651    -5302517.37449  -3886126.68345  23512020.298    23512038.643
                  -1787361.79349  -1137062.25344                  24344623.885
 03  4  3 20 29  0.0000000  0 10G17G30G29G 5G 6G26G15G10G23G18
  21713298.509   -18177945.06149 -14155569.72547  21713298.046    21713309.140
  21651891.173    -5227103.54249  -4058819.98547  21651891.567    21651902.543
  23708802.169    -4263996.75149  -3313244.38845  23708802.118    23708819.077
  24011192.754    16956402.79049  13216184.42445  24011192.247    24011211.669
  20424449.180   -22507461.87549 -17387560.28648  20424449.098    20424458.030
  23712862.741    -4899326.07249  -3805394.75745  23712862.957    23712883.126
  24203369.790    -3275941.73049  -2365549.82045  24203369.167    24203387.483
  22057718.007   -10265774.24549  -7989669.87647  22057717.320    22057728.989
  23492543.412    -5404869.33349  -3965881.21045  23492543.101    23492561.438
  24323626.424    -1897610.58149  -1222969.87844  24323625.884    24323646.500
 03  4  3 20 29 30.0000000  0 10G17G30G29G 5G 6G26G15G10G23G18
  21704815.094   -18222526.09649 -14190308.14547  21704814.619    21704825.537
  21667903.779    -5142957.36649  -3993251.71347  21667904.142    21667915.233
  23698053.238    -4320482.67149  -3357259.19745  23698053.199    23698070.078
  24031727.531    17064311.14149  13300268.25745  24031726.920    24031746.687
  20420309.367   -22529216.47649 -17404511.93348  20420309.304    20420318.283
  23696329.630    -4986207.26149  -3873094.09945  23696329.852    23696350.164
  24187743.569    -3358057.80149  -2429536.25445  24187742.954    24187761.153
  22072430.288   -10188460.60649  -7929425.58947  22072429.555    22072441.463
  23473102.680    -5507030.27049  -4045486.86845  23473102.280    23473120.576
  24302663.673    -2007771.05349  -1308808.78245  24302660.768    24302682.957
 03  4  3 20 30  0.0000000  0 10G17G30G29G 5G 6G26G15G10G23G18
  21696372.911   -18266890.01949 -14224877.38547  21696372.424    21696383.347
  21683982.847    -5058461.74749  -3927411.15747  21683983.251    21683994.369
  23687362.258    -4376663.60149  -3401036.34445  23687362.261    23687379.095
  24052269.180    17172254.83049  13384379.63445  24052268.520    24052288.294
  20416234.494   -22550630.11149 -17421197.89748  20416234.445    20416243.394
  23679825.151    -5072938.61949  -3940676.70245  23679825.369    23679845.532
  24172141.669    -3440046.38049  -2493423.34745  24172141.075    24172159.103
  22087219.881   -10110740.61449  -7868864.66846  22087219.186    22087231.219
  23453698.954    -5608996.75249  -4124940.99045  23453698.423    23453716.697
  24281718.063    -2117839.96949  -1394576.35945  24281717.088    24281736.375
 03  4  3 20 30 30.0000000  0 10G17G30G29G 5G 6G26G15G10G23G18
  21687971.987   -18311037.15849 -14259277.69847  21687971.510    21687982.460
  21700127.965    -4973619.29949  -3861300.34447  21700128.353    21700139.446
  23676729.930    -4432536.75649  -3444573.67945  23676729.871    23676746.575
  24072816.908    17280231.49549  13468516.70345  24072816.215    24072836.224
  20412224.940   -22571701.07549 -17437616.84048  20412224.861    20412233.747
  23663349.959    -5159516.37349  -4008139.61445  23663350.103    23663370.161
  24156563.966    -3521907.11049  -2557210.83645  24156563.479    24156581.363
  22102086.417   -10032616.85749  -7807989.12446  22102085.674    22102097.816
  23434332.607    -5710766.13449  -4204241.50945  23434332.200    23434350.316
  24260790.227    -2227814.70249  -1480270.54145  24260788.935    24260808.894
 03  4  3 20 31  0.0000000  0 10G17G30G29G 5G 6G26G15G10G23G18
  21679612.181   -18354968.06849 -14293509.53147  21679611.697    21679622.663
  21716338.544    -4888433.23349  -3794921.77747  21716338.901    21716349.954
  23666156.452    -4488099.48649  -3487869.12045  23666156.421    23666172.977
  24093370.330    17388238.17249  13552677.15245  24093369.776    24093389.727
  20408280.679   -22592428.40449 -17453768.01648  20408280.581    20408289.474
  23646904.547    -5245937.32949  -4075480.36845  23646904.679    23646924.544
  24141010.621    -3603640.06749  -2620898.74045  24141010.057    24141027.596
  22117029.115    -9954092.78349  -7746801.64746  22117028.389    22117040.571
  23415004.080    -5812336.52849  -4283386.95845  23415003.741    23415021.746
  24239880.559    -2337693.45049  -1565889.98445  24239879.710    24239899.458
 03  4  3 20 31 30.0000000  0 10G17G30G29G 5G 6G26G15G10G23G18
  21671293.546   -18398682.41549 -14327572.61547  21671293.076    21671304.066
  21732614.020    -4802905.72349  -3728277.14447  21732614.364    21732625.482
  23655642.481    -4543348.60349  -3530920.19345  23655642.580    23655659.045
  24113929.018    17496272.81449  13636859.39845  24113928.493    24113948.646
  20404402.213   -22612809.79849 -17469649.62848  20404402.126    20404410.976
  23630489.745    -5332197.61649  -4142695.91845  23630489.713    23630509.543
  24125481.533    -3685244.47049  -2684486.46645  24125481.117    24125498.456
  22132047.656    -9875170.24949  -7685303.66646  22132046.923    22132059.080
  23395714.137    -5913705.03349  -4362375.05345  23395713.805    23395731.642
  24218989.743    -2447473.31949  -1651432.37645  24218989.103    24219008.876
 03  4  3 20 32  0.0000000  0 10G17G30G29G 5G 6G26G15G10G23G18
  21663016.034   -18442180.85749 -14361467.46047  21663015.556    21663026.529
  21748953.843    -4717039.87549  -3661368.87147  21748954.182    21748965.470
  23645188.824    -4598281.82149  -3573725.10445  23645188.997    23645205.282
  24134492.498    17604332.64749  13721061.25145  24134491.948    24134512.269
  20400589.821   -22632844.17049 -17485260.83648  20400589.736    20400598.560
  23614105.893    -5418293.75349  -4209783.56945  23614105.945    23614125.936
  24109977.110    -3766720.24349  -2747973.96045  24109976.661    24109994.047
  22147141.475    -9795852.16849  -7623497.48346  22147140.743    22147152.839
  23376462.994    -6014869.44249  -4441204.10945  23376462.603    23376480.367
  24198118.128    -2557152.26249  -1736896.16645  24198117.683    24198137.423
 03  4  3 20 32 30.0000000  0 10G17G30G29G 5G 6G26G15G10G23G18
  21654779.360   -18485464.73349 -14395195.11347  21654778.879    21654789.848
  21765357.253    -4630839.72449  -3594200.10247  21765357.606    21765369.066
  23634795.622    -4652897.54549  -3616282.64145  23634795.851    23634812.020
  24155060.211    17712413.99749  13805279.87745  24155059.489    24155080.052
  20396843.524   -22652531.23349 -17500601.41348  20396843.439    20396852.258
  23597753.592    -5504223.66849  -4276741.70645  23597753.716    23597773.799
  24094496.957    -3848068.46249  -2811362.06345  24094496.487    24094513.991
  22162309.756    -9716142.57949  -7561386.23346  22162309.073    22162321.082
  23357250.888    -6115828.77949  -4519873.35345  23357250.463    23357268.178
  24177265.930    -2666729.48449  -1822280.67645  24177265.428    24177285.487
 03  4  3 20 33  0.0000000  0 10G17G30G29G 5G 6G26G15G10G23G18
  21646583.627   -18528533.65849 -14428755.27047  21646583.142    21646594.048
  21781823.897    -4544307.27349  -3526772.40047  21781824.267    21781835.871
  23624463.653    -4707192.22749  -3658590.01245  23624463.864    23624479.758
  24175631.566    17820515.10749  13889513.88645  24175630.859    24175651.628
  20393163.702   -22671868.69149 -17515669.56848  20393163.607    20393172.451
  23581433.806    -5589982.91749  -4343566.86345  23581433.963    23581454.066
  24079041.362    -3929288.10149  -2874649.97845  24079040.797    24079058.452
  22177552.188    -9636043.64449  -7498971.59246  22177551.490    22177563.464
  23338078.392    -6216580.04649  -4598380.44645  23338077.876    23338095.575
  24156433.637    -2776201.80449  -1907583.47745  24156433.320    24156453.285
 03  4  3 20 33 30.0000000  0 10G17G30G29G 5G 6G26G15G10G23G18
  21638428.812   -18571387.71049 -14462147.99747  21638428.318    21638439.099
  21798353.348    -4457445.31149  -3459087.94947  21798353.703    21798365.326
  23614193.341    -4761163.33249  -3700645.25545  23614193.394    23614209.104
  24196206.395    17928633.41149  13973761.29045  24196205.624    24196226.382
  20389550.667   -22690855.20149 -17530464.25748  20389550.588    20389559.426
  23565147.289    -5675568.31649  -4410256.54745  23565147.507    23565167.334
  24063610.204    -4010379.00849  -2937837.57845  24063609.650    24063627.253
  22192868.227    -9555558.16949  -7436255.74746  22192867.487    22192879.394
  23318945.847    -6317120.89449  -4676723.57345  23318945.310    23318962.938
  24135621.848    -2885566.95349  -1992802.76545  24135621.567    24135641.506
 03  4  3 20 34  0.0000000  0 10G17G30G29G 5G 6G26G15G10G23G18
  21630314.627   -18614027.71249 -14495373.93547  21630314.096    21630324.878
  21814944.886    -4370257.31449  -3391149.44747  21814945.197    21814956.786
  23603984.762    -4814808.48249  -3742446.52345  23603984.872    23604000.478
  24216783.800    18036765.69749  14058019.57945  24216783.029    24216803.926
  20386004.619   -22709489.85549 -17544984.77148  20386004.553    20386013.355
  23548894.713    -5760976.42549  -4476808.07745  23548895.019    23548914.287
  24048203.558    -4091341.38749  -3000924.99545  24048202.936    24048220.424
  22208257.208    -9474689.19849  -7373241.08246  22208256.454    22208268.272
  23299853.631    -6417449.44149  -4754901.27045  23299853.058    23299870.643
  24114830.871    -2994823.21149  -2077937.23245  24114830.710    24114850.441
 03  4  3 20 34 30.0000000  0 10G17G30G29G 5G 6G26G15G10G23G18
  21622241.011   -18656454.19749 -14528433.48847  21622240.515    21622251.406
  21831597.970    -4282745.56249  -3322958.66547  21831598.269    21831609.822
  23593838.981    -4868124.62249  -3783991.41445  23593838.985    23593854.541
  24237363.508    18144910.19249  14142287.39945  24237362.901    24237383.792
  20382526.001   -22727770.44749 -17559229.39148  20382525.921    20382534.714
  23532676.579    -5846203.30349  -4543218.39845  23532676.767    23532695.767
  24032821.456    -4172174.42849  -3063911.65445  24032820.795    24032838.308
  22223718.709    -9393439.39849  -7309929.66446  22223717.950    22223729.604
  23280802.221    -6517562.90649  -4832911.37145  23280801.687    23280819.317
  24094061.255    -3103967.60849  -2162984.51945  24094061.149    24094080.589
 03  4  3 20 35  0.0000000  0 10G17G30G29G 5G 6G26G15G10G23G18
  21614208.239   -18698666.46649 -14561326.12447  21614207.745    21614218.635
  21848312.202    -4194912.59649  -3254517.58947  21848312.488    21848324.012
  23583756.397    -4921108.81249  -3825277.66745  23583756.306    23583771.706
  24257945.029    18253064.38249  14226562.75945  24257944.563    24257965.536
  20379114.935   -22745695.54449 -17573197.00548  20379114.852    20379123.694
  23516493.411    -5931245.29249  -4609484.65845  23516493.561    23516512.516
  24017464.145    -4252877.77449  -3126797.22145  24017463.515    24017480.817
  22239252.285    -9311811.15349  -7246323.36246  22239251.506    22239263.034
  23261792.104    -6617458.94349  -4910752.05545  23261791.628    23261809.325
  24073313.344    -3212997.97749  -2247942.95245  24073313.272    24073332.642
 03  4  3 20 35 30.0000000  0 10G17G30G29G 5G 6G26G15G10G23G18
  21606216.041   -18740665.70749 -14594052.76447  21606215.538    21606226.395
  21865086.859    -4106761.99549  -3185829.00347  21865087.165    21865098.680
  23573737.242    -4973759.25149  -3866303.84345  23573737.171    23573752.565
  24278527.643    18361224.86649  14310843.01245  24278527.424    24278548.342
  20375771.707   -22763264.33949 -17586886.97548  20375771.627    20375780.462
  23500345.986    -6016099.59049  -4675604.65045  23500346.079    23500365.034
  24002131.441    -4333451.84649  -3189582.03645  24002130.861    24002147.896
  22254857.148    -9229807.95749  -7182424.88846  22254856.343    22254867.757
  23242823.595    -6717135.96249  -4988422.07645  23242823.110    23242841.153
  24052587.411    -3321912.57449  -2332811.17945  24052587.141    24052606.551
 03  4  3 20 36  0.0000000  0 10G17G30G29G 5G 6G26G15G10G23G18
  21598264.467   -18782451.45949 -14626613.05347  21598263.933    21598274.783
  21881921.556    -4018295.59649  -3116894.34747  21881921.890    21881933.394
  23563782.099    -5026072.17149  -3907067.02545  23563782.164    23563797.757
  24299111.406    18469390.44949  14395127.24345  24299111.114    24299132.181
  20372496.815   -22780474.35449 -17600297.38248  20372496.714    20372505.531
  23484235.186    -6100761.79749  -4741574.95045  23484235.352    23484254.007
  23986823.260    -4413895.54449  -3252265.26045  23986822.699    23986839.771
  22270532.998    -9147431.48649  -7118235.54746  22270532.211    22270543.545
  23223897.489    -6816590.49049  -5065918.74045  23223897.032    23223915.250
  24031883.976    -3430708.08649  -2417586.61545  24031883.884    24031903.247
 03  4  3 20 36 30.0000000  0 10G17G30G29G 5G 6G26G15G10G23G18
  21590353.452   -18824023.74649 -14659007.00947  21590352.910    21590363.830
  21898815.946    -3929516.21349  -3047715.80547  21898816.255    21898827.796
  23553891.776    -5078044.90449  -3947565.10545  23553891.841    23553907.768
  24319695.668    18577558.56049  14479413.43945  24319695.293    24319716.517
  20369290.434   -22797324.08549 -17613427.04748  20369290.324    20369299.147
  23468161.513    -6185227.94849  -4807392.46945  23468161.850    23468180.354
  23971539.882    -4494208.41849  -3314846.54845  23971539.369    23971556.478
  22286279.236    -9064684.79249  -7053757.73246  22286278.441    22286289.903
  23205014.143    -6915820.38849  -5143240.39645  23205013.794    23205032.126
  24011203.680    -3539382.34949  -2502267.57745  24011203.521    24011222.972
 03  4  3 20 37  0.0000000  0 10G17G30G29G 5G 6G26G15G10G23G18
  21582482.923   -18865383.07849 -14691235.01647  21582482.418    21582493.339
  21915769.198    -3840427.09649  -2978295.91347  21915769.508    21915781.133
  23544066.775    -5129674.99949  -3987796.21145  23544066.832    23544082.863
  24340279.978    18685726.52749  14563699.52345  24340279.673    24340300.767
  20366152.799   -22813812.29249 -17626275.00848  20366152.706    20366161.583
  23452125.942    -6269495.16449  -4873054.97345  23452126.251    23452144.629
  23956281.512    -4574390.46149  -3377325.90245  23956281.012    23956298.111
  22302095.352    -8981570.63649  -6988993.57046  22302094.581    22302106.234
  23186174.021    -7014823.51049  -5220385.33845  23186173.698    23186192.068
  23990547.006    -3647933.15549  -2586852.32145  23990546.850    23990566.232
 03  4  3 20 37 30.0000000  0 10G17G30G29G 5G 6G26G15G10G23G18
  21574652.681   -18906531.10849 -14723298.38647  21574652.199    21574663.047
  21932780.591    -3751032.16249  -2908637.71747  21932780.912    21932792.678
  23534307.328    -5180961.13049  -4027759.28545  23534307.348    23534323.420
  24360863.465    18793890.54349  14647982.54545  24360863.173    24360884.205
  20363084.005   -22829938.81149 -17638841.13648  20363083.930    20363092.833
  23436128.584    -6353560.82749  -4938560.40845  23436128.906    23436147.358
  23941047.859    -4654442.83549  -3439704.19545  23941047.398    23941064.500
  22317980.589    -8898093.12449  -6923946.27746  22317979.834    22317991.728
  23167377.316    -7113598.90649  -5297352.85245  23167376.940    23167395.370
  23969914.106    -3756359.59649  -2671340.14745  23969913.924    23969933.161
 03  4  3 20 38  0.0000000  0 10G17G30G29G 5G 6G26G15G10G23G18
  21566862.915   -18947466.72449 -14755196.23147  21566862.442    21566873.244
  21949849.805    -3661333.31349  -2838742.70647  21949850.135    21949862.052
  23524613.941    -5231899.79349  -4067451.61545  23524613.949    23524630.076
  24381445.848    18902049.13149  14732261.30945  24381445.694    24381466.877
  20360084.574   -22845701.12149 -17651123.46948  20360084.487    20360093.374
  23420170.200    -6437420.61949  -5003905.42145  23420170.565    23420189.272
  23925839.210    -4734364.33749  -3501980.51245  23925838.677    23925855.912
  22333934.548    -8814254.07549  -6858617.27646  22333933.830    22333945.972
  23148624.723    -7212143.46249  -5374140.51545  23148624.292    23148642.644
  23949305.417    -3864658.47949  -2755728.55245  23949305.052    23949324.161
 03  4  3 20 38 30.0000000  0 10G17G30G29G 5G 6G26G15G10G23G18
  21559113.348   -18988190.87049 -14786929.29047  21559112.867    21559123.711
  21966976.279    -3571333.93049  -2768613.52547  21966976.579    21966988.617
  23514987.008    -5282488.73549  -4106871.43245  23514987.034    23515003.251
  24402026.599    19010199.19749  14816533.45145  24402026.457    24402047.886
  20357154.599   -22861098.41849 -17663121.37048  20357154.515    20357163.402
  23404251.468    -6521071.40449  -5069087.56345  23404251.865    23404270.828
  23910655.352    -4814155.39449  -3564155.19145  23910654.858    23910671.895
  22349956.690    -8730057.01949  -6793009.30446  22349955.997    22349968.330
  23129916.459    -7310455.40049  -5450746.91645  23129915.963    23129934.143
  23928721.165    -3972828.08249  -2840016.20945  23928720.762    23928739.836
 03  4  3 20 39  0.0000000  0 10G17G30G29G 5G 6G26G15G10G23G18
  21551404.087   -19028703.24849 -14818497.33647  21551403.574    21551414.453
  21984159.422    -3481036.21849  -2698251.87547  21984159.713    21984171.894
  23505427.193    -5332724.71049  -4146016.20445  23505427.261    23505443.532
  24422605.352    19118338.75849  14900797.40944  24422605.143    24422626.472
  20354294.481   -22876128.63949 -17674833.23848  20354294.385    20354303.289
  23388373.408    -6604509.01049  -5134103.59945  23388373.877    23388392.881
  23895496.757    -4893814.94649  -3626227.40845  23895496.192    23895512.914
  22366046.592    -8645503.82849  -6727123.82246  22366045.959    22366058.444
  23111253.040    -7408531.70949  -5527169.72945  23111252.553    23111270.488
  23908161.970    -4080865.55249  -2924200.88445  23908161.715    23908180.738
 03  4  3 20 39 30.0000000  0 10G17G30G29G 5G 6G26G15G10G23G18
  21543734.828   -19069005.20049 -14849901.41447  21543734.343    21543745.294
  22001398.568    -3390443.78249  -2627660.56747  22001398.908    22001411.240
  23495935.214    -5382606.01149  -4184884.59945  23495935.262    23495951.363
  24443181.497    19226464.82349  14985050.82544  24443180.977    24443202.582
  20351504.268   -22890791.00049 -17686258.46648  20351504.197    20351513.126
  23372536.656    -6687730.61049  -5198951.30545  23372537.110    23372556.115
  23880362.940    -4973343.48249  -3688197.53445  23880362.329    23880378.920
  22382203.679    -8560598.04349  -6660963.59646  22382203.063    22382215.687
  23092634.791    -7506370.86149  -5603407.76645  23092634.302    23092651.933
  23887628.238    -4188769.04249  -3008281.14745  23887628.070    23887647.108
 03  4  3 20 40  0.0000000  0 10G17G30G29G 5G 6G26G15G10G23G18
  21536105.699   -19109096.31149 -14881141.20147  21536105.215    21536116.170
  22018693.356    -3299559.22249  -2556841.63347  22018693.755    22018706.137
  23486511.250    -5432129.49949  -4223474.18546  23486511.277    23486527.199
  24463754.688    19334575.25149  15069292.09244  24463754.284    24463775.446
  20348784.462   -22905083.63749 -17697395.59248  20348784.370    20348793.311
  23356741.882    -6770732.42349  -5263627.74445  23356742.284    23356761.030
  23865253.910    -5052740.65349  -3750065.32845  23865253.349    23865270.117
  22398427.440    -8475342.03349  -6594530.46746  22398426.841    22398439.609
  23074062.105    -7603970.32449  -5679459.03045  23074061.630    23074078.972
  23867120.688    -4296536.01449  -3092255.01745  23867120.547    23867139.351
 03  4  3 20 40 30.0000000  0 10G17G30G29G 5G 6G26G15G10G23G18
  21528516.550   -19148977.49049 -14912217.39747  21528516.029    21528527.000
  22036043.201    -3208385.64249  -2485797.49647  22036043.594    22036055.984
  23477155.668    -5481293.09649  -4261783.33146  23477155.713    23477171.489
  24484324.352    19442667.14849  15153518.91544  24484324.242    24484345.002
  20346135.201   -22919005.53749 -17708243.82848  20346135.104    20346144.071
  23340989.401    -6853511.10049  -5328130.29745  23340989.750    23341008.407
  23850170.011    -5132006.36449  -3811830.69345  23850169.472    23850186.289
  22414717.318    -8389738.96749  -6527826.90346  22414716.664    22414729.599
  23055535.207    -7701328.20449  -5755322.06445  23055534.786    23055551.997
  23846639.555    -4404164.67849  -3176121.09345  23846639.365    23846657.851
 03  4  3 20 41  0.0000000  0 10G17G30G29G 5G 6G26G15G10G23G18
  21520967.251   -19188648.60549 -14943129.91647  21520966.765    21520977.790
  22053447.571    -3116925.86649  -2414530.33947  22053447.985    22053460.347
  23467869.090    -5530094.20649  -4299810.01546  23467869.142    23467884.693
  24504890.041    19550738.25649  15237729.51544  24504889.785    24504910.351
  20343556.751   -22932555.29249 -17718802.08748  20343556.649    20343565.613
  23325280.023    -6936062.98049  -5392456.13345  23325280.455    23325298.860
  23835111.259    -5211140.61649  -3873493.61545  23835110.696    23835127.369
  22431072.752    -8303791.74249  -6460855.16546  22431072.072    22431085.023
  23037054.844    -7798442.13749  -5830995.01946  23037054.509    23037071.477
  23826185.088    -4511652.82049  -3259877.66345  23826184.796    23826203.113
 03  4  3 20 41 30.0000000  0 10G17G30G29G 5G 6G26G15G10G23G18
  21513458.063   -19228109.40049 -14973878.54847  21513457.603    21513468.582
  22070906.076    -3025182.62449  -2343042.31147  22070906.429    22070918.708
  23458652.115    -5578529.89449  -4337551.96446  23458652.123    23458667.427
  24525451.326    19658786.42549  15321922.26444  24525451.152    24525471.710
  20341049.423   -22945731.29449 -17729069.10948  20341049.335    20341058.321
  23309614.614    -7018384.43849  -5456602.44545  23309615.049    23309633.396
  23820077.487    -5290143.01449  -3935053.78645  23820076.904    23820093.553
  22447493.303    -8217502.95749  -6393617.28846  22447492.573    22447505.394
  23018621.536    -7895309.69749  -5906476.00846  23018621.190    23018637.911
  23805757.683    -4618997.75849  -3343522.64845  23805757.298    23805775.627
 03  4  3 20 42  0.0000000  0 10G17G30G29G 5G 6G26G15G10G23G18
  21505988.690   -19267361.46449 -15004464.52647  21505988.204    21505999.109
  22088417.866    -2933159.28349  -2271336.02647  22088418.186    22088430.373
  23449504.853    -5626598.33549  -4375007.74146  23449504.896    23449520.042
  24546007.660    19766808.49849  15406094.65144  24546007.532    24546028.204
  20338613.391   -22958532.80249 -17739044.31748  20338613.331    20338622.312
  23293993.913    -7100472.49349  -5520566.86445  23293994.144    23294012.359
  23805068.748    -5369013.67949  -3996511.31445  23805068.174    23805084.891
  22463978.181    -8130875.77849  -6326115.71746  22463977.422    22463990.062
  23000235.447    -7991929.21549  -5981763.70746  23000235.029    23000251.606
  23785357.696    -4726197.83949  -3427054.73445  23785357.401    23785375.647
 03  4  3 20 42 30.0000000  0 10G17G30G29G 5G 6G26G15G10G23G18
  21498559.036   -19306404.36749 -15034887.51847  21498558.548    21498569.418
  22105982.454    -2840858.17249  -2199413.29747  22105982.806    22105994.920
  23440428.047    -5674296.10549  -4412174.67546  23440428.040    23440443.307
  24566558.865    19874802.80449  15490245.40644  24566558.806    24566579.330
  20336249.111   -22970957.44249 -17748725.85748  20336249.038    20336257.975
  23278418.314    -7182322.67649  -5584345.95445  23278418.477    23278436.534
  23790085.192    -5447751.57049  -4057865.38045  23790084.677    23790101.504
  22480527.031    -8043912.28449  -6258352.08046  22480526.225    22480538.640
  22981897.045    -8088297.55749  -6056855.70746  22981896.664    22981913.155
  23764985.968    -4833250.00449  -3510471.57545  23764985.743    23765003.701
 03  4  3 20 43  0.0000000  0 10G17G30G29G 5G 6G26G15G10G23G18
  21491169.237   -19345238.09249 -15065147.51947  21491168.744    21491179.567
  22123599.381    -2748281.94249  -2127276.19547  22123599.710    22123611.835
  23431422.083    -5721620.86649  -4449050.95946  23431422.145    23431437.625
  24587104.247    19982766.80649  15574372.56244  24587103.951    24587124.828
  20333956.765   -22983003.99649 -17758112.78748  20333956.685    20333965.614
  23262888.531    -7263931.68749  -5647937.10345  23262888.658    23262906.621
  23775127.059    -5526356.59349  -4119115.89545  23775126.593    23775143.237
  22497139.254    -7956615.53149  -6190328.77046  22497138.445    22497150.611
  22963606.838    -8184412.64249  -6131750.35146  22963606.397    22963622.827
  23744642.610    -4940152.27249  -3593771.59545  23744642.587    23744660.412
 03  4  3 20 43 30.0000000  0 10G17G30G29G 5G 6G26G15G10G23G18
  21483819.064   -19383863.43149 -15095245.14147  21483818.592    21483829.314
  22141267.907    -2655434.22349  -2054927.53947  22141268.248    22141280.432
  23422487.563    -5768570.75649  -4485635.12346  23422487.610    23422503.192
  24607643.139    20090697.43049  15658473.69744  24607642.882    24607663.765
  20331736.453   -22994671.66149 -17767204.47248  20331736.382    20331745.346
  23247405.152    -7345296.43749  -5711337.92445  23247405.277    23247423.234
  23760194.144    -5604829.38149  -4180263.37245  23760193.700    23760210.358
  22513814.197    -7868988.85549  -6122048.37546  22513813.381    22513825.367
  22945364.919    -8280272.96349  -6206446.47646  22945364.495    22945380.918
  23724328.192    -5046903.08349  -3676953.61945  23724328.221    23724345.813
 03  4  3 20 44  0.0000000  0 10G17G30G29G 5G 6G26G15G10G23G18
  21476508.809   -19422279.56649 -15125179.74947  21476508.293    21476518.896
  22158987.713    -2562317.01349  -1982368.88947  22158988.081    22159000.362
  23413625.180    -5815142.18549  -4521924.37646  23413625.195    23413640.848
  24628175.530    20198593.28749  15742547.77044  24628175.288    24628196.736
  20329588.777   -23005958.05049 -17775999.06348  20329588.708    20329597.618
  23231969.069    -7426412.53349  -5774544.99645  23231969.193    23231987.239
  23745286.562    -5683168.77749  -4241306.93045  23745286.190    23745302.847
  22530551.494    -7781034.10549  -6053512.32846  22530550.664    22530562.612
  22927172.096    -8375875.37049  -6280941.61846  22927171.719    22927188.007
  23704043.301    -5153499.06149  -3760014.98645  23704043.273    23704060.726
 03  4  3 20 44 30.0000000  0 10G17G30G29G 5G 6G26G15G10G23G18
  21469237.938   -19460488.18249 -15154952.65047  21469237.426    21469247.967
  22176758.090    -2468934.21449  -1909603.29147  22176758.439    22176770.833
  23404835.258    -5861333.60349  -4557917.50546  23404835.180    23404850.778
  24648700.678    20306451.11649  15826592.18044  24648700.428    24648721.633
  20327513.676   -23016862.66149 -17784496.16148  20327513.575    20327522.503
  23216580.913    -7507277.12149  -5837556.09445  23216580.996    23216599.009
  23730404.613    -5761375.35049  -4302246.95445  23730404.063    23730420.723
  22547350.485    -7692754.89049  -5984723.47446  22547349.605    22547361.647
  22909028.704    -8471218.48049  -6355234.71546  22909028.351    22909044.457
  23683788.371    -5259938.74349  -3842954.59345  23683788.305    23683805.668
 03  4  3 20 45  0.0000000  0 10G17G30G29G 5G 6G26G15G10G23G18
  21462006.340   -19498489.99749 -15184564.40847  21462005.813    21462016.395
  22194578.379    -2375289.01649  -1836633.22547  22194578.723    22194591.159
  23396117.801    -5907143.14449  -4593613.05646  23396117.735    23396133.327
  24669217.952    20414267.92749  15910604.65844  24669217.655    24669239.431
  20325511.292   -23027384.77549 -17792695.21048  20325511.221    20325520.222
  23201240.984    -7587887.38249  -5900369.02245  23201241.036    23201259.139
  23715547.669    -5839449.47049  -4363083.76345  23715547.058    23715563.601
  22564210.519    -7604154.73149  -5915684.51146  22564209.653    22564221.812
  22890935.042    -8566300.68449  -6429324.49046  22890934.656    22890950.568
  23663563.565    -5366220.67149  -3925771.27945  23663563.296    23663580.514
 03  4  3 20 45 30.0000000  0 10G17G30G29G 5G 6G26G15G10G23G18
  21454814.241   -19536284.12549 -15214014.33447  21454813.752    21454824.347
  22212448.221    -2281383.51449  -1763460.33247  22212448.561    22212461.008
  23387473.855    -5952567.36049  -4629008.37346  23387473.779    23387489.234
  24689727.151    20522042.21349  15994583.94944  24689726.587    24689748.751
  20323582.207   -23037522.08349 -17800594.41248  20323582.167    20323591.166
  23185950.192    -7668238.73249  -5962980.20945  23185950.261    23185968.469
  23700716.004    -5917390.10049  -4423816.54545  23700715.336    23700731.840
  22581131.361    -7515235.19149  -5846396.71046  22581130.509    22581142.780
  22872891.604    -8661118.75949  -6503208.45546  22872891.217    22872906.983
  23643369.317    -5472341.31649  -4008462.29745  23643368.947    23643386.017
 03  4  3 20 46  0.0000000  0 10G17G30G29G 5G 6G26G15G10G23G18
  21447661.708   -19573870.65849 -15243302.49347  21447661.223    21447671.808
  22230367.089    -2187220.47049  -1690086.75646  22230367.406    22230379.770
  23378903.696    -5997603.84149  -4664101.55446  23378903.582    23378918.842
  24710227.752    20629771.64049  16078528.29844  24710227.353    24710249.820
  20321726.707   -23047273.08949 -17808192.60648  20321726.631    20321735.626
  23170709.294    -7748327.53349  -6025386.80745  23170709.393    23170727.737
  23685909.685    -5995196.83549  -4484445.01045  23685909.077    23685925.486
  22598112.374    -7425999.39049  -5776862.46946  22598111.572    22598123.893
  22854898.957    -8755670.48549  -6576884.88446  22854898.513    22854914.066
  23623206.107    -5578298.83449  -4091026.23545  23623205.735    23623222.467
 03  4  3 20 46 30.0000000  0 10G17G30G29G 5G 6G26G15G10G23G18
  21440548.567   -19611250.57249 -15272429.64647  21440548.058    21440558.627
  22248334.280    -2092803.27349  -1616515.15046  22248334.598    22248346.905
  23370407.499    -6042250.46749  -4698890.93846  23370407.464    23370422.776
  24730719.164    20737453.25549  16162435.41844  24730718.828    24730741.452
  20319944.821   -23056636.90349 -17815489.08548  20319944.755    20319953.716
  23155519.034    -7828150.83349  -6087586.52945  23155519.238    23155537.616
  23671128.857    -6072870.10349  -4544969.45845  23671128.210    23671144.640
  22615153.076    -7336450.37549  -5707084.15146  22615152.296    22615164.619
  22836957.259    -8849954.32349  -6650352.55746  22836956.814    22836972.190
  23603074.300    -5684091.18749  -4173461.48845  23603073.913    23603090.437
 03  4  3 20 47  0.0000000  0 10G17G30G29G 5G 6G26G15G10G23G18
  21433474.721   -19648423.64949 -15301395.63747  21433474.225    21433484.772
  22266349.256    -1998134.65949  -1542747.62446  22266349.597    22266361.905
  23361985.866    -6086504.81949  -4733374.66046  23361985.854    23362001.454
  24751201.223    20845084.94849  16246303.65444  24751200.889    24751223.754
  20318236.974   -23065611.88349 -17822482.58848  20318236.907    20318245.858
  23140380.214    -7907704.57849  -6149576.21845  23140380.508    23140398.628
  23656373.397    -6150409.40749  -4605389.51045  23656372.804    23656389.186
  22632252.920    -7246590.60549  -5637063.68746  22632252.127    22632264.511
  22819067.007    -8943967.71749  -6723609.49746  22819066.589    22819081.839
  23582974.299    -5789715.75649  -4255766.02945  23582973.968    23582990.160
 03  4  3 20 47 30.0000000  0 10G17G30G29G 5G 6G26G15G10G23G18
  21426440.244   -19685389.91549 -15330200.46647  21426439.755    21426450.279
  22284411.548    -1903217.26549  -1468786.25046  22284411.952    22284424.275
  23353639.527    -6130364.00649  -4767550.45546  23353639.512    23353655.186
  24771673.417    20952664.60749  16330131.32344  24771673.377    24771696.480
  20316603.436   -23074196.42649 -17829171.84948  20316603.348    20316612.328
  23125293.681    -7986985.22249  -6211353.08845  23125293.793    23125311.761
  23641643.520    -6227814.41449  -4665704.92545  23641642.912    23641659.315
  22649411.376    -7156422.89549  -5566803.28346  22649410.569    22649423.070
  22801228.549    -9037708.48249  -6796653.99946  22801228.129    22801243.356
  23562906.699    -5895170.29949  -4337938.08245  23562906.341    23562922.592
 03  4  3 20 48  0.0000000  0 10G17G30G29G 5G 6G26G15G10G23G18
  21419444.782   -19722151.08249 -15358845.48147  21419444.287    21419454.787
  22302520.632    -1808054.99549  -1394634.06846  22302520.995    22302533.255
  23345368.809    -6173826.56649  -4801417.18446  23345368.768    23345384.246
  24792134.795    21060188.95549  16413915.90944  24792134.600    24792157.743
  20315044.172   -23082390.34249 -17835556.73048  20315044.098    20315053.091
  23110259.571    -8065990.07849  -6272915.09245  23110259.600    23110277.406
  23626939.110    -6305085.80449  -4725916.23145  23626938.481    23626954.969
  22666627.734    -7065950.75049  -5496305.64446  22666626.951    22666639.506
  22783442.123    -9131175.35149  -6869485.07046  22783441.732    22783457.083
  23542871.597    -6000453.51649  -4419976.66645  23542871.121    23542887.606
 03  4  3 20 48 30.0000000  0 10G17G30G29G 5G 6G26G15G10G23G18
  21412488.408   -19758707.21949 -15387330.73147  21412487.913    21412498.402
  22320675.780    -1712650.76849  -1320293.35146  22320676.067    22320688.326
  23337173.961    -6216890.26849  -4834973.11746  23337173.901    23337189.256
  24812585.202    21167655.67148  16497655.59544  24812585.483    24812609.116
  20313559.550   -23090192.33349 -17841636.21548  20313559.455    20313568.424
  23095278.458    -8144715.74749  -6334259.55245  23095278.542    23095296.124
  23612260.225    -6382223.22749  -4786023.14345  23612259.554    23612276.039
  22683901.483    -6975176.97849  -5425572.98146  22683900.662    22683913.322
  22765708.126    -9224366.21749  -6942101.08346  22765707.829    22765723.358
  23522869.420    -6105562.97949  -4501879.87545  23522869.117    23522885.625
 03  4  3 20 49  0.0000000  0  9G17G30G29G 6G26G15G10G23G18
  21405571.534   -19795055.56849 -15415654.07247  21405571.032    21405581.514
  22338876.877    -1617004.50749  -1245764.03446  22338877.147    22338889.436
  23329055.930    -6259549.78349  -4868214.11045  23329055.811    23329071.240
  20312150.318   -23097598.06949 -17847406.93448  20312150.231    20312159.174
  23080351.588    -8223155.65349  -6395381.32745  23080351.706    23080369.048
  23597607.188    -6459223.82249  -4846023.46345  23597606.507    23597623.018
  22701232.623    -6884101.63449  -5354605.32846  22701231.853    22701244.613
  22748027.702    -9317276.08249  -7014498.14746  22748027.409    22748043.075
  23502901.434    -6210494.02749  -4583644.06445  23502901.181    23502917.485
 03  4  3 20 49 30.0000000  0  9G17G30G29G 6G26G15G10G23G18
  21398693.451   -19831199.89749 -15443818.44347  21398692.973    21398703.449
  22357122.851    -1521122.24849  -1171050.82246  22357123.125    22357135.456
  23321014.494    -6301806.08149  -4901140.91145  23321014.439    23321029.927
  20310816.138   -23104609.28349 -17852870.23248  20310816.055    20310824.980
  23065479.030    -8301309.33949  -6456280.08645  23065479.271    23065496.567
  23582979.806    -6536090.36149  -4905919.32245  23582979.083    23582995.641
  22718620.106    -6792730.51149  -5283407.19046  22718619.357    22718632.209
  22730400.677    -9409905.85549  -7086676.94946  22730400.331    22730416.120
  23482967.557    -6315247.14749  -4665269.60645  23482967.130    23482983.333
 03  4  3 20 50  0.0000000  0  9G17G30G29G 6G26G15G10G23G18
  21391854.090   -19867140.74149 -15471824.24647  21391853.598    21391864.166
  22375412.927    -1425007.65849  -1096156.57846  22375413.214    22375425.672
  23313050.249    -6343657.33049  -4933752.09545  23313050.181    23313065.526
  20309557.169   -23111225.50249 -17858025.74348  20309557.076    20309565.976
  23050661.679    -8379174.13749  -6516953.73745  23050661.950    23050679.199
  23568377.871    -6612823.62949  -4965711.32045  23568377.113    23568393.786
  22736063.161    -6701067.13549  -5211981.32846  22736062.441    22736075.392
  22712827.214    -9502254.30249  -7158636.53746  22712826.838    22712842.694
  23463067.711    -6419820.87349  -4746755.36045  23463067.267    23463083.313
 03  4  3 20 50 30.0000000  0  9G17G30G29G 6G26G15G10G23G18
  21385053.610   -19902876.96649 -15499670.60447  21385053.126    21385063.762
  22393746.830    -1328662.21349  -1021082.44846  22393747.141    22393759.866
  23305163.959    -6385099.70149  -4966044.66645  23305163.861    23305179.018
  20308373.872   -23117443.83649 -17862871.21348  20308373.795    20308382.681
  23035900.349    -8456744.78449  -6577398.17646  23035900.518    23035917.832
  23553801.618    -6689421.73449  -5025398.01545  23553800.883    23553817.615
  22753561.478    -6609112.67349  -5140328.63846  22753560.807    22753573.896
  22695307.912    -9594317.66749  -7230373.98146  22695307.556    22695323.428
  23443202.622    -6524211.56749  -4828098.49845  23443202.269    23443218.252
 03  4  3 20 51  0.0000000  0  9G17G30G29G 6G26G15G10G23G18
  21378291.667   -19938410.98849 -15527359.40547  21378291.177    21378301.870
  22412123.889    -1232090.56549   -945832.05946  22412124.219    22412137.135
  23297355.592    -6426132.77249  -4998018.31545  23297355.467    23297370.599
  20307266.201   -23123264.90949 -17867407.13348  20307266.122    20307274.999
  23021195.309    -8534019.61949  -6637612.11546  23021195.419    23021212.721
  23539250.854    -6765886.41149  -5084980.74045  23539250.176    23539266.724
  22771114.330    -6516871.71649  -5068452.70846  22771113.696    22771126.919
  22677843.021    -9686095.57849  -7301888.99846  22677842.656    22677858.497
  23423372.491    -6628418.49449  -4909298.44245  23423372.207    23423388.090
 03  4  3 20 51 30.0000000  0  9G17G30G29G 6G26G15G10G23G18
  21371568.434   -19973741.10849 -15554889.32147  21371567.941    21371578.733
  22430543.941    -1135293.68549   -870406.17946  22430544.257    22430557.255
  23289625.908    -6466752.36349  -5029669.78046  23289625.807    23289640.838
  20306234.706   -23128685.63149 -17871631.07848  20306234.606    20306243.520
  23006547.416    -8610993.34549  -6697591.41046  23006547.549    23006564.946
  23524725.808    -6842215.43549  -5144457.75745  23524725.102    23524741.582
  22788721.580    -6424345.41949  -4996354.43946  22788720.956    22788734.261
  22660433.355    -9777584.14449  -7373178.55446  22660432.939    22660448.560
  23403578.072    -6732438.16149  -4990352.46545  23403577.830    23403593.517
 03  4  3 20 52  0.0000000  0  9G17G30G29G 6G26G15G10G23G18
  21364883.786   -20008868.83349 -15582261.52747  21364883.309    21364894.121
  22449006.035    -1038276.03249   -794808.25346  22449006.326    22449019.363
  23281975.363    -6506957.56649  -5060998.34646  23281975.144    23281989.920
  20305279.331   -23133706.20849 -17875543.23348  20305279.268    20305288.162
  22991957.325    -8687663.82649  -6757334.40646  22991957.470    22991974.926
  23510226.202    -6918410.36649  -5203830.28845  23510225.510    23510241.946
  22806382.385    -6331538.04449  -4924037.14046  22806381.770    22806395.040
  22643078.918    -9868782.77849  -7444242.18446  22643078.363    22643093.831
  23383819.549    -6836269.35449  -5071259.62045  23383819.189    23383834.795
 03  4  3 20 52 30.0000000  0  9G17G30G29G 6G26G15G10G23G18
  21358237.786   -20043793.67149 -15609475.64647  21358237.290    21358248.051
  22467509.678     -941039.85549   -719040.06046  22467509.986    22467523.053
  23274404.074    -6546745.45349  -5092001.75446  23274403.816    23274418.363
  20304400.542   -23138324.50649 -17879141.92148  20304400.466    20304409.330
  22977425.842    -8764026.87549  -6816837.83646  22977426.009    22977443.341
  23495752.416    -6994470.27249  -5263097.60045  23495751.680    23495767.878
  22824096.334    -6238451.26249  -4851502.13246  22824095.647    22824108.881
  22625780.054    -9959688.63849  -7515077.68546  22625779.469    22625794.758
  23364097.340    -6939909.30749  -5152017.74845  23364096.942    23364112.522
 03  4  3 20 53  0.0000000  0  9G17G30G29G 6G26G15G10G23G18
  21351630.358   -20078515.91249 -15636531.89647  21351629.854    21351640.619
  22486054.315     -843588.07649   -643103.85646  22486054.668    22486067.777
  23266912.464    -6586113.81849  -5122678.27446  23266912.332    23266926.629
  20303598.502   -23142539.47749 -17882426.31548  20303598.401    20303607.228
  22962953.726    -8840078.99949  -6876098.96446  22962953.848    22962970.885
  23481304.281    -7070394.89149  -5322259.47645  23481303.542    23481319.444
  22841862.846    -6145088.25549  -4778751.86246  22841862.118    22841875.349
  22608537.118   -10050299.85449  -7585683.59746  22608536.576    22608551.699
  23344411.907    -7043355.81549  -5232625.13345  23344411.511    23344427.011
 03  4  3 20 53 30.0000000  0 10G17G30G29G 6G16G26G15G10G23G18
  21345061.230   -20113036.70049 -15663431.17347  21345060.732    21345071.491
  22504639.406     -745924.18149   -567002.37546  22504639.702    22504652.849
  23259500.941    -6625060.99249  -5153026.57546  23259500.783    23259515.104
  20302873.336   -23146350.37949 -17885395.86248  20302873.223    20302882.007
                   -300988.60949   -217671.74543
  22948541.151    -8915817.20549  -6935115.48746  22948541.256    22948558.193
  23466881.885    -7146184.60849  -5381316.25145  23466881.166    23466896.884
  22859681.266    -6051452.18449  -4705788.84946  22859680.553    22859693.806
  22591350.478   -10140614.90149  -7656058.71846  22591349.984    22591364.985
  23324763.597    -7146607.25549  -5313080.51645  23324763.253    23324778.646
 03  4  3 20 54  0.0000000  0 10G17G30G29G 6G16G26G15G10G23G18
  21338530.632   -20147355.11549 -15690172.75747  21338530.123    21338540.874
  22523264.430     -648049.78749   -490736.88046  22523264.738    22523277.939
  23252169.851    -6663583.49849  -5183043.98245  23252169.859    23252184.373
  20302225.499   -23149754.61749 -17888048.52948  20302225.392    20302234.156
                   -378412.70249   -278001.67243
  22934189.026    -8991236.86349  -6993883.76946  22934189.142    22934206.131
  23452485.496    -7221837.97749  -5440266.75745  23452484.823    23452500.355
  22877551.367    -5957544.50249  -4632614.18546  22877550.681    22877563.980
  22574220.855   -10230630.42149  -7726200.44846  22574220.383    22574235.364
  23305153.080    -7249660.19849  -5393381.21245  23305152.729    23305168.024
 03  4  3 20 54 30.0000000  0 10G17G30G29G 6G16G26G15G10G23G18
  21332038.455   -20181471.55849 -15716756.96547  21332037.947    21332048.647
  22541928.886     -549968.34949   -414310.05146  22541929.196    22541942.499
  23244920.054    -6701679.41349  -5212728.98345  23244920.097    23244934.849
  20301655.214   -23152751.55849 -17890383.82248  20301655.117    20301663.888
                   -455458.62649   -338037.35044                  24308761.214
  22919898.171    -9066334.64649  -7052401.23946  22919898.325    22919915.313
  23438114.965    -7297355.28749  -5499111.23945  23438114.321    23438129.777
  22895472.518    -5863368.39949  -4559230.36046  22895471.785    22895485.194
  22557148.583   -10320344.88249  -7796107.59446  22557148.102    22557163.052
  23285580.678    -7352512.88249  -5473525.87145  23285580.319    23285595.603
 03  4  3 20 55  0.0000000  0 10G17G30G29G 6G16G26G15G10G23G18
  21325584.410   -20215387.57749 -15743184.99447  21325583.906    21325594.572
  22560632.012     -451684.03749   -337725.14446  22560632.299    22560645.689
  23237751.993    -6739348.02149  -5242081.00445  23237751.959    23237766.674
  20301162.417   -23155341.28149 -17892401.80148  20301162.308    20301171.099
  24294159.593     -532125.38149   -397777.56845  24294158.684    24294172.245
  22905668.965    -9141108.72649  -7110666.47446  22905669.056    22905685.989
  23423769.926    -7372738.13149  -5557850.94645  23423769.302    23423784.841
  22913443.890    -5768928.20049  -4485640.75046  22913443.183    22913456.715
  22540133.781   -10409757.64249  -7865779.64946  22540133.251    22540148.149
  23266046.468    -7455164.55849  -5553513.88845  23266046.072    23266061.440
 03  4  3 20 55 30.0000000  0 10G17G30G29G 6G16G26G15G10G23G18
  21319168.451   -20249103.66249 -15769457.23547  21319167.947    21319178.560
  22579373.105     -353200.04649   -260984.64046  22579373.385    22579386.874
  23230665.507    -6776587.57849  -5271098.70145  23230665.365    23230680.163
  20300747.246   -23157522.84849 -17894101.73748  20300747.135    20300755.936
  24279642.522     -608410.68649   -457220.53045  24279641.374    24279655.435
  22891501.903    -9215555.65149  -7168676.77746  22891502.033    22891518.885
  23409450.443    -7447986.38949  -5616485.77445  23409449.826    23409465.527
  22931465.014    -5674226.76049  -4411847.56746  22931464.337    22931477.993
  22523176.683   -10498866.87849  -7935215.19246  22523176.190    22523191.069
  23246550.816    -7557613.05849  -5633343.58045  23246550.499    23246565.869
 03  4  3 20 56  0.0000000  0 10G17G30G29G 6G16G26G15G10G23G18
  21312790.525   -20282619.92649 -15795573.77047  21312790.032    21312800.599
  22598151.596     -254519.10149   -184090.66746  22598151.914    22598165.551
  23223661.229    -6813395.28249  -5299779.89045  23223661.015    23223675.716
  20300410.077   -23159294.63649 -17895482.36748  20300410.008    20300418.797
  24265198.542     -684311.83349   -516364.20245  24265197.134    24265211.425
  22877397.900    -9289671.76049  -7226429.29646  22877398.067    22877414.739
  23395156.645    -7523099.41849  -5675015.22845  23395156.022    23395171.963
  22949535.510    -5579266.60649  -4337852.80346  22949534.827    22949548.486
  22506277.760   -10587670.42949  -8004412.54546  22506277.269    22506292.073
  23227094.266    -7659855.94549  -5713013.07946  23227093.958    23227109.386
 03  4  3 20 56 30.0000000  0 10G17G30G29G 6G16G26G15G10G23G18
  21306450.758   -20315935.34049 -15821533.79547  21306450.262    21306460.876
  22616967.302     -155642.86149   -107044.51846  22616967.639    22616981.399
  23216739.609    -6849768.13249  -5328122.23845  23216739.336    23216754.019
  20300151.393   -23160654.43049 -17896541.95948  20300151.307    20300160.076
  24250828.631     -759825.22849   -575205.68645  24250827.431    24250841.808
  22863357.778    -9363452.31449  -7283920.36546  22863357.947    22863374.479
  23380888.766    -7598075.84549  -5733438.25045  23380888.189    23380904.164
  22967655.012    -5484049.20049  -4263657.57346  22967654.303    22967667.883
  22489437.546   -10676165.02349  -8073369.14246  22489437.077    22489451.826
  23207677.512    -7761890.10149  -5792519.91446  23207677.210    23207692.718
 03  4  3 20 57  0.0000000  0 10G17G30G29G 6G16G26G15G10G23G18
  21300149.076   -20349050.22549 -15847337.56247  21300148.584    21300159.229
  22635819.655      -56574.15249    -29848.40846  22635819.968    22635833.848
  23209901.043    -6885703.58449  -5356123.76745  23209900.880    23209915.470
  20299971.367   -23161600.91849 -17897279.49248  20299971.272    20299979.971
  24236532.835     -834948.40649   -633743.09745  24236531.968    24236546.472
  22849382.190    -9436893.73549  -7341147.16246  22849382.312    22849398.691
  23366646.983    -7672915.37249  -5791754.57945  23366646.458    23366662.496
  22985823.011    -5388577.14149  -4189263.91946  22985822.267    22985835.709
  22472656.530   -10764348.37849  -8142083.22446  22472656.095    22472670.794
  23188300.923    -7863713.08249  -5871862.18846  23188300.624    23188316.251
 03  4  3 20 57 30.0000000  0 10G17G30G29G 6G16G26G15G10G23G18
  21293885.630   -20381964.61349 -15872985.09347  21293885.170    21293895.823
  22654708.065       42684.45249     47495.68146  22654708.372    22654722.410
  23203146.177    -6921199.51449  -5383782.79045  23203146.116    23203160.629
  20299870.204   -23162132.75049 -17897693.91548  20299870.122    20299878.792
  24222311.663     -909678.92549   -691974.53944  24222311.214    24222325.291
  22835471.817    -9509992.27049  -7398106.77946  22835471.912    22835488.040
  23352431.195    -7747618.10349  -5849964.31645  23352430.698    23352446.805
  23004038.922    -5292853.26149  -4114674.04546  23004038.145    23004051.472
  22455935.175   -10852218.38249  -8210553.12546  22455934.761    22455949.426
  23168965.095    -7965322.55149  -5951038.11046  23168964.780    23168980.370
 03  4  3 20 58  0.0000000  0 10G17G30G29G 6G16G26G15G10G23G18
  21287660.338   -20414678.83949 -15898476.65247  21287659.840    21287670.467
  22673631.884      142129.82249    124985.30846  22673632.261    22673646.437
  23196475.573    -6956253.62049  -5411097.52346  23196475.524    23196489.839
  20299848.122   -23162248.75349 -17897784.31348  20299848.008    20299856.728
  24208165.680     -984014.57549   -749898.29744  24208165.417    24208179.636
  22821627.258    -9582744.61649  -7454796.65546  22821627.377    22821643.363
  23338241.626    -7822183.71549  -5908067.21345  23338241.092    23338257.221
  23022302.228    -5196880.03749  -4039889.86146  23022301.432    23022314.749
  22439273.808   -10939773.15649  -8278777.38646  22439273.385    22439288.001
  23149670.269    -8066716.50649  -6030046.09446  23149669.938    23149685.536
 03  4  3 20 58 30.0000000  0 10G17G30G29G 6G16G26G15G10G23G18
  21281472.670   -20447195.24649 -15923814.07647  21281472.183    21281482.755
  22692590.399      241756.94149    202616.53846  22692590.796    22692605.056
  23189888.967    -6990866.24149  -5438068.24246  23189888.904    23189903.160
  20299904.933   -23161950.02149 -17897551.54648  20299904.838    20299913.636
  24194095.178    -1057955.24149   -807514.25145  24194094.787    24194108.894
  22807848.836    -9655149.48349  -7511215.76646  22807848.916    22807864.888
  23324077.736    -7896614.30549  -5966064.89845  23324077.218    23324093.250
  23040612.007    -5100662.51249  -3964915.33946  23040611.206    23040624.560
  22422672.341   -11027012.96949  -8346756.23546  22422671.978    22422686.514
  23130416.503    -8167894.92049  -6108886.14146  23130416.166    23130431.608
 03  4  3 20 59  0.0000000  0 10G17G30G29G 6G16G26G15G10G23G18
  21275322.801   -20479512.89649 -15948996.61647  21275322.301    21275332.816
  22711583.245      341564.02149    280388.00446  22711583.648    22711597.949
  23183386.828    -7025034.07249  -5464692.37746  23183386.796    23183401.154
  20300041.183   -23161234.14349 -17896993.72948  20300041.084    20300049.843
  24180100.789    -1131497.29149   -864819.62145  24180100.324    24180114.403
  22794137.253    -9727202.25349  -7567360.53446  22794137.328    22794153.457
  23309939.992    -7970908.41649  -6023956.21945  23309939.475    23309955.372
  23058967.914    -5004202.29949  -3889751.69645  23058967.139    23058980.468
  22406131.617   -11113934.60949  -8414487.15246  22406131.209    22406145.637
  23111204.407    -8268854.48949  -6187555.65346  23111204.047    23111219.339
 03  4  3 20 59 30.0000000  0 10G17G30G29G 6G16G26G15G10G23G18
  21269210.799   -20511631.83549 -15974024.31547  21269210.302    21269220.724
  22730609.862      441548.32749    358297.56246  22730610.226    22730624.532
  23176969.811    -7058755.00749  -5490968.29146  23176969.768    23176984.275
  20300257.011   -23160099.89949 -17896109.91148  20300256.905    20300265.687
  24166182.724    -1204638.26749   -921812.43845  24166182.219    24166195.982
  22780493.506    -9798899.21549  -7623228.05846  22780493.642    22780509.710
  23295828.263    -8045065.79749  -6081741.02045  23295827.734    23295843.547
  23077369.453    -4907502.01449  -3814400.98245  23077368.690    23077382.133
  22389651.864   -11200536.04749  -8481968.53946  22389651.407    22389665.809
  23092034.317    -8369592.84749  -6266052.81946  23092033.978    23092049.134
 03  4  3 21  0  0.0000000  0 10G17G30G29G 6G16G26G15G10G23G18
  21263136.343   -20543553.41949 -15998898.22847  21263135.827    21263146.194
  22749669.454      541705.93549    436342.15746  22749669.811    22749684.060
  23170638.067    -7092027.81449  -5516895.02046  23170638.021    23170652.630
  20300552.473   -23158547.03349 -17894899.89248  20300552.400    20300561.191
  24152341.182    -1277376.83749   -978491.69845  24152340.712    24152354.375
  22766918.036    -9870238.18949  -7678816.65546  22766918.121    22766933.962
  23281742.475    -8119087.34749  -6139419.98945  23281741.925    23281757.639
  23095815.916    -4810565.20449  -3738865.97845  23095815.249    23095828.815
  22373233.133   -11286816.26949  -8549199.63346  22373232.684    22373247.105
  23072906.578    -8470108.85749  -6344376.72946  23072906.240    23072921.191
 03  4  3 21  0 30.0000000  0 10G17G30G29G 6G16G26G15G10G23G18
  21257099.542   -20575276.66549 -16023617.59647  21257099.037    21257109.408
  22768761.751      642035.08149    514520.41946  22768762.064    22768776.243
  23164392.189    -7124849.52849  -5542470.25246  23164392.165    23164406.696
  20300928.116   -23156573.42549 -17893362.02148  20300928.030    20300936.751
  24138576.586    -1349709.54649  -1034854.70545  24138576.211    24138590.062
  22753411.636    -9941214.33749  -7734122.52546  22753411.751    22753427.302
  23267682.744    -8192971.61149  -6196992.00245  23267682.189    23267697.732
  23114307.241    -4713393.33249  -3663147.79245  23114306.578    23114320.222
  22356876.083   -11372772.22049  -8616178.04746  22356875.637    22356890.028
  23053821.837    -8570399.14049  -6422524.73546  23053821.522    23053836.216
 03  4  3 21  1  0.0000000  0 10G17G30G29G 6G16G26G15G10G23G18
  21251100.325   -20606802.54649 -16048183.17347  21251099.830    21251110.186
  22787885.883      742532.23149    592829.58746  22787886.234    22787900.406
  23158232.372    -7157218.71949  -5567692.87046  23158232.370    23158246.887
  20301383.835   -23154178.71149 -17891496.01048  20301383.725    20301392.432
  24124889.553    -1421634.88449  -1090900.28545  24124889.287    24124903.183
  22739974.705   -10011825.19049  -7789143.76346  22739974.834    22739990.240
  23253648.928    -8266719.35649  -6254457.63246  23253648.474    23253663.846
  23132842.717    -4615990.05749  -3587249.31945  23132842.027    23132855.712
  22340580.932   -11458402.74449  -8682902.88846  22340580.519    22340594.845
  23034780.315    -8670462.53049  -6500495.94746  23034779.924    23034794.458
 03  4  3 21  1 30.0000000  0 10G17G30G29G 6G16G26G15G10G23G18
  21245138.528   -20638131.77649 -16072595.51547  21245138.007    21245148.373
  22807041.451      843194.30649    671267.26246  22807041.743    22807056.046
  23152159.061    -7189133.55149  -5592561.44146  23152159.184    23152173.550
  20301919.775   -23151361.87849 -17889301.07848  20301919.674    20301928.437
  24111280.412    -1493150.77749  -1146626.84345  24111279.839    24111293.989
  22726607.808   -10082067.13749  -7843877.54146  22726607.987    22726623.554
  23239641.138    -8340330.51149  -6311816.82546  23239640.632    23239656.034
  23151421.805    -4518357.93149  -3511172.51245  23151421.075    23151434.720
  22324347.995   -11543706.12049  -8749372.80746  22324347.606    22324361.879
  23015782.349    -8770296.68549  -6578288.53646  23015781.916    23015796.340
 03  4  3 21  2  0.0000000  0 10G17G30G29G 6G16G26G15G10G23G18
  21239214.256   -20669263.80449 -16096854.19347  21239213.748    21239224.132
  22826227.811      944018.78949    749831.49946  22826228.170    22826242.566
  23146172.799    -7220591.80949  -5617074.23846  23146172.848    23146187.097
  20302536.394   -23148121.37049 -17886776.00948  20302536.317    20302545.068
  24097749.604    -1564254.48149  -1202032.20145  24097748.946    24097763.153
  22713311.858   -10151936.58949  -7898321.06746  22713312.062    22713327.763
  23225659.350    -8413804.66449  -6369069.26946  23225658.852    23225674.253
  23170043.832    -4420499.71549  -3434919.53945  23170043.103    23170056.628
  22308177.864   -11628679.97349  -8815585.95246  22308177.461    22308191.721
  22996828.491    -8869899.26049  -6655900.66746  22996828.088    22996842.353
 03  4  3 21  2 30.0000000  0 10G17G30G29G 6G16G26G15G10G23G18
  21233327.434   -20700199.00549 -16120959.50147  21233326.924    21233337.329
  22845444.520     1045002.62749    828519.89446  22845444.877    22845459.492
  23140273.806    -7251591.72449  -5641229.89846  23140273.751    23140287.891
  20303233.860   -23144456.27749 -17883920.09848  20303233.774    20303242.532
  24084297.636    -1634943.88049  -1257114.72745  24084296.968    24084311.229
  22700087.529   -10221430.22849  -7952471.74746  22700087.697    22700103.402
  23211703.740    -8487141.52249  -6426214.72446  23211703.233    23211718.543
  23188708.353    -4322418.18249  -3358492.55045  23188707.532    23188721.056
  22292070.762   -11713322.73049  -8881541.10346  22292070.361    22292084.513
  22977919.066    -8969268.29149  -6733330.81546  22977918.629    22977932.829
 03  4  3 21  3  0.0000000  0 10G17G30G29G 6G16G26G15G10G23G18
  21227478.083   -20730937.38749 -16144911.44947  21227477.573    21227487.954
  22864691.179     1146143.33249    907330.52446  22864691.503    22864706.264
  23134462.584    -7282130.73449  -5665026.40546  23134462.495    23134476.474
  20304012.382   -23140365.15049 -17880732.20748  20304012.275    20304021.073
  24070925.006    -1705216.26649  -1311872.30845  24070924.346    24070938.752
  22686935.190   -10290544.30649  -8006326.66046  22686935.412    22686951.238
  23197774.361    -8560340.55249  -6483252.78346  23197773.825    23197789.043
  23207414.824    -4224115.24749  -3281893.04045  23207414.071    23207427.611
  22276027.105   -11797632.05849  -8947236.44246  22276026.638    22276040.671
  22959054.534    -9068401.16049  -6810576.93846  22959054.078    22959068.270
 03  4  3 21  3 30.0000000  0 10G17G30G29G 6G16G26G15G10G23G18
  21221665.666   -20761481.46549 -16168711.99147  21221665.167    21221675.538
  22883966.696     1247435.56549    986259.21946  22883967.039    22883981.899
  23128738.785    -7312209.29049  -5688464.13746  23128738.648    23128752.666
  20304871.644   -23135849.46049 -17877213.49748  20304871.540    20304880.432
  24057631.923    -1775071.98349  -1366305.21445  24057631.468    24057645.719
  22673855.375   -10359277.84349  -8059885.04646  22673855.617    22673871.555
  23183870.710    -8633404.18149  -6540185.34946  23183870.191    23183885.310
  23226162.414    -4125596.07249  -3205125.02545  23226161.623    23226175.366
  22260046.703   -11881608.36649  -9012672.29346  22260046.271    22260060.204
  22940234.750    -9167298.24149  -6887639.32046  22940234.297    22940248.499
 03  4  3 21  4  0.0000000  0 10G17G30G29G 6G16G26G15G10G23G18
  21215890.715   -20791828.94549 -16192359.34347  21215890.245    21215900.547
  22903271.074     1348879.00649   1065305.72746  22903271.394    22903286.306
  23123103.258    -7341822.82549  -5711539.52546  23123103.199    23123117.318
  20305812.421   -23130905.38649 -17873360.98748  20305812.329    20305821.313
  24044419.340    -1844505.95149  -1420409.48245  24044418.964    24044432.732
  22660849.108   -10427624.77749  -8113142.18846  22660849.351    22660865.371
  23169993.435    -8706329.46949  -6597010.12846  23169992.878    23170007.823
  23244951.077    -4026860.90849  -3128188.71545  23244950.356    23244964.241
  22244130.617   -11965247.31149  -9077845.27246  22244130.139    22244143.982
  22921460.609    -9265954.88049  -6964514.33746  22921460.294    22921474.462
 03  4  3 21  4 30.0000000  0 10G17G30G29G 6G16G26G15G10G23G18
  21210152.950   -20821981.30749 -16215854.66647  21210152.477    21210162.713
  22922603.442     1450469.60649   1144466.90346  22922603.811    22922618.672
  23117556.300    -7370971.14949  -5734252.40046  23117556.219    23117570.407
  20306834.664   -23125533.31949 -17869174.97848  20306834.581    20306843.603
  24031286.932    -1913517.40349  -1474184.50745  24031286.486    24031300.040
  22647916.945   -10495583.04149  -8166096.46146  22647917.183    22647933.083
  23156142.278    -8779117.60949  -6653728.01546  23156141.747    23156156.356
  23263780.162    -3927913.46149  -3051087.00045  23263779.481    23263793.485
  22228278.738   -12048548.36249  -9142754.96046  22228278.254    22228292.023
  22902732.482    -9364370.43249  -7041201.48546  22902732.208    22902746.301
 03  4  3 21  5  0.0000000  0 10G17G30G29G 6G16G26G15G10G23G18
  21204452.278   -20851938.84349 -16239198.16947  21204451.803    21204461.971
  22941963.278     1552204.51349   1223740.53246  22941963.648    22941978.533
  23112098.344    -7399651.94449  -5756600.98746  23112098.338    23112112.514
  20307938.597   -23119732.12549 -17864654.58448  20307938.517    20307947.514
  24018234.963    -1982103.99949  -1527628.49145  24018234.584    24018248.350
  22635059.443   -10563149.14849  -8218745.15546  22635059.625    22635075.473
  23142317.283    -8851768.48849  -6710338.94446  23142316.747    23142331.202
  23282649.235    -3828756.35149  -2973821.90445  23282648.507    23282662.692
  22212491.379   -12131509.60749  -9207399.87346  22212490.993    22212504.723
  22884050.888    -9462542.20049  -7117698.67846  22884050.602    22884064.516
 03  4  3 21  5 30.0000000  0 10G17G30G29G 6G16G26G15G10G23G18
  21198788.684   -20881701.26349 -16262389.63347  21198788.165    21198798.354
  22961350.056     1654081.04249   1303124.49946  22961350.397    22961365.359
  23106729.722    -7427863.23849  -5778583.70946  23106729.844    23106744.049
  20309124.427   -23113500.56149 -17859798.83948  20309124.346    20309133.328
  24005264.165    -2050263.40549  -1580739.57745  24005263.972    24005277.961
  22622277.153   -10630319.57049  -8271085.53746  22622277.364    22622293.160
  23128518.415    -8924281.56349  -6766842.48046  23128517.911    23128532.304
  23301557.916    -3729392.01449  -2896395.32845  23301557.197    23301571.274
  22196769.200   -12214128.94949  -9271778.35646  22196768.837    22196782.477
  22865416.035    -9560468.08149  -7194004.25446  22865415.733    22865429.570
 03  4  3 21  6  0.0000000  0 10G17G30G29G 6G16G26G15G10G23G18
  21193162.244   -20911268.32049 -16285428.87547  21193161.720    21193171.921
  22980763.377     1756096.95249   1382617.08346  22980763.707    22980778.719
  23101451.080    -7455602.71349  -5800198.80146  23101451.178    23101465.435
  20310392.506   -23106837.06349 -17854606.52748  20310392.418    20310401.399
  23992375.340    -2117992.79749  -1633515.59945  23992375.235    23992389.429
  22609570.857   -10697090.33849  -8323114.49446  22609571.159    22609586.874
  23114745.877    -8996656.27449  -6823238.20346  23114745.405    23114759.596
  23320505.625    -3629822.66149  -2818809.01545  23320504.869    23320518.951
  22181112.532   -12296404.17449  -9335888.71146  22181112.166    22181125.736
  22846828.389    -9658145.54649  -7270116.25646  22846828.081    22846841.863
 03  4  3 21  6 30.0000000  0 10G17G30G29G 6G16G26G15G10G23G18
  21187572.316   -20940643.22349 -16308318.38647  21187571.809    21187581.997
  23000202.100     1858246.20049   1462213.55746  23000202.440    23000217.517
  23096261.865    -7482871.65349  -5821447.23246  23096261.921    23096276.388
  20311742.350   -23099743.68649 -17849079.23948  20311742.263    20311751.204
  23979568.415    -2185293.14949  -1685957.33345  23979568.241    23979582.518
  22596940.805   -10763461.42449  -8374831.99046  22596941.054    22596956.546
  23100999.258    -9068895.38449  -6879528.25246  23100998.721    23101012.712
  23339491.317    -3530053.91549  -2741067.31745  23339490.596    23339504.499
  22165521.124   -12378336.49049  -9399731.87246  22165520.720    22165534.276
  22828287.810    -9755575.43249  -7346035.34446  22828287.526    22828301.271
 03  4  3 21  7  0.0000000  0 10G17G30G29G 6G16G26G15G10G23G18
  21182019.624   -20969822.69149 -16331055.61747  21182019.113    21182029.275
  23019666.265     1960529.42149   1541914.42746  23019666.606    23019681.783
  23091163.230    -7509664.73949  -5842324.86446  23091163.331    23091177.777
  20313174.928   -23092215.92549 -17843213.48048  20313174.842    20313183.705
  23966844.493    -2252158.66249  -1738060.23345  23966844.289    23966858.308
  22584388.065   -10829425.74049  -8426232.52946  22584388.344    22584403.584
  23087279.062    -9140995.10949  -6935709.69046  23087278.510    23087292.471
  23358514.980    -3430084.88949  -2663169.56045  23358514.256    23358528.190
  22149995.936   -12459920.53349  -9463303.66546  22149995.538    22150009.111
  22809795.501    -9852752.07049  -7421757.09946  22809795.208    22809808.851
 03  4  3 21  7 30.0000000  0 10G17G30G29G 6G16G26G15G10G23G18
  21176503.856   -20998808.47349 -16353641.91247  21176503.342    21176513.475
  23039155.137     2062942.43549   1621716.42846  23039155.454    23039170.737
  23086155.333    -7535981.45849  -5862831.29546  23086155.297    23086169.559
  20314690.010   -23084254.33949 -17837009.67748  20314689.933    20314698.738
  23954203.332    -2318588.66249  -1789823.75945  23954203.071    23954216.636
  22571913.115   -10894981.39349  -8477314.63246  22571913.380    22571928.499
  23073584.948    -9212957.05249  -6991783.75546  23073584.401    23073598.598
  23377575.925    -3329919.76349  -2585119.00445  23377575.251    23377589.192
  22134537.128   -12541156.00249  -9526603.83246  22134536.729    22134550.335
  22791351.375    -9949675.10849  -7497281.24846  22791351.057    22791364.677
 03  4  3 21  8  0.0000000  0 10G17G30G29G 6G16G26G15G10G23G18
  21171024.373   -21027603.21349 -16376079.34547  21171023.835    21171033.966
  23058667.635     2165480.00349   1701615.48946  23058667.946    23058683.364
  23081237.799    -7561822.48049  -5882967.05446  23081237.772    23081251.880
  20316287.338   -23075860.24949 -17830468.85748  20316287.277    20316296.067
  23941644.944    -2384583.24849  -1841247.97045  23941644.654    23941658.075
  22559516.137   -10960127.46349  -8528077.57646  22559516.372    22559531.429
  23059916.649    -9284783.26049  -7047752.05746  23059916.053    23059930.563
  23396673.225    -3229563.38949  -2506919.42945  23396672.610    23396686.630
  22119144.625   -12622043.38549  -9589632.77746  22119144.195    22119157.863
  22772955.423   -10046344.70949  -7572607.90746  22772955.053    22772968.775
 03  4  3 21  8 30.0000000  0 10G17G30G29G 6G16G26G15G10G23G18
  21165581.885   -21056203.60249 -16398365.33347  21165581.353    21165591.490
  23078203.893     2268142.60449   1781611.96946  23078204.152    23078219.809
  23076411.655    -7587182.72149  -5902728.17446  23076411.723    23076425.766
  20317967.824   -23067029.38949 -17823587.69748  20317967.724    20317976.542
  23929170.269    -2450137.27849  -1892328.89745  23929169.991    23929183.296
  22547198.382   -11024857.41149  -8578516.27946  22547198.549    22547213.621
  23046274.791    -9356470.33549  -7103611.91946  23046274.157    23046288.847
  23415807.099    -3129015.11849  -2428570.31845  23415806.484    23415820.610
  22103819.356   -12702577.63749  -9652386.55746  22103818.965    22103832.541
  22754608.628   -10142755.50049  -7647732.90846  22754608.274    22754622.017
 03  4  3 21  9  0.0000000  0 10G17G30G29G 6G16G26G15G10G23G18
  21160176.158   -21084610.76049 -16420500.75747  21160175.625    21160185.752
  23097763.105     2370926.18049   1861702.71446  23097763.370    23097779.173
  23071677.202    -7612061.58049  -5922114.21746  23071677.280    23071691.280
  20319731.305   -23057761.92749 -17816366.33448  20319731.223    20319740.124
  23916779.793    -2515249.65249  -1943065.68745  23916779.458    23916792.642
  22534960.110   -11089169.02949  -8628629.02946  22534960.292    22534975.341
  23032659.268    -9428019.37749  -7159364.22646  23032658.693    23032673.305
  23434976.842    -3028278.69349  -2350074.59845  23434976.193    23434990.443
  22088561.511   -12782758.08149  -9714864.64946  22088561.038    22088574.533
  22736311.357   -10238906.45549  -7722655.44546  22736311.050    22736324.716
 03  4  3 21  9 30.0000000  0 10G17G30G29G 6G16G26G15G10G23G18
  21154806.998   -21112825.64749 -16442486.35247  21154806.482    21154816.618
  23117344.853     2473827.79049   1941885.42346  23117345.165    23117361.020
  23067034.794    -7636457.66949  -5941124.06146  23067034.884    23067048.766
  20321578.054   -23048057.16049 -17808804.20948  20321577.974    20321587.000
  23904473.800    -2579918.23949  -1993456.66245  23904473.547    23904486.770
  22522801.995   -11153059.27849  -8678413.44646  22522802.179    22522817.240
  23019070.052    -9499430.32949  -7215008.94146  23019069.490    23019084.047
  23454181.875    -2927356.97149  -2271434.48545  23454181.098    23454195.352
  22073371.115   -12862583.33949  -9777065.97246  22073370.654    22073384.055
  22718063.988   -10334796.00649  -7797374.30346  22718063.643    22718077.089
 03  4  3 21 10  0.0000000  0 10G17G30G29G 6G16G26G15G10G23G18
  21149474.313   -21140848.88549 -16464322.61047  21149473.794    21149483.911
  23136948.371     2576843.32149   2022156.89046  23136948.623    23136964.433
  23062484.470    -7660370.18649  -5959757.08446  23062484.524    23062498.181
  20323508.013   -23037915.25049 -17800901.46248  20323507.938    20323516.944
  23892252.167    -2644142.11549  -2043501.13245  23892251.899    23892265.477
  22510724.507   -11216525.78449  -8727867.67946  22510724.710    22510739.760
  23005507.080    -9570703.82349  -7270546.55446  23005506.509    23005520.825
  23473421.533    -2826253.20649  -2192652.52045  23473420.719    23473434.911
  22058248.407   -12942052.60049  -9838989.90147  22058248.003    22058261.391
  22699866.555   -10430422.87049  -7871888.47146  22699866.220    22699879.618
 03  4  3 21 10 30.0000000  0 10G17G30G29G 6G16G26G15G10G23G18
  21144178.330   -21168679.26349 -16486008.59047  21144177.830    21144187.947
  23156573.224     2679971.41449   2102516.07546  23156573.537    23156589.307
  23058026.593    -7683796.36549  -5978011.14246  23058026.690    23058040.115
  20325521.519   -23027334.08949 -17792656.43148  20325521.444    20325530.422
  23880115.781    -2707918.02949  -2093196.53845  23880115.511    23880129.343
  22498728.570   -11279564.25649  -8776988.38546  22498728.814    22498743.739
  22991970.619    -9641838.54449  -7325976.01346  22991970.060    22991984.214
  23492695.550    -2724968.89449  -2113729.86445  23492694.726    23492708.889
  22043194.063   -13021162.89649  -9900634.10947  22043193.695    22043207.070
  22681719.610   -10525783.99949  -7946195.57446  22681719.343    22681732.784
 03  4  3 21 11  0.0000000  0 10G17G30G29G 6G16G26G15G10G23G18
  21138918.634   -21196318.89549 -16507545.93847  21138918.152    21138928.265
  23176218.776     2783207.85049   2182959.68346  23176219.017    23176234.820
  23053661.337    -7706735.73049  -5995885.85546  23053661.363    23053674.769
  20327618.604   -23016313.89449 -17784069.30048  20327618.542    20327627.507
  23868064.863    -2771244.95449  -2142542.06945  23868064.573    23868078.532
  22486814.609   -11342172.50849  -8825773.85546  22486814.832    22486829.575
  22978460.358    -9712835.64649  -7381298.24246  22978459.713    22978473.861
  23512003.114    -2623507.91949  -2034669.56045  23512002.230    23512016.493
  22028208.110   -13099913.77049  -9961998.25447  22028207.719    22028221.092
  22663623.577   -10620878.27049  -8020294.75546  22663623.331    22663636.727
 03  4  3 21 11 30.0000000  0 10G17G30G29G 6G16G26G15G10G23G18
  21133695.452   -21223766.62749 -16528933.75347  21133694.968    21133705.149
  23195884.514     2886550.90149   2263486.36846  23195884.782    23195900.681
  23049389.116    -7729185.60349  -6013379.15446  23049389.110    23049402.589
  20329799.648   -23004852.88349 -17775138.66948  20329799.592    20329808.556
  23856100.116    -2834120.12849  -2191535.58845  23856099.776    23856113.566
  22474983.184   -11404346.41649  -8874220.87446  22474983.393    22474997.995
  22964976.315    -9783693.89849  -7436512.28846  22964975.639    22964989.880
  23531343.981    -2521871.96349  -1955472.90045  23531343.119    23531357.316
  22013291.069   -13178302.64249 -10023080.31246  22013290.696    22013304.003
  22645578.914   -10715702.80249  -8094183.74846  22645578.662    22645592.017
 03  4  3 21 12  0.0000000  0 10G17G30G29G 6G16G26G15G10G23G18
  21128508.617   -21251023.48049 -16550172.84247  21128508.148    21128518.342
  23215569.893     2989997.17849   2344093.48246  23215570.244    23215586.189
  23045210.116    -7751144.89949  -6030490.21145  23045210.203    23045223.682
  20332064.600   -22992950.74349 -17765864.30648  20332064.524    20332073.537
  23844221.675    -2896541.85949  -2240175.78145  23844221.300    23844235.074
  22463234.912   -11466083.28649  -8922327.34346  22463235.096    22463249.593
  22951518.540    -9854413.79849  -7491618.54146  22951517.905    22951532.148
  23550717.423    -2420064.02449  -1876142.21545  23550716.608    23550730.863
  21998443.195   -13256328.37649 -10083879.40646  21998442.785    21998456.014
  22627585.896   -10810256.00849  -8167861.33046  22627585.699    22627598.980
 03  4  3 21 12 30.0000000  0 10G17G30G29G 6G16G26G15G10G23G18
  21123358.203   -21278089.32249 -16571263.08247  21123357.704    21123367.808
  23235274.547     3093544.12249   2424779.03346  23235274.953    23235290.857
  23041124.989    -7772611.84349  -6047217.60445  23041125.081    23041138.541
  20334413.709   -22980606.42149 -17756245.38248  20334413.648    20334422.659
  23832429.828    -2958507.91149  -2288460.93245  23832429.423    23832443.405
  22451570.377   -11527379.53449  -8970090.49646  22451570.621    22451585.096
  22938087.273    -9924994.97649  -7546616.70246  22938086.603    22938100.753
  23570123.189    -2318086.43349  -1796679.34245  23570122.414    23570136.679
  21983664.780   -13333989.01649 -10144394.01146  21983664.366    21983677.505
  22609645.078   -10904535.59449  -8241325.70446  22609644.839    22609657.997
 03  4  3 21 13  0.0000000  0 10G17G30G29G 6G16G26G15G10G23G18
  21118243.998   -21304964.66449 -16592204.87947  21118243.474    21118253.525
  23254997.807     3197188.09249   2505540.19046  23254998.178    23255014.049
  23037133.690    -7793585.52149  -6063560.63445  23037133.835    23037147.327
  20336846.968   -22967819.83949 -17746281.83648  20336846.864    20336855.909
  23820724.657    -3020017.12249  -2336390.10145  23820724.257    23820738.457
  22439990.328   -11588232.86349  -9017508.50946  22439990.548    22440004.938
  22924682.340    -9995437.84849  -7601507.08646  22924681.663    22924695.736
  23589560.695    -2215942.39049  -1717086.76445  23589559.847    23589574.041
  21968955.951   -13411283.81649 -10204623.54847  21968955.539    21968968.591
  22591756.514   -10998540.50849  -8314576.04346  22591756.233    22591769.239
 03  4  3 21 13 30.0000000  0 10G17G30G29G 6G16G26G15G10G23G18
  21113165.871   -21331650.01849 -16612998.63147  21113165.360    21113175.471
  23274738.975     3300925.87249   2586374.45046  23274739.332    23274754.960
  23033236.485    -7814065.00149  -6079518.60245  23033236.602    23033250.116
  20339364.381   -22954590.52949 -17735973.31848  20339364.311    20339373.380
  23809106.849    -3081067.84349  -2383962.01945  23809106.449    23809120.928
  22428495.082   -11648640.53349  -9064579.24946  22428495.246    22428509.591
  22911303.588   -10065742.70249  -7656289.95446  22911302.955    22911317.028
  23609029.265    -2113634.87449  -1637366.80045  23609028.300    23609042.752
  21954317.051   -13488211.36549 -10264566.92247  21954316.633    21954329.558
  22573920.441   -11092269.20649  -8387611.16646  22573920.130    22573932.987
